[[{"header":{"parameterUnit":"m.s-1","parameterCategory":1,"la1":30.6,"la2":28.766,"lo1":-90.7593,"lo2":-88.6598,"dy":0.0162,"dx":0.0183,"nx":116,"ny":114,"refTime":"2023-10-01T18:00:00:Z","depth":0,"parameterNumber":2,"parameterNumberName":"U-component_of_WINDS"},"data":[0.0,0.0,0.0,0.0,0.0,0.0,0.0,0.0,0.0,0.0,0.0,0.0,0.0,0.0,0.0,0.0,0.0,0.0,0.0,0.0,0.0,0.0,0.0,0.0,0.0,0.0,0.0,0.0,0.0,0.0,0.0,0.0,0.0,0.0,0.0,0.0,0.0,0.0,0.0,0.0,0.0,0.0,0.0,0.0,0.0,0.0,0.0,0.0,0.0,0.0,0.0,0.0,0.0,0.0,0.0,0.0,0.0,0.0,0.0,0.0,0.0,0.0,0.0,0.0,0.0,0.0,0.0,0.0,0.0,0.0,0.0,0.0,0.0,0.0,0.0,0.0,0.0,0.0,0.0,0.0,0.0,0.0,0.0,0.0,0.0,0.0,0.0,0.0,0.0,0.0,0.0,0.0,0.0,0.0,0.0,0.0,0.0,0.0,0.0,0.0,0.0,0.0,0.0,0.0,0.0,0.0,0.0,0.0,0.0,0.0,0.0,0.0,0.0,0.0,0.0,0.0,0.0,0.0,0.0,0.0,0.0,0.0,0.0,0.0,0.0,0.0,0.0,0.0,0.0,0.0,0.0,0.0,0.0,0.0,0.0,0.0,0.0,0.0,0.0,0.0,0.0,0.0,0.0,0.0,0.0,0.0,0.0,0.0,0.0,0.0,0.0,0.0,0.0,0.0,0.0,0.0,0.0,0.0,0.0,0.0,0.0,0.0,0.0,0.0,0.0,0.0,0.0,0.0,0.0,0.0,0.0,0.0,0.0,0.0,0.0,0.0,0.0,0.0,0.0,0.0,0.0,0.0,0.0,0.0,0.0,0.0,0.0,0.0,0.0,0.0,0.0,0.0,0.0,0.0,0.0,0.0,0.0,0.0,0.0,0.0,0.0,0.0,0.0,0.0,0.0,0.0,0.0,0.0,0.0,0.0,0.0,0.0,0.0,0.0,0.0,0.0,0.0,0.0,0.0,0.0,0.0,0.0,0.0,0.0,0.0,0.0,0.0,0.0,0.0,0.0,0.0,0.0,0.0,0.0,0.0,0.0,0.0,0.0,0.0,0.0,0.0,0.0,0.0,0.0,0.0,0.0,0.0,0.0,0.0,0.0,0.0,0.0,0.0,0.0,0.0,0.0,0.0,0.0,0.0,0.0,0.0,0.0,0.0,0.0,0.0,0.0,0.0,0.0,0.0,0.0,0.0,0.0,0.0,0.0,0.0,0.0,0.0,0.0,0.0,0.0,0.0,0.0,0.0,0.0,0.0,0.0,0.0,0.0,0.0,0.0,0.0,0.0,0.0,0.0,0.0,0.0,0.0,0.0,0.0,0.0,0.0,0.0,0.0,0.0,0.0,0.0,0.0,0.0,0.0,0.0,0.0,0.0,0.0,0.0,0.0,0.0,0.0,0.0,0.0,0.0,0.0,0.0,0.0,0.0,0.0,0.0,0.0,0.0,0.0,0.0,0.0,0.0,0.0,0.0,0.0,0.0,0.0,0.0,0.0,0.0,0.0,0.0,0.0,0.0,0.0,0.0,0.0,0.0,0.0,0.0,0.0,0.0,0.0,0.0,0.0,0.0,0.0,0.0,0.0,0.0,0.0,0.0,0.0,0.0,0.0,0.0,0.0,0.0,0.0,0.0,0.0,0.0,0.0,0.0,0.0,0.0,0.0,0.0,0.0,0.0,0.0,0.0,0.0,0.0,0.0,0.0,0.0,0.0,0.0,0.0,0.0,0.0,0.0,0.0,0.0,0.0,0.0,0.0,0.0,0.0,0.0,0.0,0.0,0.0,0.0,0.0,0.0,0.0,0.0,0.0,0.0,0.0,0.0,0.0,0.0,0.0,0.0,0.0,0.0,0.0,0.0,0.0,0.0,0.0,0.0,0.0,0.0,0.0,0.0,0.0,0.0,0.0,0.0,0.0,0.0,0.0,0.0,0.0,0.0,0.0,0.0,0.0,0.0,0.0,0.0,0.0,0.0,0.0,0.0,0.0,0.0,0.0,0.0,0.0,0.0,0.0,0.0,0.0,0.0,0.0,0.0,0.0,0.0,0.0,0.0,0.0,0.0,0.0,0.0,0.0,0.0,0.0,0.0,0.0,0.0,0.0,0.0,0.0,0.0,0.0,0.0,0.0,0.0,0.0,0.0,0.0,0.0,0.0,0.0,0.0,0.0,0.0,0.0,0.0,0.0,0.0,0.0,0.0,0.0,0.0,0.0,0.0,0.0,0.0,0.0,0.0,0.0,0.0,0.0,0.0,0.0,0.0,0.0,0.0,0.0,0.0,0.0,0.0,0.0,0.0,0.0,0.0,0.0,0.0,0.0,0.0,0.0,0.0,0.0,0.0,0.0,0.0,0.0,0.0,0.0,0.0,0.0,0.0,0.0,0.0,0.0,0.0,0.0,0.0,0.0,0.0,0.0,0.0,0.0,0.0,0.0,0.0,0.0,0.0,0.0,0.0,0.0,0.0,0.0,0.0,0.0,0.0,0.0,0.0,0.0,0.0,0.0,0.0,0.0,0.0,0.0,0.0,0.0,0.0,0.0,0.0,0.0,0.0,0.0,0.0,0.0,0.0,0.0,0.0,0.0,0.0,0.0,0.0,0.0,0.0,0.0,0.0,0.0,0.0,0.0,0.0,0.0,0.0,0.0,0.0,0.0,0.0,0.0,0.0,0.0,0.0,0.0,0.0,0.0,0.0,0.0,0.0,0.0,0.0,0.0,0.0,0.0,0.0,0.0,0.0,0.0,0.0,0.0,0.0,0.0,0.0,0.0,0.0,0.0,0.0,0.0,0.0,0.0,0.0,0.0,0.0,0.0,0.0,0.0,0.0,0.0,0.0,0.0,0.0,0.0,0.0,0.0,0.0,0.0,0.0,0.0,0.0,0.0,0.0,0.0,0.0,0.0,0.0,0.0,0.0,0.0,0.0,0.0,0.0,0.0,0.0,0.0,0.0,0.0,0.0,0.0,0.0,0.0,0.0,0.0,0.0,0.0,0.0,0.0,0.0,0.0,0.0,0.0,0.0,0.0,0.0,0.0,0.0,0.0,0.0,0.0,0.0,0.0,0.0,0.0,0.0,0.0,0.0,0.0,0.0,0.0,0.0,0.0,0.0,0.0,0.0,0.0,0.0,0.0,0.0,0.0,0.0,0.0,0.0,0.0,0.0,0.0,0.0,0.0,0.0,0.0,0.0,0.0,0.0,0.0,0.0,0.0,0.0,0.0,0.0,0.0,0.0,0.0,0.0,0.0,0.0,0.0,0.0,0.0,0.0,0.0,0.0,0.0,0.0,0.0,0.0,0.0,0.0,0.0,0.0,0.0,0.0,0.0,0.0,0.0,0.0,0.0,0.0,0.0,0.0,0.0,0.0,0.0,0.0,0.0,0.0,0.0,0.0,0.0,0.0,0.0,0.0,0.0,0.0,0.0,0.0,0.0,0.0,0.0,0.0,0.0,0.0,0.0,0.0,0.0,0.0,0.0,0.0,0.0,0.0,0.0,0.0,0.0,0.0,0.0,0.0,0.0,0.0,0.0,0.0,0.0,0.0,0.0,0.0,0.0,0.0,0.0,0.0,0.0,0.0,0.0,0.0,0.0,0.0,0.0,0.0,0.0,0.0,0.0,0.0,0.0,0.0,0.0,0.0,0.0,0.0,0.0,0.0,0.0,0.0,0.0,0.0,0.0,0.0,0.0,0.0,0.0,0.0,0.0,0.0,0.0,0.0,0.0,0.0,0.0,0.0,0.0,0.0,0.0,0.0,0.0,0.0,0.0,0.0,0.0,0.0,0.0,0.0,0.0,0.0,0.0,0.0,0.0,0.0,0.0,0.0,0.0,0.0,0.0,0.0,0.0,0.0,0.0,0.0,0.0,0.0,0.0,0.0,0.0,0.0,0.0,0.0,0.0,0.0,0.0,0.0,0.0,0.0,0.0,0.0,0.0,0.0,0.0,0.0,0.0,0.0,0.0,0.0,0.0,0.0,0.0,0.0,0.0,0.0,0.0,0.0,0.0,0.0,0.0,0.0,0.0,0.0,0.0,0.0,0.0,0.0,0.0,0.0,0.0,0.0,0.0,0.0,0.0,0.0,0.0,0.0,0.0,0.0,0.0,0.0,0.0,0.0,0.0,0.0,0.0,0.0,0.0,0.0,0.0,0.0,0.0,0.0,0.0,0.0,0.0,0.0,0.0,0.0,0.0,0.0,0.0,0.0,0.0,0.0,0.0,0.0,0.0,0.0,0.0,0.0,0.0,0.0,0.0,0.0,0.0,0.0,0.0,0.0,0.0,0.0,0.0,0.0,0.0,0.0,0.0,0.0,0.0,0.0,0.0,0.0,0.0,0.0,0.0,0.0,0.0,0.0,0.0,0.0,0.0,0.0,0.0,0.0,0.0,0.0,0.0,0.0,0.0,0.0,0.0,0.0,0.0,0.0,0.0,0.0,0.0,0.0,0.0,0.0,0.0,0.0,0.0,0.0,0.0,0.0,0.0,0.0,0.0,0.0,0.0,0.0,0.0,0.0,0.0,0.0,0.0,0.0,0.0,0.0,0.0,0.0,0.0,0.0,0.0,0.0,0.0,0.0,0.0,0.0,0.0,0.0,0.0,0.0,0.0,0.0,0.0,0.0,0.0,0.0,0.0,0.0,0.0,0.0,0.0,0.0,0.0,0.0,0.0,0.0,0.0,0.0,0.0,0.0,0.0,0.0,0.0,0.0,0.0,0.0,0.0,0.0,0.0,0.0,0.0,0.0,0.0,0.0,0.0,0.0,0.0,0.0,0.0,0.0,0.0,0.0,0.0,0.0,0.0,0.0,0.0,0.0,0.0,0.0,0.0,0.0,0.0,0.0,0.0,0.0,0.0,0.0,0.0,0.0,0.0,0.0,0.0,0.0,0.0,0.0,0.0,0.0,0.0,0.0,0.0,0.0,0.0,0.0,0.0,0.0,0.0,0.0,0.0,0.0,0.0,0.0,0.0,0.0,0.0,0.0,0.0,0.0,0.0,0.0,0.0,0.0,0.0,0.0,0.0,0.0,0.0,0.0,0.0,0.0,0.0,0.0,0.0,0.0,0.0,0.0,0.0,0.0,0.0,0.0,0.0,0.0,0.0,0.0,0.0,0.0,0.0,0.0,0.0,0.0,0.0,0.0,0.0,0.0,0.0,0.0,0.0,0.0,0.0,0.0,0.0,0.0,0.0,0.0,0.0,0.0,0.0,0.0,0.0,0.0,0.0,0.0,0.0,0.0,0.0,0.0,0.0,0.0,0.0,0.0,0.0,0.0,0.0,0.0,0.0,0.0,0.0,0.0,0.0,0.0,0.0,0.0,0.0,0.0,0.0,0.0,0.0,0.0,0.0,0.0,0.0,0.0,0.0,0.0,0.0,0.0,0.0,0.0,0.0,0.0,0.0,0.0,0.0,0.0,0.0,0.0,0.0,0.0,0.0,0.0,0.0,0.0,0.0,0.0,0.0,0.0,0.0,0.0,0.0,0.0,0.0,0.0,0.0,0.0,0.0,0.0,0.0,0.0,0.0,0.0,0.0,0.0,0.0,0.0,0.0,0.0,0.0,0.0,0.0,0.0,0.0,0.0,0.0,0.0,0.0,0.0,0.0,0.0,0.0,0.0,0.0,0.0,0.0,0.0,0.0,0.0,0.0,0.0,0.0,0.0,0.0,0.0,0.0,0.0,0.0,0.0,0.0,0.0,0.0,0.0,0.0,0.0,0.0,0.0,0.0,0.0,0.0,0.0,0.0,0.0,0.0,0.0,0.0,0.0,0.0,0.0,0.0,0.0,0.0,0.0,0.0,0.0,0.0,0.0,0.0,0.0,0.0,0.0,0.0,0.0,0.0,0.0,0.0,0.0,0.0,0.0,0.0,0.0,0.0,0.0,0.0,0.0,0.0,0.0,0.0,0.0,0.0,0.0,0.0,0.0,0.0,0.0,0.0,0.0,0.0,0.0,0.0,0.0,0.0,0.0,0.0,0.0,0.0,0.0,0.0,0.0,0.0,0.0,0.0,0.0,0.0,0.0,0.0,0.0,0.0,0.0,0.0,0.0,0.0,0.0,0.0,0.0,0.0,0.0,0.0,0.0,0.0,0.0,1.4203,1.322,0.0,0.0,0.0,0.0,0.0,0.0,0.0,0.0,0.0,0.0,0.0,0.0,0.0,0.0,0.0,0.0,0.0,0.0,0.0,0.0,0.0,0.0,0.0,0.0,0.0,0.0,0.0,0.0,0.0,0.0,0.0,0.0,0.0,0.0,0.0,0.0,0.0,1.3462,1.4502,1.6262,1.8653,1.7579,1.6473,1.5332,0.0,0.0,0.0,0.0,0.0,0.0,0.0,0.0,0.0,0.0,0.0,0.0,0.0,0.0,0.0,0.0,0.0,0.0,0.0,0.0,0.0,0.0,0.0,0.0,0.0,0.0,0.0,0.0,0.0,0.0,0.0,0.0,0.0,0.0,0.0,0.0,0.0,0.0,0.0,0.0,0.0,0.0,0.0,0.0,0.0,0.0,0.0,0.0,0.0,0.0,0.0,0.0,0.0,0.0,0.0,0.0,0.0,0.0,0.0,0.0,0.0,0.0,0.0,0.0,0.0,0.0,0.0,0.0,0.0,0.0,1.6591,1.5482,0.0,0.0,0.0,0.0,0.0,0.0,0.0,0.0,0.0,0.0,0.0,0.0,0.0,0.0,0.0,0.0,0.0,0.0,0.0,0.0,0.0,0.0,0.0,1.3667,1.3752,1.4025,1.3871,1.3802,0.0,0.0,0.0,0.0,0.0,0.0,0.0,1.2908,1.4153,1.5213,1.7105,1.9241,2.1591,2.1131,1.9866,1.7987,1.7853,0.0,0.0,0.0,0.0,0.0,0.0,0.0,0.0,0.0,0.0,0.0,0.0,0.0,0.0,0.0,0.0,0.0,0.0,0.0,0.0,0.0,0.0,0.0,0.0,0.0,0.0,0.0,0.0,0.0,0.0,0.0,0.0,0.0,0.0,0.0,0.0,0.0,0.0,0.0,0.0,0.0,0.0,0.0,0.0,0.0,0.0,0.0,0.0,0.0,0.0,0.0,0.0,0.0,0.0,0.0,0.0,0.0,0.0,0.0,0.0,0.0,0.0,0.0,2.0228,2.0719,2.0813,2.0813,2.0983,2.1129,1.9661,1.8534,1.7607,1.6416,0.0,0.0,0.0,0.0,0.0,0.0,0.0,0.0,0.0,0.0,0.0,0.0,0.0,0.0,0.0,0.0,0.0,0.0,0.0,1.3735,1.4311,1.4307,1.4795,1.6075,1.5543,1.5402,1.6034,0.0,0.0,0.0,0.0,0.0,1.3764,1.4543,1.5951,1.7963,1.8842,1.9813,2.0817,1.8971,1.8061,1.799,2.0066,1.9963,1.8191,0.0,0.0,0.0,0.0,0.0,0.0,0.0,0.0,0.0,0.0,0.0,0.0,0.0,0.0,0.0,0.0,0.0,0.0,0.0,0.0,0.0,0.0,0.0,0.0,0.0,0.0,0.0,0.0,0.0,0.0,0.0,0.0,0.0,0.0,0.0,0.0,0.0,0.0,0.0,0.0,0.0,1.3852,1.486,0.0,0.0,0.0,0.0,0.0,0.0,0.0,0.0,0.0,0.0,0.0,0.0,0.0,1.838,1.9759,2.0607,2.1469,2.2329,2.3056,2.3639,2.4085,2.4085,2.4073,2.4131,2.3918,0.0,1.9621,1.8495,0.0,0.0,0.0,0.0,0.0,0.0,0.0,0.0,0.0,0.0,0.0,0.0,0.0,0.0,0.0,0.0,0.0,0.0,0.0,0.0,0.0,1.5826,1.6689,1.7725,1.7495,1.7376,1.7669,1.6287,0.0,0.0,0.0,1.4595,1.5239,1.6371,1.7807,1.9505,2.1061,2.1377,2.0515,1.9864,1.9601,1.9729,2.0792,1.9851,1.7377,1.592,0.0,0.0,0.0,0.0,0.0,0.0,0.0,0.0,0.0,0.0,0.0,0.0,0.0,0.0,0.0,0.0,0.0,0.0,0.0,0.0,0.0,0.0,0.0,0.0,0.0,0.0,0.0,0.0,0.0,0.0,0.0,0.0,0.0,0.0,0.0,0.0,0.0,0.0,0.0,1.4008,1.5254,1.6148,1.5709,1.5149,0.0,0.0,0.0,0.0,0.0,0.0,0.0,0.0,0.0,1.9396,2.029,2.1045,2.1766,2.2627,2.3228,2.3659,2.4221,2.4808,2.5298,2.5002,2.5089,2.5429,2.5142,2.4186,2.262,2.1221,1.969,1.8108,0.0,0.0,0.0,0.0,1.6824,1.7466,0.0,0.0,0.0,0.0,0.0,0.0,0.0,0.0,0.0,0.0,0.0,0.0,1.6421,1.7749,1.9026,2.0083,1.9963,1.9867,1.998,1.8228,1.7169,1.7131,1.6213,1.6085,1.6914,1.8168,1.9151,1.9899,2.1132,2.1061,1.9772,1.943,1.9331,1.943,1.9276,1.849,1.7114,1.5296,1.4202,1.3678,0.0,0.0,0.0,0.0,0.0,0.0,0.0,0.0,0.0,0.0,0.0,0.0,0.0,0.0,0.0,0.0,0.0,0.0,0.0,0.0,0.0,0.0,0.0,0.0,0.0,0.0,0.0,0.0,0.0,0.0,0.0,0.0,0.0,0.0,0.0,0.0,0.0,1.562,1.671,1.7578,1.7284,1.6941,0.0,0.0,0.0,0.0,0.0,0.0,1.8844,2.0295,2.1208,2.1453,2.2522,2.3145,2.3352,2.4212,2.4703,2.4903,2.5396,2.5901,2.6382,2.5909,2.5931,2.6419,2.5844,2.5419,2.4966,2.3421,2.1725,2.004,1.9529,1.8786,1.7989,1.8522,1.899,1.9378,0.0,0.0,0.0,0.0,0.0,0.0,0.0,0.0,0.0,0.0,0.0,1.6458,1.8591,2.0086,2.1748,2.3756,2.329,2.3114,2.3686,2.0982,1.9345,1.9345,1.7904,1.7729,1.9121,1.977,1.9679,1.8778,1.7375,1.717,1.8092,1.5444,1.4529,1.4936,1.4633,1.6128,1.8876,1.7502,1.6485,1.5593,1.3653,0.0,0.0,0.0,0.0,0.0,0.0,0.0,0.0,0.0,0.0,0.0,0.0,0.0,0.0,0.0,0.0,0.0,0.0,0.0,0.0,0.0,0.0,0.0,0.0,0.0,0.0,0.0,0.0,0.0,0.0,0.0,0.0,0.0,0.0,0.0,0.0,0.0,0.0,1.9607,1.9459,0.0,0.0,0.0,0.0,1.9759,2.0094,2.0875,2.2269,2.2566,2.3117,2.4055,2.3906,2.4161,2.4848,2.5236,2.5724,2.6427,2.6942,2.7458,2.7852,2.7622,2.7535,2.7447,2.6801,2.6234,2.5611,2.445,2.329,2.2286,2.1784,2.1259,2.0791,2.0814,2.1209,2.1578,0.0,0.0,0.0,0.0,0.0,0.0,0.0,1.1975,1.3162,1.4228,1.6419,1.8745,2.1011,2.3291,2.5279,2.6885,2.6766,2.6462,2.6156,2.3687,2.2075,2.157,1.8767,1.7116,1.6915,1.8868,1.8914,1.6958,1.7705,1.7195,1.5345,1.4668,1.4497,1.4665,1.4479,1.5072,1.612,1.5067,1.4041,1.3171,1.3081,1.2307,0.0,0.0,0.0,0.0,0.0,0.0,0.0,0.0,0.0,0.0,0.0,0.0,0.0,0.0,0.0,0.0,0.0,0.0,0.0,0.0,0.0,0.0,0.0,0.0,0.0,0.0,0.0,0.0,0.0,0.0,0.0,0.0,0.0,0.0,0.0,0.0,0.0,2.0449,2.0705,0.0,2.085,2.0631,2.0743,2.1015,2.1736,2.239,2.2897,2.3859,2.4508,2.4854,2.5074,2.5462,2.6022,2.5818,2.5991,2.6541,2.6725,2.706,2.7525,2.7112,2.7133,2.7403,2.684,2.6451,2.6292,2.5554,2.4445,2.3209,2.297,2.2606,2.2187,2.2187,2.2557,2.2966,0.0,0.0,0.0,0.0,0.0,0.0,1.1679,1.2781,1.4072,1.5365,1.8048,2.0705,2.2982,2.5963,2.8185,2.9242,2.9304,2.8965,2.808,2.5815,2.3773,2.2159,1.8902,1.6418,1.4934,1.7223,1.7297,1.4905,1.6535,1.6236,1.4045,1.441,1.4592,1.4682,1.4691,1.4659,1.46,1.4017,1.3213,1.2238,1.2655,1.2087,1.1057,0.0,0.0,0.0,0.0,0.0,0.0,0.0,0.0,0.0,0.0,0.0,0.0,0.0,0.0,0.0,0.0,0.0,0.0,0.0,0.0,0.0,0.0,0.0,0.0,0.0,0.0,0.0,0.0,0.0,0.0,0.0,0.0,0.0,0.0,1.9157,2.0561,2.1733,2.2295,2.2645,2.2804,2.2815,2.2878,2.3037,2.37,2.4126,2.4285,2.5179,2.5679,2.5679,2.5889,2.6207,2.6615,2.6207,2.6292,2.686,2.686,2.7013,2.7366,2.7049,2.6988,2.7148,2.6697,2.6498,2.6456,2.6072,2.5221,2.4089,2.3939,2.3608,2.3199,2.3199,2.3305,2.3474,0.0,0.0,0.0,0.0,0.0,0.0,1.2428,1.3173,1.4486,1.6777,1.9566,2.2255,2.4573,2.803,3.0347,3.0855,3.0922,3.0523,2.9499,2.7273,2.4438,2.099,1.8331,1.5831,1.3442,1.5042,1.4911,1.2791,1.3519,1.4063,1.431,1.4322,1.4418,1.4712,1.4712,1.4665,1.4602,1.4862,1.4395,1.3307,1.2573,1.205,1.1581,0.0,0.0,0.0,0.0,0.0,0.0,0.0,0.0,0.0,0.0,0.0,0.0,0.0,0.0,0.0,0.0,0.0,0.0,0.0,0.0,0.0,0.0,0.0,0.0,0.0,0.0,0.0,0.0,0.0,0.0,0.0,0.0,0.0,1.9302,2.0621,2.2081,2.3541,2.4214,2.4691,2.5126,2.5083,2.5359,2.5815,2.5934,2.6038,2.6504,2.6547,2.6547,2.6547,2.6357,2.6357,2.6568,2.6357,2.6588,2.7257,2.7257,2.7397,2.7547,2.7357,2.7156,2.6829,2.6421,2.6237,2.6207,2.6001,2.5647,2.5161,2.4682,2.4204,2.379,2.379,2.3608,2.3356,0.0,0.0,0.0,0.0,0.0,1.3115,1.326,1.4417,1.6088,1.8362,2.1174,2.4232,2.7606,3.0204,3.1904,3.2412,3.2462,3.1825,3.0294,2.8968,2.5569,1.964,1.6731,1.4125,1.1752,1.2782,1.3335,1.3048,1.3872,1.4332,1.4606,1.4799,1.4883,1.4989,1.4989,1.4947,1.4967,1.5052,1.4956,1.4741,1.3877,1.3327,1.2963,0.0,0.0,0.0,0.0,0.0,0.0,0.0,0.0,0.0,0.0,0.0,0.0,0.0,0.0,0.0,0.0,0.0,0.0,0.0,0.0,0.0,0.0,0.0,0.0,0.0,0.0,0.0,0.0,0.0,0.0,0.0,1.9444,2.0841,2.1052,2.232,2.3576,2.4625,2.5232,2.5555,2.567,2.568,2.5654,2.5609,2.5619,2.5581,2.5523,2.5839,2.6013,2.6013,2.592,2.6072,2.6502,2.6083,2.6144,2.6696,2.6696,2.6758,2.6784,2.6784,2.6688,2.6582,2.6461,2.6411,2.638,2.602,2.5574,2.5218,2.5088,2.4742,2.4251,2.4167,2.3914,2.3639,0.0,0.0,0.0,0.0,0.0,1.3733,1.3652,1.4951,1.6747,1.9043,2.2089,2.5268,2.8391,3.0866,3.2377,3.2638,3.2629,3.2026,3.0593,2.7101,2.2652,1.7257,1.4597,1.268,1.1636,1.2264,1.2987,1.3533,1.4021,1.4365,1.4471,1.4618,1.4796,1.4898,1.4898,1.5107,1.5291,1.5526,1.5757,1.6016,1.5763,1.5281,1.468,1.4501,1.4187,1.3834,1.3588,1.294,1.22,1.167,0.0,0.0,0.0,0.0,0.0,0.0,0.0,0.0,0.0,0.0,0.0,0.0,0.0,0.0,0.0,0.0,0.0,0.0,0.0,0.0,0.0,0.0,0.0,0.0,2.0918,2.2312,2.3104,2.3885,2.4778,2.5689,2.5929,2.6074,2.6259,2.6187,2.6094,2.5918,2.5918,2.5815,2.5722,2.5973,2.6104,2.6104,2.6104,2.6235,2.6496,2.6235,2.6245,2.6496,2.6496,2.64,2.6294,2.6294,2.6304,2.6207,2.6304,2.6294,2.6284,2.6119,2.5742,2.5138,0.0,0.0,0.0,0.0,2.3764,2.3493,0.0,0.0,0.0,0.0,0.0,1.3793,1.3713,1.5019,1.6824,1.9091,2.2434,2.5473,2.7844,3.0459,3.1996,3.1767,3.1742,3.1204,2.9914,2.3435,1.8161,1.4852,1.2573,1.1752,1.2436,1.2876,1.332,1.3896,1.4106,1.4214,1.4214,1.4344,1.447,1.4783,1.4885,1.5185,1.5586,1.615,1.6553,1.6941,1.7721,1.7323,1.6385,1.6466,1.625,1.597,1.5771,1.5121,1.431,1.3896,0.0,0.0,0.0,0.0,0.0,0.0,0.0,0.0,0.0,0.0,0.0,0.0,0.0,0.0,0.0,0.0,0.0,0.0,0.0,0.0,0.0,0.0,0.0,0.0,2.2225,2.36,2.5037,2.53,2.5733,2.6537,2.6453,2.6439,2.6835,2.6633,2.6496,2.6496,2.6496,2.64,2.64,2.64,0.0,0.0,0.0,2.64,2.64,2.64,2.64,2.64,2.64,2.6304,2.6004,2.6004,2.581,2.5635,2.5907,2.6004,2.5994,2.6244,2.5809,2.4967,2.4615,2.4193,2.3754,2.359,2.3319,2.3057,0.0,0.0,0.0,0.0,0.0,1.3793,1.3713,1.5019,1.6825,1.9091,2.2065,2.503,2.7793,2.9598,3.0518,3.0325,3.0241,2.893,2.5853,2.25,1.9214,1.6069,1.3393,1.2156,1.2684,1.3019,1.3385,1.3896,1.4188,1.4382,1.4492,1.5018,1.5329,1.5329,1.5747,1.6057,1.615,1.6742,1.7258,1.7747,1.8328,1.826,1.7755,1.7486,1.7507,1.756,1.7,1.6468,1.5932,1.551,1.4882,1.4056,1.2898,1.2291,0.0,0.0,0.0,0.0,0.0,0.0,0.0,0.0,0.0,0.0,0.0,0.0,0.0,0.0,0.0,0.0,0.0,0.0,0.0,2.2056,2.3485,2.4762,2.5809,2.637,2.6794,2.6966,2.6986,2.6929,2.7009,2.6707,2.64,2.6197,2.6197,2.61,2.583,2.583,2.583,2.583,2.583,2.583,2.583,2.583,2.583,2.583,2.583,0.0,2.543,2.543,2.5333,2.503,2.5333,2.543,2.5499,2.5437,2.4874,2.4057,2.3967,2.3747,2.358,2.3503,2.3242,2.2794,0.0,0.0,0.0,0.0,0.0,1.3841,1.3809,1.5086,1.6863,1.9113,2.1608,2.4185,2.6717,2.7896,2.8437,2.8255,2.8795,2.7074,2.2177,2.124,1.875,1.3841,1.2557,1.224,1.2704,1.2934,1.3272,1.383,1.3949,1.4215,1.4641,1.4877,1.5256,1.569,1.5998,1.6424,1.6942,1.7428,1.7991,1.87,1.9137,1.9391,1.9277,1.9012,1.8856,1.8644,1.8423,1.766,1.6863,1.6748,1.6154,1.5194,1.4362,1.3708,1.2988,0.0,0.0,0.0,0.0,0.0,0.0,0.0,0.0,0.0,0.0,0.0,0.0,0.0,0.0,1.8984,1.9755,0.0,2.213,2.3055,2.4273,2.5303,2.6153,2.6902,2.7431,2.7402,2.7372,2.7192,2.6973,2.6665,2.6261,2.5936,2.5917,2.582,2.5732,2.5742,2.5742,2.5742,2.5742,2.5742,2.5742,2.5742,2.5742,2.5742,2.5538,2.544,2.5333,2.5137,2.5039,2.4932,2.5039,2.5137,2.508,2.4726,2.4273,2.375,2.3574,2.3406,2.3319,2.3319,2.3057,2.2803,0.0,0.0,0.0,0.0,0.0,1.3888,1.3888,1.5031,1.6639,1.8683,2.0718,2.277,2.4787,2.5595,2.6029,2.6152,2.7487,2.569,1.9493,2.026,1.801,1.1382,1.1687,1.2129,1.2638,1.286,1.3189,1.3753,1.3748,1.4067,1.4606,1.4821,1.525,1.5998,1.6099,1.6736,1.7687,1.8122,1.8646,1.9376,1.9983,2.03,2.057,2.0324,1.983,1.9382,1.9453,1.8562,1.7491,1.7613,1.6957,1.6035,1.5426,1.4788,1.4093,1.3061,1.2564,0.0,0.0,0.0,0.0,0.0,0.0,0.0,0.0,1.671,1.7993,1.8563,1.9596,2.0602,2.1353,2.2155,2.3047,2.3973,2.4842,2.5641,2.6361,2.7055,2.7432,2.7568,2.7426,2.7147,2.6724,2.6504,2.6129,2.58,2.5839,2.5849,2.5771,2.5762,2.5723,2.5538,2.5538,2.5538,2.5538,2.5538,2.5538,2.5538,2.5342,2.5235,2.5137,2.4932,2.4833,2.4745,2.4833,2.4739,2.4638,2.4135,2.3895,2.366,2.331,2.3222,2.3369,2.3203,2.2969,2.2803,0.0,0.0,0.0,0.0,0.0,0.0,1.3888,1.4605,1.5678,1.7246,1.8805,2.031,2.1756,2.2549,2.3442,2.4536,2.6452,2.506,1.9064,2.0287,1.8257,1.1526,1.192,1.24,1.2638,1.286,1.3189,1.3753,1.3959,1.4277,1.46,1.5357,1.5891,1.6324,1.7054,1.7589,1.8016,1.8855,1.9376,1.968,2.0205,2.0617,2.0783,2.0512,2.0114,1.9766,1.9423,1.8685,1.7916,1.7532,1.7038,1.6413,1.5673,1.529,1.4863,1.3716,1.3476,1.3345,1.268,1.3277,1.4177,1.4926,1.5878,1.6917,0.0,1.8944,1.9887,2.082,2.1752,2.2475,2.273,2.354,2.4259,2.4714,2.5178,2.5755,2.6674,2.6532,2.6475,2.6912,2.7151,2.6977,2.6349,2.6218,2.6056,2.5939,2.6348,2.6295,2.6029,2.6,2.5628,2.5049,2.5039,2.5039,2.5039,2.5039,2.5039,2.5039,2.4932,2.4833,2.4637,2.4529,2.444,2.4251,2.444,2.4312,2.3805,2.3803,2.361,2.3419,2.3371,2.3754,2.418,2.3418,2.2969,2.2803,0.0,0.0,0.0,0.0,0.0,0.0,0.0,1.4535,1.5362,1.6376,1.7453,1.8464,1.9373,2.0065,2.1189,2.2962,2.511,2.3814,1.788,1.9766,1.7989,1.0935,1.149,1.204,1.2127,1.2669,1.3219,1.3753,1.4175,1.4708,1.5351,1.6099,1.663,1.706,1.7589,1.8227,1.875,1.9175,1.9583,2.0189,2.0194,2.0413,2.0551,2.0003,1.9447,1.8915,1.8712,1.8113,0.0,1.6928,1.6575,1.6211,1.5773,1.5572,1.5231,1.4258,1.4124,1.4297,1.4256,1.5062,1.5931,1.6474,1.7692,1.891,1.9498,2.0492,2.142,2.1848,2.2566,2.3222,2.3316,2.3799,2.4426,2.4917,2.5348,2.5844,2.6399,2.6503,2.6427,2.6257,2.6352,2.6286,2.586,2.604,2.6002,2.5686,2.6047,2.6218,2.6047,2.579,2.5572,2.5291,2.5055,2.4932,2.4932,2.4932,2.4932,2.4932,2.4735,2.4637,2.4529,2.4341,2.4251,2.4152,2.4251,2.4115,2.3861,2.3861,2.3711,2.3528,2.3528,2.3817,2.4181,2.3923,2.3641,2.3338,0.0,0.0,0.0,0.0,0.0,0.0,0.0,0.0,0.0,0.0,1.6201,1.6768,1.7405,1.8239,1.9525,2.1465,2.2963,2.1765,1.6987,1.826,1.6472,1.0419,1.1138,1.1671,1.1835,1.2509,1.3128,1.3768,1.4366,1.514,1.5995,1.6698,1.7259,1.7891,1.822,1.87,1.9347,1.945,1.9808,2.021,2.0053,1.9996,2.0035,1.9344,1.8573,1.7866,1.7866,1.7254,1.6357,1.5971,1.5694,1.5494,1.5355,1.5209,1.5024,1.4563,1.4612,1.4999,1.5541,1.6455,1.7265,1.7846,1.917,2.0494,2.0718,2.169,2.2601,2.2711,2.3204,2.3712,2.3712,2.395,2.438,2.4877,2.5312,2.5657,2.5956,2.6144,2.6059,2.5553,2.5423,2.533,2.5224,2.5769,2.5966,2.5654,2.6013,2.6266,2.6163,2.5862,2.5581,2.5365,2.5064,2.4857,2.4735,2.4735,2.4735,2.4735,2.4538,2.444,2.444,2.4251,2.4152,2.4152,2.4152,2.4021,2.374,2.374,2.3765,2.3796,2.3796,2.3937,2.4296,2.4494,2.4263,2.3789,0.0,0.0,0.0,0.0,0.0,0.0,0.0,0.0,0.0,0.0,0.0,0.0,0.0,1.723,1.8688,2.0043,1.975,1.8666,1.6727,1.5428,1.3273,1.0178,1.0786,1.1411,1.1927,1.2347,1.2967,1.3777,1.4648,1.5499,1.6336,1.7134,1.7996,1.8826,1.9056,1.9412,1.9628,1.9822,1.9828,1.9509,1.9786,1.9685,1.932,1.8605,1.7683,1.6786,1.6786,1.6317,1.5554,1.4522,1.4311,1.4385,1.4095,1.4106,1.4231,1.4346,1.4781,1.536,1.6096,1.7009,1.8031,1.9146,2.021,2.1201,2.1852,2.2529,2.3223,2.361,2.4016,2.4134,2.4134,2.4143,2.429,2.4711,2.4794,2.4931,2.5317,2.5051,2.4812,2.4803,2.4436,2.4288,2.427,2.5347,2.5986,2.5796,2.6505,2.6784,2.6393,2.6365,2.5888,2.4803,2.4766,2.4665,2.426,2.4251,2.4251,2.4251,2.4251,2.4251,2.4251,2.4152,2.4152,2.4152,2.4152,2.3923,2.3538,2.3538,2.3634,2.3914,2.3914,2.4253,2.4894,2.4894,2.4402,2.3789,0.0,0.0,0.0,0.0,0.0,0.0,0.0,0.0,0.0,0.0,0.0,0.0,0.0,0.0,0.0,0.0,1.7716,1.6839,1.2894,1.364,1.2837,0.9711,1.0462,1.1189,1.1642,1.2499,1.3188,1.3779,1.5022,1.5757,1.6268,1.7465,1.8218,1.852,1.8929,1.9277,1.9543,1.931,1.9341,1.9383,1.8764,1.8406,1.8184,1.7008,1.6055,1.5253,0.0,1.4307,1.4164,1.3354,1.3308,1.3549,1.3429,1.368,1.4089,1.477,1.5325,1.5981,1.6953,1.8121,1.9221,1.9841,2.0954,2.197,2.2232,2.2779,2.3314,2.3198,2.3171,2.3179,2.291,2.2856,2.308,2.3745,2.3862,2.3996,2.441,2.4347,2.4167,2.3889,2.3736,2.3754,2.4023,2.4963,2.5623,2.5589,2.6231,2.6626,2.6498,2.6328,2.5945,2.5573,2.506,2.4711,2.4574,2.419,2.3954,2.3954,2.3746,2.3655,2.3655,2.3655,2.3655,2.3655,2.3655,2.3574,2.3449,2.3449,2.3449,2.3547,2.3744,2.4024,2.443,2.4538,2.439,2.4049,0.0,0.0,0.0,0.0,0.0,0.0,0.0,0.0,0.0,0.0,0.0,0.0,0.0,0.0,0.0,0.0,0.0,1.3357,1.0605,1.1156,1.0809,0.915,0.9908,1.0661,1.1345,1.2103,1.2763,1.3592,1.4686,1.5485,1.6264,1.7251,1.7949,1.8349,1.8735,1.8892,1.8918,1.8597,1.8454,1.8359,1.7626,1.7147,1.6804,1.5639,1.4681,0.0,1.2846,1.2637,1.2669,1.235,1.2417,1.2726,1.2861,1.3525,1.4405,1.4931,1.5749,1.679,1.7843,1.8912,1.9915,2.0737,2.1552,2.229,2.229,2.267,2.2902,2.2381,2.2363,2.2238,2.1831,2.1875,2.2236,2.2743,2.2965,2.324,2.3497,2.3657,2.3639,2.3482,2.3447,2.3506,2.3897,2.4598,2.5218,2.5468,2.6206,2.6591,2.6591,2.6334,2.6114,2.5968,2.5326,2.4931,2.4785,2.4163,2.3746,2.3646,2.3447,2.3447,2.3447,2.3447,2.3447,2.3447,2.3447,2.3447,2.3447,2.3447,2.3447,2.3447,2.3555,2.3746,2.3836,2.4044,2.4076,2.41,0.0,0.0,0.0,0.0,0.0,0.0,0.0,0.0,0.0,0.0,0.0,0.0,0.0,0.0,0.0,0.0,0.0,0.0,0.9758,0.8119,0.7531,0.8491,0.9114,0.9898,1.0913,1.1261,1.195,1.3114,1.3668,1.4689,1.6126,1.6579,1.7273,1.8218,1.8218,1.8026,1.766,1.7644,1.7247,1.6595,1.6468,1.5896,1.5186,1.4539,1.3607,1.2603,1.1735,1.1335,1.121,1.14,1.1733,1.2139,1.252,1.3725,1.492,1.4944,1.6097,1.7615,1.8598,1.9351,2.0264,2.1599,2.1978,2.1987,2.1944,2.2114,2.2083,2.1316,2.1428,2.1378,2.106,2.1228,2.152,2.1556,2.2221,2.2735,2.277,2.3107,2.3347,2.3347,2.3364,2.3533,2.3829,2.4313,2.4809,2.5442,2.6145,2.6582,2.6582,2.6582,2.6408,2.6004,2.5582,2.5188,2.4812,2.4172,2.3646,2.3347,2.3373,2.3373,2.3347,2.3373,2.3373,2.3347,2.3347,2.3347,2.3347,2.3347,2.3347,2.3347,2.3356,2.3347,2.3347,2.3347,2.3546,2.3791,0.0,0.0,0.0,0.0,0.0,0.0,0.0,0.0,0.0,0.0,0.0,0.0,0.0,0.0,0.0,0.0,0.0,0.0,0.6526,0.6468,0.6983,0.797,0.8646,0.9349,1.0073,1.0777,1.135,1.1788,1.2886,1.3682,1.4146,1.512,1.5759,1.6087,1.6322,1.6381,1.6348,1.61,1.5815,1.5421,1.4852,1.4177,1.3461,1.2813,1.2028,1.1284,1.1044,1.081,1.0614,1.0969,1.1876,1.2917,1.3529,1.4569,1.5543,1.5814,1.7056,1.8449,1.8987,2.011,2.1181,2.1269,2.1586,2.185,2.1293,2.1036,2.0606,1.9849,1.9549,1.9229,1.8849,1.9091,1.9531,2.0119,2.0853,2.1553,2.2114,2.2512,2.2846,2.2846,2.3004,2.3324,2.3695,2.4297,2.4788,2.5274,2.5626,2.5907,2.5907,2.5907,2.5863,2.5755,2.5297,2.4995,2.4896,2.3996,2.3247,2.2854,2.3039,2.303,2.2854,2.3047,2.3021,2.2745,2.2535,2.2434,2.2434,2.2434,2.2434,2.2434,2.2946,2.3147,2.3147,2.3347,2.3447,2.3538,0.0,0.0,0.0,0.0,0.0,0.0,0.0,0.0,0.0,0.0,0.0,0.0,0.0,0.0,0.0,0.0,0.0,0.0,0.0,0.5567,0.6365,0.7215,0.7869,0.8551,0.9235,0.9703,1.0217,1.0662,1.1447,1.2087,1.2632,1.3279,1.3894,1.4331,1.4546,1.468,1.4727,1.4441,1.416,0.0,0.0,1.2588,1.2026,1.1465,1.0938,1.04,1.0516,1.0861,1.1346,1.2012,1.2878,1.3822,1.453,1.5411,1.6238,1.6746,1.7762,1.8835,1.9536,2.0514,2.1444,2.1332,2.151,2.1499,2.0591,1.9949,1.9281,1.8374,1.7877,1.7492,1.7124,1.7629,1.8288,1.8896,1.9915,2.0883,2.1636,2.2064,2.2432,2.2758,2.2989,2.3323,2.3862,2.4218,2.462,2.4991,2.5467,2.5688,2.5688,2.5688,2.5688,2.5688,2.5023,2.4548,2.4106,2.3467,2.3134,2.28,2.3014,2.2988,2.2851,2.3063,2.2849,2.2494,2.2281,2.2078,2.1928,2.1928,2.1928,2.1928,2.2434,2.2644,2.2662,2.3138,2.33,2.3503,0.0,0.0,0.0,0.0,0.0,0.0,0.0,0.0,0.0,0.0,1.1578,0.0,0.0,0.0,0.0,0.0,0.0,0.0,0.0,0.0,0.5771,0.646,0.7097,0.7709,0.8365,0.856,0.9015,0.9699,0.9857,1.0383,1.1345,1.1434,1.196,1.2742,1.2867,1.2983,1.2967,1.2764,1.248,1.2118,1.1693,1.1191,1.0789,0.0,1.0149,0.9826,1.0159,1.1253,1.2597,1.3501,1.4164,1.479,1.5659,1.6333,1.7072,1.7715,1.8406,1.9113,2.0071,2.0753,2.1164,2.1435,2.1261,2.0798,1.9769,1.8845,1.7912,1.6841,1.6276,1.5891,1.5625,1.6447,1.7329,1.7809,1.9153,2.042,2.1225,2.1722,2.2252,2.2954,2.3134,2.3443,2.4093,2.4256,2.4453,2.4795,2.5247,2.5578,2.5578,2.5578,2.5525,2.5528,2.4863,2.4033,2.3055,2.3046,2.3036,2.3117,2.3065,2.3156,2.316,2.3201,2.292,2.2361,2.2369,2.2075,2.1771,2.1714,2.1697,2.1799,2.2003,2.2097,2.2249,2.2842,2.3298,2.3505,0.0,0.0,0.0,0.0,0.0,0.0,0.0,0.0,0.0,0.0,0.9547,0.9258,0.0,0.0,0.0,0.0,0.0,0.0,0.0,0.0,0.0,0.5908,0.6496,0.7084,0.757,0.8085,0.8531,0.8822,0.9239,0.9625,1.005,1.0329,1.0637,1.0977,1.1014,1.1174,1.1341,1.1311,1.1182,1.1005,1.087,1.0467,0.9845,0.9785,0.0,0.0,0.9902,1.1107,1.2541,1.3504,1.4676,1.5859,1.662,1.7399,1.8112,1.8526,1.9137,1.9773,2.0293,2.0643,2.0809,2.0817,2.0297,1.9462,1.8505,1.7269,1.6054,1.524,1.4504,1.4084,1.4341,1.5052,1.5934,1.6953,1.8382,1.9744,2.0823,2.1567,2.2158,2.2595,2.3211,2.3657,2.3776,2.435,2.4744,2.4812,2.4932,2.4923,2.4923,2.4923,2.474,2.4412,2.4254,2.3825,2.3055,2.3046,2.3036,2.3117,2.3119,2.3199,2.316,2.3245,2.3071,2.2749,2.2429,2.229,2.2315,2.2006,2.1884,2.1884,2.2196,2.2395,2.2652,2.3031,2.3385,2.3702,0.0,0.0,0.0,0.0,0.0,0.0,0.0,0.8351,0.8047,0.8106,0.7397,0.7008,0.7414,0.5779,0.4642,0.0,0.0,0.0,0.0,0.0,0.0,0.0,0.6033,0.6487,0.6841,0.7419,0.7788,0.7959,0.0,0.8814,0.8904,0.9196,0.9469,0.9794,0.9919,1.012,1.0381,1.0292,1.0208,1.0129,0.9923,0.9624,0.9298,0.9298,0.0,0.0,0.9896,1.0936,1.2223,1.3296,1.4454,1.5707,1.6725,1.7496,1.8128,1.8669,1.932,1.994,2.0297,2.0592,2.0654,2.0207,1.9538,1.8657,1.751,1.6139,1.4858,1.423,1.3459,1.2988,1.3177,1.399,1.4941,1.5882,1.7304,1.8751,2.0095,2.0942,2.1696,2.2558,2.322,2.3759,2.3956,2.4487,2.4821,2.4821,2.4821,2.4821,2.4821,2.4624,2.4162,2.3609,2.3583,2.3315,2.2754,2.2745,2.3039,2.34,2.3279,2.336,2.3519,2.3464,2.3129,2.2678,2.2461,2.2357,2.2172,2.2004,2.1932,2.1932,2.2258,2.2575,2.2811,2.3293,2.3651,2.3973,0.0,0.0,0.0,0.0,0.0,0.0,0.8036,0.734,0.6853,0.6912,0.5882,0.538,0.605,0.4655,0.3616,0.0,0.0,0.0,0.0,0.0,0.0,0.0,0.0,0.0,0.629,0.0,0.0,0.7455,0.8005,0.0,0.0,0.0,0.0,0.0,0.9206,0.9451,0.9659,0.9512,0.9435,0.0,0.0,0.8973,0.8904,0.0,0.0,0.0,0.0,1.0603,1.1592,1.2774,1.3794,1.4841,1.598,1.6966,1.7803,1.851,1.9153,1.9741,2.0162,2.0424,2.0313,1.9771,1.884,1.7879,1.6723,1.5208,1.3924,1.3271,1.262,1.2149,1.2149,1.3091,1.4101,1.4855,1.6242,1.7732,1.917,2.0103,2.1054,2.2175,2.2972,2.3605,2.4076,2.447,2.4727,2.4812,2.471,2.4676,2.4591,2.4292,2.3781,2.2927,2.291,2.2723,2.2443,2.2443,2.2818,2.3445,2.3151,2.3328,2.3809,2.3472,2.3095,2.2601,2.2601,2.2442,2.218,2.21,2.2077,2.2177,2.2309,2.2616,2.2856,2.3561,2.4031,2.425,0.0,0.0,0.0,0.0,0.0,0.0,0.5262,0.5278,0.5533,0.595,0.5942,0.5818,0.5608,0.4707,0.4057,0.0,0.0,0.0,0.0,0.0,0.0,0.0,0.0,0.0,0.0,0.0,0.0,0.7656,0.8166,0.0,0.0,0.0,0.0,0.0,0.0,0.8947,0.9013,0.9052,0.0,0.0,0.0,0.0,0.0,0.0,0.0,0.0,0.0,0.9932,1.0424,1.1558,1.2488,1.3326,1.4114,1.577,1.7461,1.8144,1.8621,1.9066,1.9733,1.9693,1.9462,1.9249,1.8191,1.6879,1.6071,1.4563,1.3024,1.1999,1.1565,1.1379,1.1379,1.2312,1.3331,1.4076,1.5454,1.685,1.8031,1.9153,2.0266,2.1379,2.2184,2.2937,2.3682,2.4076,2.4436,2.4795,2.4599,2.4335,2.3871,2.3821,2.336,2.2416,2.2391,2.2217,2.1827,2.1827,2.2192,2.2913,2.2617,2.2901,2.348,2.3247,2.2998,2.2966,2.2966,2.295,2.2895,2.2569,2.2434,2.2442,2.2442,2.2654,2.3023,2.3612,2.4094,2.4437,0.0,0.0,0.0,0.0,0.0,0.0,0.478,0.5286,0.5774,0.6047,0.625,0.6245,0.597,0.5461,0.4943,0.4428,0.0,0.0,0.0,0.0,0.0,0.0,0.0,0.0,0.0,0.0,0.7383,0.7531,0.8245,0.0,0.0,0.0,0.0,0.0,0.0,0.8943,0.8935,0.8776,0.0,0.0,0.0,0.0,0.0,0.0,0.0,0.0,0.0,0.0,0.9904,1.0751,1.1492,1.2102,1.2595,1.3784,1.5316,1.6651,1.7588,1.8303,1.8788,1.8827,1.8589,1.821,1.7159,1.5923,1.486,1.3574,1.234,1.1467,1.1057,1.0844,1.0942,1.1499,1.2278,1.3262,1.443,1.5593,1.7004,1.8002,1.9121,2.0424,2.1417,2.2214,2.274,2.3432,2.4065,2.4223,2.4144,2.3867,2.3267,2.3253,2.2905,2.2303,2.2072,2.1874,2.1725,2.1725,2.1981,2.2501,2.2413,2.267,2.3148,2.3031,2.3014,2.3014,2.3014,2.3014,2.3006,2.2863,2.2807,2.2807,2.2807,2.3031,2.327,2.3528,2.3809,2.4144,0.0,0.0,0.0,0.0,0.0,0.4431,0.5045,0.5624,0.6116,0.639,0.6519,0.653,0.6299,0.6085,0.5755,0.5174,0.5097,0.0,0.0,0.0,0.0,0.0,0.0,0.0,0.0,0.0,0.7432,0.746,0.8436,0.8865,0.0,0.0,0.9062,0.8911,0.0,0.0,0.0,0.0,0.0,0.0,0.0,0.0,0.0,0.0,0.0,0.0,0.0,0.0,0.0,0.0,0.0,1.0968,1.1374,1.2188,1.333,1.5197,1.6412,1.7254,1.7707,1.7834,1.7668,1.6976,1.6158,1.5239,1.3886,1.2881,1.1914,1.1005,1.0606,1.0446,1.0432,1.0853,1.1506,1.2524,1.342,1.4488,1.5853,1.6913,1.7971,1.9376,2.0584,2.1385,2.1979,2.3034,2.3736,2.3784,2.3697,2.3351,2.2878,2.2626,2.233,2.1981,2.1609,2.1423,2.1216,2.1216,2.1496,2.1973,2.2127,2.2373,2.282,2.2855,2.2901,2.2901,2.2788,2.2788,2.2901,2.2901,2.2909,2.3014,2.3014,2.3127,2.336,2.3472,2.3585,2.3792,0.0,0.0,0.0,0.0,0.0,0.0,0.5779,0.6002,0.6278,0.6842,0.6761,0.6664,0.6522,0.6425,0.629,0.6087,0.5708,0.0,0.0,0.0,0.0,0.0,0.0,0.0,0.0,0.0,0.7547,0.7602,0.8814,0.9216,0.8928,0.9384,0.9392,0.9016,0.0,0.0,0.0,0.0,0.0,0.0,0.0,0.0,0.8531,0.0,0.0,0.0,0.0,0.0,0.0,0.0,0.0,0.0,0.0,1.1062,1.1924,1.4037,1.5149,1.5856,1.6555,1.6754,1.6579,1.5872,1.5443,1.4824,1.3418,1.2658,1.1785,1.0416,1.0213,1.0202,0.9864,1.0432,1.1162,1.1892,1.2647,1.3517,1.4552,1.5625,1.6839,1.8308,1.9447,2.0537,2.1736,2.2724,2.3414,2.3448,2.3247,2.2901,2.257,2.2012,2.1393,2.1028,2.0997,2.0728,2.0086,2.0078,2.0454,2.1004,2.147,2.1931,2.2498,2.2519,2.257,2.2578,2.223,2.2343,2.257,2.257,2.2796,2.3014,2.3014,2.3014,2.3014,2.336,2.3472,2.3536,0.0,0.0,0.0,0.0,0.0,0.0,0.5255,0.5775,0.6171,0.6331,0.6544,0.66,0.6408,0.6413,0.6409,0.6258,0.6013,0.0,0.0,0.0,0.0,0.0,0.0,0.0,0.0,0.7474,0.8086,0.8751,0.9405,0.9822,1.0005,1.0136,0.9987,0.9619,0.9619,0.922,0.0,0.0,0.0,0.0,0.0,0.7971,0.8142,0.0,0.0,0.0,0.0,0.0,0.0,0.0,0.0,0.0,0.0,0.0,0.0,1.1884,1.3147,1.4403,1.511,1.5225,1.5133,1.4418,1.3997,1.3441,1.2266,1.1511,1.0797,0.9915,0.9619,0.9534,0.9765,0.9979,1.0532,1.1809,1.2512,1.3249,1.4323,1.5316,1.6426,1.7701,1.9231,2.0712,2.2055,2.2148,2.237,2.2869,2.257,2.2335,2.2222,2.2017,2.1635,2.1064,2.081,2.0527,2.0086,2.0078,2.0243,2.035,2.0801,2.1148,2.1596,2.1834,2.2007,2.223,2.2116,2.2116,2.223,2.223,2.2343,2.2335,2.2335,2.257,2.2796,2.2796,2.2871,2.2862,0.0,0.0,0.0,0.0,0.0,0.0,0.5232,0.5651,0.6001,0.6226,0.6435,0.6514,0.644,0.6433,0.6434,0.6496,0.6337,0.0,0.0,0.0,0.0,0.0,0.0,0.0,0.732,0.7766,0.8455,0.9355,1.0037,1.049,1.0766,1.0871,1.0658,1.0135,0.995,0.9336,0.0,0.0,0.0,0.0,0.7603,0.7903,0.798,0.0,0.0,0.0,0.0,0.0,0.0,0.0,0.0,0.0,0.0,0.0,0.0,0.0,1.1455,1.2623,1.3592,1.3854,1.3719,1.3139,1.2838,1.244,1.1511,1.0875,1.0314,0.9658,0.9375,0.9286,0.9603,0.9758,1.027,1.1619,1.2214,1.2891,1.4086,1.5088,1.6261,1.7938,1.9121,2.0277,2.1549,2.1456,2.1541,2.2216,2.2047,2.2002,2.2002,2.1774,2.1466,2.0798,2.068,2.0348,1.9783,1.9776,1.9887,1.999,2.0324,2.0598,2.0925,2.1281,2.1615,2.1707,2.1722,2.1774,0.0,2.2002,2.2002,2.2116,2.2116,2.2343,2.257,2.257,2.2576,2.2466,0.0,0.0,0.0,0.0,0.0,0.0,0.0,0.56,0.578,0.635,0.6341,0.6341,0.655,0.6437,0.6461,0.677,0.6694,0.0,0.0,0.0,0.0,0.0,0.0,0.0,0.7543,0.798,0.8648,0.9506,1.0597,1.1176,1.1325,1.1644,1.1345,1.057,1.0144,0.9262,0.0,0.0,0.0,0.0,0.7594,0.7903,0.0,0.0,0.0,0.0,0.0,0.0,0.0,0.0,0.0,0.0,0.0,0.0,0.0,0.0,0.0,0.0,0.0,1.2432,1.2401,1.2035,1.1948,1.1773,1.1106,1.0685,0.0,0.9573,0.9414,0.9406,0.943,0.9724,1.0295,1.1328,1.1829,1.2506,1.385,1.5004,1.6503,1.8676,1.8977,1.9491,2.049,2.0895,2.1238,2.1582,2.1587,2.1668,2.1668,2.1303,2.0881,2.0143,2.0434,2.0116,1.9279,1.9279,1.948,1.968,1.9994,2.0257,2.0507,2.0948,2.1145,2.119,2.1185,2.1325,2.1668,2.1668,2.1774,2.2002,2.2002,2.223,2.257,2.2546,2.2536,2.2394,0.0,0.0,0.0,0.0,0.0,0.0,0.0,0.0,0.0,0.0,0.5899,0.606,0.6411,0.6498,0.6636,0.0,0.0,0.0,0.0,0.0,0.0,0.0,0.0,0.0,0.8093,0.8235,0.9038,1.0538,1.1095,1.1743,1.2337,1.2428,1.2054,1.1231,1.0858,0.9754,0.0,0.0,0.0,0.0,0.773,0.8044,0.0,0.0,0.0,0.0,0.9016,0.9016,0.0,0.0,0.0,0.0,0.0,0.0,0.0,0.0,0.9573,1.0071,1.03,0.0,1.1662,1.132,1.1241,1.1122,0.0,1.0311,0.9953,0.969,0.9487,0.9431,0.9612,1.0047,1.0597,1.1224,1.2077,1.2874,1.3516,1.5265,1.6992,1.8494,1.8888,1.9491,2.049,2.068,2.091,2.1256,2.1368,2.1325,2.1325,2.0849,2.0298,1.9902,1.9549,1.9355,1.9279,1.9279,1.9376,1.9376,1.9449,1.9731,1.9983,2.0281,2.0597,2.0854,2.1072,2.1211,2.1325,2.1325,2.1318,2.1439,2.1439,2.166,2.1866,2.1826,2.1837,2.1705,0.0,0.0,0.0,0.0,0.0,0.0,0.0,0.0,0.0,0.0,0.5675,0.5896,0.634,0.6469,0.6684,0.0,0.0,0.0,0.0,0.0,0.0,0.0,0.0,0.7684,0.8385,0.8758,0.9588,1.0901,1.1693,1.2351,1.2956,1.314,1.2791,1.1984,1.0766,0.954,0.0,0.0,0.0,0.6989,0.7628,0.0,0.0,0.0,0.0,0.0,0.9096,0.9056,0.0,0.8911,0.8822,0.8675,0.0,0.0,0.0,0.0,0.9099,0.9541,0.9494,1.0191,1.0871,1.0584,1.0537,1.0491,1.0304,0.9984,0.9686,0.9637,0.9539,0.9508,0.9807,1.0205,1.0771,1.1503,1.2367,1.337,1.4752,1.5951,1.7085,1.8271,1.8604,1.897,1.9753,2.0052,2.036,2.07,2.0808,2.0764,2.075,2.0351,1.9821,1.9361,1.9083,1.8844,1.8855,1.8848,1.8848,1.8848,1.8848,1.8941,1.9225,1.9794,2.0106,2.0294,2.0885,2.1211,2.1211,2.1211,2.1211,2.1211,2.1211,2.1343,2.1421,2.1458,2.1401,2.1254,0.0,0.0,0.0,0.0,0.0,0.0,0.0,0.0,0.0,0.0,0.0,0.0,0.0,0.0,0.0,0.0,0.0,0.0,0.0,0.0,0.0,0.0,0.7666,0.8042,0.8523,0.9299,1.0137,1.1047,1.2203,1.2963,1.3451,1.3783,1.3442,1.2457,1.0404,0.9093,0.8297,0.7825,0.7391,0.7053,0.7453,0.0,0.0,0.0,0.0,0.0,0.0,0.0,0.0,0.8952,0.8814,0.8675,0.8561,0.0,0.0,0.0,0.0,0.0,0.9167,0.9717,1.0239,1.0127,1.0075,1.009,1.0143,0.9931,0.9726,0.9718,0.9726,0.9809,1.0098,1.047,1.1024,1.1912,1.2734,1.4041,1.6217,1.6658,1.7063,1.8007,1.8206,1.843,1.876,1.9381,1.9764,2.0034,2.014,2.0208,2.0186,1.9808,1.932,1.8905,1.8735,1.8582,1.8318,1.8318,1.8422,1.8422,1.8422,1.8422,1.8443,1.9384,1.9778,1.9814,2.0805,2.1211,2.1211,2.1211,2.1211,2.1203,2.1152,2.1082,2.116,2.1055,2.0977,2.0891,0.0,0.0,0.0,0.0,0.0,0.0,0.0,0.0,0.0,0.0,0.0,0.0,0.0,0.0,0.0,0.0,0.0,0.0,0.0,0.0,0.0,0.7951,0.7972,0.8173,0.8574,0.9413,1.0493,1.177,1.2601,1.3377,1.3969,1.4025,1.3201,1.1608,1.027,0.9224,0.8436,0.7915,0.7445,0.7131,0.7517,0.0,0.0,0.0,0.0,0.0,0.0,0.0,0.0,0.8984,0.8846,0.8675,0.8675,0.0,0.0,0.0,0.0,0.0,0.8943,0.9545,1.0324,1.0378,1.0432,1.05,1.0789,1.0819,1.0718,1.0647,1.071,1.0733,1.0714,1.1277,1.1905,1.2217,1.3578,1.4962,1.5874,1.65,1.7132,1.7735,1.8101,1.8331,1.8462,1.9067,1.9349,1.9062,1.9358,1.9534,1.9534,1.896,1.8672,1.8583,1.8102,1.7734,1.7687,1.8213,1.8422,1.8422,1.8422,1.8422,1.8443,1.9384,1.9778,1.9814,2.0805,2.1211,2.1211,2.1211,2.1211,2.1181,2.0903,2.0772,2.0766,2.0431,2.0468,2.0657,0.0,0.0,0.0,0.0,0.0,0.0,0.0,0.0,0.0,0.0,0.0,0.0,0.0,0.0,0.0,0.0,0.0,0.0,0.0,0.0,0.787,0.8245,0.8608,0.8977,0.9356,1.0428,1.1388,1.2196,1.3518,1.4175,1.4232,1.3951,1.3097,1.1909,1.0809,0.9667,0.8489,0.8228,0.7716,0.7113,0.0,0.0,0.0,0.0,0.0,0.0,0.0,0.0,0.0,0.0,0.8345,0.8355,0.8347,0.0,0.0,0.0,0.0,0.0,0.8805,0.9348,1.0043,1.0453,1.0543,1.058,1.0736,1.0907,1.1033,1.0967,1.1175,1.1353,1.1456,1.1877,1.2617,1.3513,1.4509,1.5489,1.6309,1.6592,1.6849,1.7319,1.7609,1.786,1.7909,1.849,1.8823,1.8877,1.8916,1.8891,1.8891,1.8442,1.8178,1.8009,1.7761,1.7582,1.7582,1.7793,1.8003,1.8003,1.8003,1.8003,1.8016,1.8791,1.9301,1.9594,2.0391,2.0929,2.1211,2.1211,2.1101,2.0933,2.0779,2.0508,2.0142,1.9978,2.0113,2.0396,0.0,0.0,0.0,0.0,0.0,0.0,0.0,0.0,0.0,0.0,0.0,0.0,0.0,0.0,0.0,0.0,0.0,0.0,0.0,0.7729,0.7931,0.8518,0.9081,0.9598,1.0049,1.1407,1.2338,1.2864,1.4334,1.4907,1.4554,1.3736,1.2945,1.2106,1.1177,0.9971,0.8636,0.8535,0.8009,0.722,0.0,0.0,0.0,0.0,0.0,0.0,0.0,0.0,0.0,0.0,0.0,0.0,0.0,0.0,0.0,0.8185,0.8315,0.852,0.8721,0.9239,0.9863,1.0448,1.0704,1.0836,1.0909,1.118,1.1436,1.1516,1.1663,1.184,1.2233,1.2564,1.3281,1.4663,1.522,1.5756,1.6559,1.6557,1.6636,1.6949,1.7274,1.7533,1.751,1.8004,1.8422,1.8545,1.8358,1.8258,1.8258,1.8043,1.7829,1.7589,1.7582,1.7582,1.7582,1.7582,1.7582,1.7582,1.7582,1.7582,1.7595,1.8224,1.8741,1.9367,1.9899,2.0557,2.1089,2.1089,2.09,2.0713,2.064,2.0216,1.9721,1.9673,1.9879,2.0189,0.0,0.0,0.0,0.0,0.0,0.0,0.0,0.0,0.0,0.0,0.0,0.0,0.0,0.0,0.0,0.0,0.0,0.0,0.0,0.7386,0.7868,0.8987,0.9048,0.9408,1.0166,1.1788,1.3093,1.399,1.4904,1.5294,1.5089,1.3642,1.2489,1.1687,1.077,0.987,0.9023,0.8655,0.8164,0.763,0.7238,0.0,0.0,0.0,0.0,0.0,0.0,0.0,0.0,0.0,0.0,0.0,0.0,0.0,0.7796,0.7977,0.8187,0.8446,0.8643,0.9365,1.0148,1.0499,1.1041,1.1567,1.186,1.2182,1.2504,1.2804,1.2506,1.2362,1.2985,1.3436,1.3908,1.4594,1.5296,1.581,1.6071,1.6371,1.6665,1.6973,1.7302,1.7517,1.7503,1.7825,1.7918,1.7721,1.7721,1.7615,1.7615,1.7615,1.7602,1.7582,1.7582,1.7582,1.7582,1.7582,1.7582,1.7582,1.7582,1.7582,1.7595,1.8224,1.8632,1.8933,1.9563,2.0203,2.0716,2.0716,2.0771,2.0691,2.0391,1.9879,1.9413,1.9583,1.9879,2.0189,0.0,0.0,0.0,0.0,0.0,0.0,0.0,0.0,0.0,0.0,0.0,0.0,0.0,0.0,0.0,0.0,0.0,0.0,0.0,0.7589,0.7998,0.8748,0.918,0.9758,1.0624,1.2071,1.322,1.4077,1.499,1.5362,1.5274,1.3777,1.2637,1.1761,1.0758,0.9851,0.9078,0.8931,0.8556,0.7995,0.7852,0.754,0.0,0.0,0.0,0.0,0.0,0.0,0.0,0.0,0.7082,0.7269,0.7504,0.7621,0.7726,0.7921,0.8036,0.8177,0.8592,0.9233,0.9972,1.0711,1.1461,1.1984,1.2107,1.2539,1.2999,1.3162,1.3216,1.3325,1.3839,1.4104,1.4594,1.5217,1.5672,1.6057,1.6364,1.6425,1.6422,1.6829,1.6738,1.6834,1.7025,1.7317,1.749,1.7384,1.7483,1.7483,1.7384,1.7378,1.7378,1.7378,1.7378,1.7483,1.7582,1.7582,1.7582,1.7582,1.7582,1.7582,1.7589,1.7808,1.8347,1.8919,1.9147,1.9696,2.0479,2.0416,2.0377,2.0156,1.9735,1.9491,1.9272,1.9376,1.9576,1.9879,0.0,0.0,0.0,0.0,0.0,0.0,0.0,0.0,0.0,0.0,0.0,0.0,0.0,0.0,0.0,0.0,0.0,0.0,0.7276,0.7565,0.8016,0.8612,0.9145,0.9834,1.0744,1.1999,1.324,1.4341,1.5039,1.5264,1.4984,1.3616,1.2616,1.1854,1.0758,0.9999,0.9465,0.916,0.8785,0.838,0.822,0.7869,0.0,0.0,0.0,0.0,0.0,0.0,0.0,0.0,0.6623,0.6877,0.7201,0.7365,0.7548,0.7899,0.7979,0.8111,0.8584,0.9169,0.9926,1.0792,1.1618,1.231,1.2445,1.2891,1.3337,1.3684,1.3961,1.4137,1.4248,1.4434,1.4799,1.5403,1.5742,1.5954,1.6257,1.6116,1.6177,1.6576,1.6301,1.6259,1.6633,1.695,1.706,1.706,1.716,1.7265,1.7067,1.706,1.706,1.706,1.7173,1.7279,1.7483,1.7582,1.7582,1.7582,1.7582,1.7582,1.7582,1.7582,1.8017,1.8809,1.8809,1.9261,2.0134,2.0175,2.0036,1.9823,1.9386,1.9279,1.9279,1.9279,1.948,1.9783,0.0,0.0,0.0,0.0,0.0,0.0,0.0,0.0,0.0,0.0,0.0,0.0,0.0,0.0,0.0,0.0,0.0,0.0,0.6779,0.7179,0.7779,0.8674,0.8958,0.9501,1.04,1.1595,1.3046,1.4775,1.5194,1.4935,1.4063,1.2995,1.2302,1.1836,1.0776,1.0321,1.0224,0.9292,0.8882,0.8752,0.8228,0.7973,0.7903,0.0,0.0,0.0,0.0,0.0,0.0,0.0,0.6452,0.6504,0.7113,0.7165,0.7129,0.779,0.8102,0.8275,0.8604,0.9286,1.0043,1.068,1.1593,1.2534,1.2941,1.3147,1.355,1.4469,1.4836,1.4708,1.4233,1.4335,1.4623,1.4917,1.5211,1.5498,1.5792,1.5635,1.566,1.6247,1.601,1.6126,1.6673,1.673,1.673,1.673,1.673,1.673,1.673,1.673,1.673,1.673,1.7067,1.7179,1.7179,1.7483,1.7582,1.7582,1.7582,1.7582,1.7582,1.7582,1.7916,1.849,1.849,1.9043,1.9788,1.9821,1.9775,1.9725,1.9403,1.9279,1.9279,1.9279,1.948,1.9783,0.0,0.0,0.0,0.0,0.0,0.0,0.0,0.0,0.0,0.0,0.0,0.0,0.0,0.0,0.0,0.0,0.0,0.0,0.68,0.7476,0.8011,0.8276,0.8571,0.9147,0.9962,1.1416,1.287,1.4327,1.4433,1.4136,1.3522,1.2851,1.2256,1.1752,1.101,1.0726,1.0689,0.9998,0.9667,0.955,0.9033,0.8633,0.8325,0.0,0.0,0.0,0.0,0.0,0.0,0.0,0.0,0.0,0.7059,0.7145,0.7129,0.7757,0.8067,0.8274,0.8731,0.9506,1.0414,1.1361,1.2089,1.2817,1.3789,1.4022,1.4213,1.4817,1.4947,1.4898,1.4723,1.4943,1.5164,1.5257,1.5418,1.5543,1.5629,1.5363,1.5313,1.5678,1.5689,1.5744,1.6106,1.6312,1.6424,1.6424,1.663,1.663,1.6424,1.6424,1.6424,1.6424,1.6743,1.6955,1.7179,1.7483,1.7582,1.7582,1.7582,1.7582,1.7582,1.7582,1.7916,1.849,1.849,1.8937,1.9557,1.9479,1.9339,1.9208,1.9316,1.9279,1.9279,1.9279,1.948,1.9783,0.0,0.0,0.0,0.0,0.0,0.0,0.0,0.0,0.0,0.0,0.5492,0.5492,0.0,0.0,0.0,0.0,0.0,0.0,0.0,0.7756,0.814,0.814,0.8643,0.9365,1.0318,1.1292,1.2187,1.3125,1.3223,1.3118,1.2793,1.2387,1.2073,1.1901,1.138,1.1104,1.1031,1.0498,1.0073,0.9777,0.9466,0.9105,0.8712,0.0,0.0,0.0,0.0,0.0,0.0,0.0,0.0,0.0,0.6867,0.6993,0.7062,0.7559,0.8009,0.8403,0.8784,0.958,1.0516,1.1556,1.2332,1.3162,1.4394,1.4697,1.4886,1.5154,1.5137,1.513,1.504,1.5087,1.5206,1.512,1.5269,1.5356,1.5356,1.5077,1.5088,1.536,1.5239,1.5248,1.553,1.5793,1.5952,1.5952,1.6249,1.6311,1.6111,1.6111,1.6111,1.6111,1.6424,1.6736,1.6955,1.7272,1.7483,1.7582,1.7582,1.7582,1.7582,1.7582,1.7916,1.8497,1.8611,1.891,1.9199,1.9147,1.9092,1.8981,1.9175,1.9279,1.9279,1.9279,1.948,1.9783,0.0,0.0,0.0,0.0,0.0,0.0,0.0,0.0,0.0,0.0,0.5492,0.5492,0.0,0.0,0.0,0.0,0.0,0.0,0.0,0.7907,0.8187,0.8187,0.8971,0.9884,1.0915,1.0952,1.1145,1.1489,1.1883,1.2041,1.196,1.1804,1.1917,1.2264,1.1748,1.1497,1.1318,1.073,1.0206,0.9761,0.9615,0.9341,0.8975,0.8878,0.0,0.0,0.0,0.0,0.0,0.0,0.0,0.0,0.659,0.6754,0.6944,0.728,0.7909,0.8554,0.8813,0.9591,1.0554,1.1411,1.2438,1.3556,1.4715,1.5133,1.5345,1.5345,1.5345,1.5345,1.5054,1.5054,1.4968,1.4701,1.4918,1.5083,1.5083,1.479,1.4781,1.5022,1.4795,1.4811,1.5046,1.5312,1.5463,1.5463,1.5686,1.5819,1.5819,1.5843,1.5855,1.5855,1.6099,1.6418,1.6586,1.6922,1.7226,1.7502,1.7528,1.7542,1.7542,1.7569,1.7916,1.8504,1.8771,1.8843,1.8892,1.8909,1.8929,1.8869,1.9175,1.9279,1.9279,1.9279,1.948,1.9776,0.0,0.0,0.0,0.0,0.0,0.0,0.0,0.0,0.0,0.0,0.0,0.0,0.0,0.0,0.0,0.0,0.0,0.0,0.0,0.7731,0.8187,0.8187,0.8971,0.945,0.9591,0.9908,1.0253,1.0596,1.1353,1.1743,1.1835,1.1809,1.19,1.2126,1.2033,1.1899,1.1706,1.0846,1.0365,1.01,0.9426,0.9061,0.8878,0.8535,0.8073,0.0,0.0,0.0,0.0,0.0,0.0,0.0,0.6418,0.658,0.6804,0.7071,0.7702,0.8413,0.8871,0.9674,1.0664,1.1637,1.2959,1.4091,1.4536,1.4922,1.5184,1.5184,1.5184,1.5177,1.5082,1.5082,1.5082,1.4994,1.4848,1.479,1.479,1.4592,1.4412,1.4473,1.4582,1.4739,1.4793,1.504,1.5191,1.5191,1.5246,1.5276,1.5276,1.5469,1.5584,1.5584,1.6001,1.6225,1.6112,1.6314,1.651,1.6603,1.6832,1.7048,1.7248,1.7475,1.7916,1.8497,1.8557,1.8544,1.8574,1.8801,1.8709,1.8534,1.9063,1.9279,1.9279,1.9279,1.9576,1.9983,0.0,0.0,0.0,0.0,0.0,0.0,0.0,0.0,0.0,0.0,0.0,0.0,0.0,0.0,0.0,0.0,0.0,0.0,0.0,0.0,0.833,0.851,0.8942,0.9211,0.9303,0.9484,0.9732,1.0056,1.0459,1.0958,1.1599,1.1482,1.1694,1.2175,1.2076,1.1818,1.1474,1.0921,1.0388,0.9934,0.9402,0.9063,0.8837,0.8365,0.7887,0.7427,0.6995,0.0,0.0,0.0,0.0,0.0,0.0,0.0,0.6478,0.6765,0.7356,0.801,0.8649,0.9537,1.0613,1.2099,1.329,1.4126,1.4415,1.4502,1.4508,1.4508,1.4796,1.5083,1.4885,1.4885,1.4885,1.479,1.4592,1.4496,1.4496,1.4394,1.4298,1.4298,1.4425,1.4515,1.4515,1.4763,1.492,1.492,1.5034,1.5107,1.5107,1.524,1.5312,1.5312,1.5548,1.5762,1.5716,1.5813,1.6049,1.6124,1.6475,1.6823,1.7161,1.7609,1.7976,1.8277,1.8277,1.8277,1.825,1.8586,1.8569,1.8422,1.9063,1.9279,1.9279,1.9279,1.968,2.0078,0.0,0.0,0.0,0.0,0.0,0.0,0.0,0.0,0.0,0.0,0.0,0.0,0.0,0.0,0.0,0.0,0.0,0.0,0.0,0.0,0.0,0.8798,0.8856,0.9011,0.9269,0.9236,0.9389,0.9784,0.9597,1.0156,1.1441,1.1177,1.1472,1.2283,1.2026,1.1612,1.1101,1.0889,1.0314,0.9546,0.9384,0.9132,0.8788,0.8201,0.7808,0.748,0.6909,0.652,0.6222,0.6052,0.0,0.0,0.0,0.0,0.6096,0.6449,0.6922,0.7511,0.8375,0.9285,1.0497,1.2299,1.3169,1.3658,1.4019,1.3897,1.3782,1.3829,1.4316,1.479,1.4502,1.4496,1.44,1.4202,1.4202,1.4202,1.4202,1.4202,1.4202,1.4208,1.4202,1.4202,1.4298,1.4509,1.4648,1.4648,1.4847,1.4968,1.4968,1.5016,1.504,1.504,1.5083,1.5184,1.5325,1.5325,1.5507,1.5876,1.6173,1.6671,1.7271,1.7716,1.7996,1.8043,1.7989,1.7996,1.8023,1.8245,1.8318,1.8422,1.9063,1.9279,1.9279,1.9279,1.9576,2.0086,0.0,0.0,0.0,0.0,0.0,0.0,0.0,0.0,0.0,0.0,0.5568,0.5492,0.0,0.0,0.0,0.0,0.0,0.0,0.705,0.0,0.0,0.8379,0.8721,0.8872,0.8795,0.8785,0.9119,0.9784,0.9363,0.9979,1.1558,1.1286,1.1569,1.2283,1.2026,1.1612,1.1084,1.0591,1.0011,0.9418,0.9106,0.8782,0.8521,0.8154,0.7847,0.7584,0.6927,0.6602,0.6393,0.6041,0.5881,0.0,0.0,0.0,0.5923,0.6224,0.6653,0.7163,0.7967,0.9176,1.0508,1.1522,1.2069,1.2481,1.3182,1.3368,1.336,1.3494,1.3636,1.3732,1.3636,1.3636,1.3636,1.3636,1.3636,1.3636,1.3636,1.3636,1.3732,1.3931,1.3931,1.4022,1.4298,1.4334,1.4352,1.4352,1.4383,1.4407,1.4407,1.4636,1.4769,1.4769,1.4992,1.4998,1.4769,1.4763,1.4943,1.5204,1.617,1.686,1.7161,1.7488,1.7796,1.8029,1.7762,1.7796,1.8023,1.8041,1.822,1.8422,1.8757,1.9078,1.9279,1.9279,1.948,1.9783,0.0,0.0,0.0,0.0,0.0,0.0,0.0,0.0,0.0,0.0,0.0,0.5587,0.0,0.0,0.0,0.5558,0.6041,0.6553,0.7014,0.7659,0.7891,0.7597,0.8226,0.8411,0.8089,0.8268,0.8613,0.9138,0.9111,0.9784,1.1114,1.1178,1.1633,1.2372,1.1959,1.142,1.0756,1.0343,0.976,0.9089,0.888,0.8816,0.8764,0.8087,0.789,0.7897,0.7088,0.6651,0.6402,0.6102,0.5877,0.5732,0.5631,0.0,0.0,0.0,0.6219,0.6791,0.7998,0.919,1.0302,1.0901,1.1607,1.2198,1.2532,1.2762,1.3008,1.3121,1.3154,1.3152,1.3443,1.3539,1.3539,1.3539,1.3539,1.3539,1.3539,1.3539,1.3539,1.3642,1.3835,1.3931,1.4022,1.4202,1.4298,1.4298,1.4298,1.4298,1.4298,1.4413,1.4479,1.4479,1.4594,1.46,1.4485,1.4479,1.4715,1.5089,1.5869,1.6514,1.6907,1.7208,1.7502,1.7776,1.7642,1.7662,1.7776,1.7966,1.8122,1.822,1.866,1.8974,1.9071,1.9279,1.948,1.968,0.0,0.0,0.0,0.0,0.0,0.0,0.0,0.0,0.0,0.0,0.0,0.0,0.0,0.0,0.0,0.0,0.6013,0.6447,0.6928,0.7376,0.7439,0.7026,0.7601,0.7776,0.7409,0.7751,0.8083,0.8416,0.887,0.9646,1.0713,1.1006,1.1618,1.2382,1.19,1.1327,1.0649,1.0271,0.9733,0.9106,0.8907,0.8962,0.9057,0.8362,0.8198,0.8254,0.7447,0.6937,0.6628,0.6341,0.6015,0.5695,0.5584,0.5465,0.0,0.0,0.0,0.6532,0.7771,0.8751,0.961,1.0176,1.0914,1.1623,1.1884,1.2204,1.2461,1.2582,1.2702,1.2769,1.3154,1.3301,1.3346,1.3346,1.3346,1.3346,1.3346,1.3346,1.3346,1.3346,1.3539,1.3738,1.3931,1.4118,1.4208,1.4298,1.4298,1.4298,1.4298,1.4298,1.4298,1.4298,1.4298,1.4298,1.4298,1.44,1.4783,1.5178,1.5738,1.6183,1.6607,1.6901,1.7194,1.7475,1.7549,1.7582,1.7582,1.7799,1.7911,1.8023,1.8548,1.8764,1.8869,1.9071,1.9383,1.9576,0.0,0.0,0.0,0.0,0.0,0.0,0.0,0.0,0.0,0.0,0.0,0.0,0.5692,0.5692,0.5692,0.5692,0.5778,0.6031,0.6499,0.6913,0.7094,0.7001,0.6975,0.0,0.685,0.7225,0.7607,0.7937,0.8667,0.9595,1.0713,1.0918,1.1417,1.2126,1.1828,1.1447,1.1048,1.0392,0.9984,0.9707,0.9344,0.9197,0.9182,0.9151,0.8967,0.8669,0.8057,0.768,0.7359,0.6786,0.6236,0.5766,0.5726,0.5465,0.5267,0.0,0.0,0.0,0.6883,0.7524,0.8332,0.9303,0.9778,1.0234,1.1144,1.1381,1.1532,1.2069,1.2264,1.2431,1.2431,1.2614,1.2861,1.2861,1.2861,1.2861,1.2861,1.2861,1.2958,1.3147,1.3147,1.3346,1.3835,1.3931,1.4022,1.4298,1.4298,1.4298,1.4298,1.4298,1.4298,1.4298,1.4298,1.4298,1.4298,1.479,1.5172,1.5452,1.6029,1.6279,1.6306,1.66,1.6894,1.7188,1.7462,1.7582,1.7582,1.7582,1.7799,1.8016,1.8016,1.8443,1.8869,1.8869,1.9071,1.9376,0.0,0.0,0.0,0.0,0.0,0.0,0.0,0.0,0.0,0.0,0.0,0.0,0.0,0.6424,0.6619,0.6652,0.64,0.6202,0.6064,0.6425,0.65,0.6181,0.6652,0.6728,0.6361,0.6733,0.7106,0.7385,0.7928,0.8662,0.9606,0.9986,1.0641,1.1449,1.1619,1.1425,1.095,1.0621,1.0238,0.9781,0.9649,0.9713,0.981,0.9489,0.9532,0.9673,0.8812,0.8349,0.8039,0.7258,0.6689,0.6212,0.5775,0.5475,0.5337,0.5315,0.5651,0.6061,0.635,0.7108,0.796,0.8499,0.907,0.9631,1.0283,1.0789,1.1209,1.1537,1.1908,1.2183,1.2183,1.2501,1.2764,1.2764,1.2764,1.2764,1.2764,1.2764,1.2861,1.2861,1.305,1.3244,1.3636,1.3835,1.4022,1.4298,1.4298,1.4298,1.4298,1.4298,1.4298,1.4298,1.4298,1.4394,1.4592,1.4892,1.5267,1.554,1.5836,1.6086,1.6279,1.638,1.6587,1.6881,1.7174,1.7408,1.7582,1.7582,1.7694,1.7799,1.7911,1.8227,1.8646,1.8869,1.9078,1.9272,0.0,0.0,0.0,0.0,0.0,0.0,0.0,0.0,0.6054,0.6085,0.0,0.0,0.0,0.0,0.707,0.7138,0.6846,0.6466,0.5997,0.6222,0.6147,0.5657,0.615,0.6255,0.5827,0.6202,0.6478,0.6664,0.7252,0.7907,0.8597,0.9272,0.9998,1.0693,1.1037,1.116,1.0997,1.0731,1.0412,1.0113,1.001,1.0113,1.0256,1.0037,1.0113,1.0207,0.9501,0.9076,0.8658,0.7866,0.7221,0.6719,0.6092,0.56,0.523,0.5132,0.5339,0.5625,0.5958,0.6635,0.7335,0.7774,0.8318,0.8859,0.941,1.002,1.0561,1.0795,1.1308,1.1743,1.1828,1.2253,1.2549,1.2635,1.2646,1.2673,1.2754,1.2764,1.2764,1.2764,1.2958,1.3152,1.3443,1.3642,1.3925,1.4298,1.4298,1.4298,1.4298,1.4298,1.4298,1.4298,1.4298,1.4496,1.479,1.4987,1.5267,1.5635,1.573,1.5932,1.6126,1.6126,1.6286,1.6573,1.6767,1.7074,1.7442,1.7542,1.7582,1.7582,1.7799,1.8115,1.8422,1.8646,1.8959,1.9279,0.0,0.0,0.0,0.0,0.0,0.0,0.0,0.0,0.6742,0.6879,0.0,0.0,0.0,0.0,0.0,0.7053,0.7053,0.6836,0.6329,0.6298,0.6053,0.5525,0.5496,0.5427,0.5308,0.5613,0.5793,0.5787,0.6702,0.7364,0.7793,0.8858,0.9497,0.9776,1.0057,1.0587,1.1216,1.0727,1.0541,1.0659,1.0462,1.043,1.0514,1.0718,1.0624,1.0308,1.0057,0.9722,0.9357,0.8604,0.7865,0.7244,0.6662,0.5812,0.4998,0.494,0.501,0.5198,0.0,0.0,0.0,0.702,0.7532,0.799,0.8551,0.9056,0.9504,0.9883,1.048,1.1029,1.1357,1.177,1.2097,1.2344,1.2393,1.2484,1.2711,1.2743,1.2743,1.2743,1.2743,1.2937,1.342,1.3516,1.3703,1.4274,1.428,1.428,1.4274,1.4274,1.4274,1.4274,1.428,1.458,1.507,1.5077,1.5363,1.5832,1.5832,1.5832,1.5832,1.5832,1.5985,1.6259,1.6273,1.66,1.725,1.7442,1.7575,1.7582,1.7582,1.7898,1.8422,1.8422,1.8743,1.9279,0.0,0.0,0.0,0.0,0.0,0.6441,0.6428,0.6552,0.6657,0.0,0.0,0.0,0.7827,0.8569,0.8765,0.8068,0.8004,0.7517,0.6372,0.6202,0.5949,0.5524,0.5407,0.5281,0.5165,0.5234,0.5363,0.5502,0.6063,0.6611,0.7152,0.7645,0.8348,0.9165,0.9123,0.9437,1.0,1.0148,1.0181,1.0121,1.0376,1.0657,1.0858,1.1037,1.1254,1.1416,1.0862,1.0627,1.0388,0.924,0.8519,0.7829,0.6552,0.5832,0.5402,0.5107,0.5187,0.5323,0.5408,0.0,0.0,0.0,0.0,0.0,0.8047,0.846,0.8842,0.9464,0.9968,1.0314,1.0554,1.0953,1.1359,1.1607,1.193,1.2172,1.2237,1.2248,1.2248,1.2248,1.2248,1.2527,1.2991,1.2991,1.3176,1.3638,1.3906,1.393,1.3743,1.3731,1.3731,1.3731,1.4105,1.449,1.4765,1.5158,1.5547,1.5832,1.5832,1.5832,1.5832,1.5832,1.5872,1.5965,1.6179,1.6366,1.6553,1.7061,1.7388,1.7582,1.7582,1.7799,1.8115,1.8325,1.8639,1.9078,0.0,0.0,0.0,0.6487,0.682,0.7068,0.7068,0.7375,0.7603,0.0,0.0,0.0,0.8674,0.9286,0.9455,0.89,0.8701,0.8159,0.7127,0.6595,0.6145,0.5684,0.5543,0.5422,0.5341,0.5461,0.5479,0.5392,0.5745,0.6053,0.6372,0.6808,0.7415,0.8144,0.815,0.8391,0.8821,0.8993,0.9338,0.9764,1.0325,1.0681,1.0955,1.1136,1.1411,1.1608,1.1229,1.0968,1.0743,0.975,0.892,0.802,0.6555,0.6013,0.581,0.5439,0.5376,0.5497,0.5554,0.5738,0.5985,0.6284,0.0,0.0,0.7249,0.7619,0.8071,0.8647,0.9153,0.9559,0.9812,1.0295,1.0746,1.0885,1.1219,1.1596,1.2086,1.214,1.214,1.214,1.214,1.2323,1.278,1.278,1.2962,1.3423,1.3652,1.3676,1.3525,1.3513,1.3513,1.3513,1.3945,1.4295,1.4466,1.4909,1.5338,1.5651,1.5651,1.5712,1.5832,1.5832,1.5832,1.5838,1.6012,1.6159,1.6313,1.6774,1.7134,1.7415,1.7535,1.7799,1.8016,1.8325,1.8646,1.8974,0.0,0.0,0.6607,0.6586,0.7287,0.7812,0.7812,0.8483,0.9057,0.0,0.9244,0.9382,0.9609,0.9733,0.9747,0.9664,0.9318,0.8835,0.8142,0.7301,0.6582,0.5987,0.582,0.5759,0.5734,0.5987,0.5873,0.5398,0.5703,0.576,0.5621,0.6279,0.676,0.7069,0.7284,0.7507,0.7741,0.7769,0.8386,0.9348,1.0115,1.0595,1.0831,1.1067,1.133,1.1431,1.1222,1.1032,1.0798,1.0134,0.9111,0.8019,0.6774,0.6376,0.6258,0.5834,0.5696,0.5726,0.5878,0.5917,0.5903,0.6074,0.6212,0.0,0.6478,0.6818,0.7206,0.7626,0.8201,0.8674,0.9094,0.9687,1.0175,1.0175,1.0385,1.0869,1.1763,1.2004,1.2021,1.2021,1.2042,1.224,1.27,1.27,1.2971,1.3423,1.3423,1.3435,1.3471,1.3441,1.3423,1.3423,1.373,1.4013,1.4174,1.4482,1.4903,1.5351,1.5384,1.5531,1.5785,1.5812,1.5832,1.5832,1.5832,1.5979,1.6246,1.6533,1.6854,1.7181,1.7468,1.7799,1.8016,1.822,1.8541,1.8869,0.0,0.6998,0.7329,0.77,0.8217,0.8584,0.8584,0.8829,0.9131,0.9463,1.0222,1.0785,1.1003,1.1345,1.135,1.0671,1.0542,0.9836,0.8214,0.7881,0.7317,0.6333,0.6215,0.6143,0.6027,0.6063,0.5836,0.5319,0.5957,0.6004,0.5542,0.6203,0.6633,0.6856,0.7138,0.7256,0.7358,0.8129,0.8459,0.8575,0.9228,0.9897,1.0591,1.0849,1.1397,1.1897,1.1526,1.1508,1.1504,1.0087,0.91,0.8274,0.7341,0.6936,0.6748,0.6478,0.6282,0.6152,0.6197,0.6027,0.5849,0.6069,0.6048,0.0,0.6445,0.6591,0.6771,0.7191,0.7565,0.7867,0.8199,0.8788,0.9278,0.9416,0.9782,1.0256,1.0832,1.1074,1.1192,1.1192,1.1543,1.1838,1.2099,1.2348,1.2602,1.2862,1.2862,1.2958,1.3188,1.2988,1.2948,1.3127,1.3605,1.3982,1.4158,1.4665,1.499,1.505,1.5284,1.5424,1.5491,1.5718,1.5832,1.5832,1.5832,1.5865,1.5939,1.6233,1.6673,1.7181,1.7468,1.7582,1.7694,1.801,1.822,1.8534,0.7102,0.747,0.7819,0.8058,0.8617,0.9145,0.9427,0.9713,1.0079,1.0537,1.1059,1.1462,1.163,1.1918,1.1953,1.1627,1.1144,1.0405,0.9416,0.841,0.7585,0.7009,0.6666,0.6473,0.6386,0.6529,0.6357,0.5848,0.6197,0.6159,0.5765,0.6104,0.6415,0.67,0.6743,0.6921,0.7233,0.7623,0.8016,0.8386,0.9263,0.9932,1.0457,1.0822,1.1286,1.1778,1.1443,1.1329,1.1101,1.01,0.9368,0.8767,0.7857,0.7545,0.7397,0.7022,0.6851,0.6739,0.6575,0.6413,0.6277,0.6282,0.6223,0.0,0.0,0.6323,0.6469,0.678,0.7021,0.7265,0.7608,0.812,0.8485,0.8678,0.898,0.9346,0.9701,1.0261,1.0681,1.0794,1.1084,1.1411,1.1666,1.1821,1.207,1.2312,1.2433,1.2572,1.2711,1.2796,1.2966,1.3137,1.3525,1.378,1.3952,1.4362,1.4596,1.4743,1.489,1.511,1.5398,1.5545,1.5691,1.5832,1.5832,1.5832,1.5852,1.6152,1.6533,1.6954,1.7255,1.7455,1.7582,1.7905,1.8122,1.8422,0.7451,0.7847,0.8187,0.8187,0.8849,0.9573,1.0067,1.0531,1.1058,1.1738,1.1939,1.2118,1.2358,1.2478,1.2558,1.2584,1.1799,1.1113,1.0728,0.9127,0.8097,0.782,0.7344,0.7015,0.6894,0.71,0.6942,0.6394,0.64,0.6256,0.6004,0.605,0.6241,0.6592,0.6491,0.6738,0.7194,0.7274,0.7721,0.8449,0.9531,1.0117,1.0348,1.0749,1.1176,1.1414,1.1312,1.0898,1.0476,1.0046,0.9621,0.907,0.8277,0.8,0.7899,0.7432,0.731,0.7234,0.6965,0.688,0.6791,0.6538,0.6473,0.6421,0.0,0.0,0.0,0.6384,0.6587,0.6791,0.7039,0.7429,0.7749,0.7881,0.8118,0.8393,0.8624,0.9362,1.0019,1.0385,1.0625,1.0897,1.1135,1.142,1.1706,1.192,1.2119,1.2258,1.2395,1.2776,1.3087,1.3222,1.3568,1.3737,1.3737,1.3997,1.4208,1.4436,1.4496,1.4796,1.5311,1.5371,1.5558,1.5832,1.5832,1.5832,1.5845,1.6086,1.6359,1.6653,1.7014,1.7328,1.7582,1.7799,1.8115,1.8325,0.7225,0.789,0.8459,0.8459,0.9171,0.9888,1.0289,1.0599,1.1271,1.2568,1.3057,1.3478,1.3955,1.4042,1.395,1.3737,1.3205,1.2377,1.1149,1.0374,0.9583,0.86,0.8441,0.8143,0.7608,0.7621,0.72,0.6296,0.6586,0.6483,0.6012,0.6188,0.6364,0.6522,0.6856,0.7032,0.7181,0.8088,0.8521,0.8667,0.95,0.9874,0.9952,1.0379,1.0898,1.1301,1.1343,1.0863,1.0236,0.9821,0.9409,0.8903,0.8268,0.7987,0.7831,0.7785,0.7578,0.7467,0.7447,0.7258,0.7026,0.6629,0.6473,0.6421,0.622,0.0,0.6182,0.6206,0.0,0.6322,0.6418,0.0,0.0,0.6876,0.7223,0.7597,0.7887,0.8194,0.8782,0.9593,1.0173,1.0528,1.0604,1.1124,1.1594,1.1908,1.195,1.2152,1.2643,1.268,1.306,1.3639,1.3652,1.3822,1.4082,1.4088,1.4108,1.4135,1.4396,1.4696,1.5023,1.5277,1.5558,1.5832,1.5832,1.5832,1.5832,1.5865,1.6052,1.638,1.6934,1.7328,1.7582,1.7582,1.7799,1.8016,0.7196,0.7895,0.8498,0.8498,0.917,0.9882,1.0373,1.1089,1.196,1.3105,1.3398,1.3723,1.4251,1.4317,1.427,1.4264,1.3802,1.3093,1.2183,1.1357,1.0414,0.9403,0.904,0.863,0.8072,0.7778,0.7381,0.6881,0.6742,0.6498,0.618,0.6458,0.6602,0.6641,0.7104,0.7405,0.757,0.8248,0.8644,0.8871,0.94,0.963,0.9818,1.0341,1.0708,1.0979,1.0914,1.0666,1.0213,0.9829,0.9394,0.8876,0.844,0.8165,0.7982,0.7861,0.7771,0.7664,0.7536,0.7409,0.7321,0.6961,0.6773,0.6604,0.6398,0.6262,0.6178,0.6178,0.0,0.0,0.0,0.0,0.0,0.0,0.6742,0.6918,0.7149,0.7268,0.7736,0.8834,0.9382,0.9771,1.0137,1.0396,1.0779,1.1196,1.1365,1.1648,1.2165,1.2644,1.3035,1.3489,1.3736,1.3913,1.3913,1.3913,1.3828,1.3743,1.3946,1.4328,1.4784,1.509,1.5398,1.5832,1.5832,1.5832,1.5832,1.5832,1.6005,1.6313,1.6734,1.7074,1.7355,1.7522,1.7799,1.8016,0.7196,0.7803,0.8369,0.848,0.9078,0.9799,1.0555,1.1521,1.2503,1.341,1.3782,1.4145,1.4684,1.4831,1.4949,1.5,1.4563,1.3987,1.3342,1.2414,1.1425,1.0319,0.9913,0.9351,0.8601,0.8235,0.7783,0.7288,0.6912,0.6581,0.6292,0.6543,0.6727,0.6825,0.7356,0.7793,0.8137,0.849,0.8896,0.9196,0.9428,0.9653,0.9855,1.0353,1.0564,1.0554,1.0554,1.0381,1.0005,0.954,0.9206,0.8881,0.8524,0.8291,0.8156,0.8008,0.7969,0.7916,0.775,0.7655,0.7599,0.7229,0.699,0.6815,0.6495,0.6365,0.6243,0.6187,0.6178,0.0,0.0,0.0,0.6263,0.6402,0.0,0.6353,0.6464,0.655,0.7009,0.8005,0.8483,0.8937,0.9514,0.961,0.9934,1.0466,1.0749,1.1125,1.1707,1.2485,1.299,1.3313,1.3761,1.3913,1.3737,1.3652,1.3561,1.3398,1.3568,1.395,1.4591,1.4777,1.5186,1.5832,1.5832,1.5832,1.5832,1.5832,1.5952,1.6179,1.6473,1.6767,1.7074,1.7442,1.7694,1.7911,0.7196,0.7543,0.7963,0.8434,0.8839,0.955,1.0882,1.1771,1.2645,1.3569,1.4515,1.5311,1.5725,1.6263,1.6562,1.6357,1.5994,1.5303,1.4313,1.3756,1.2846,1.1594,1.1344,1.0661,0.9386,0.9213,0.8509,0.7206,0.7107,0.6827,0.6292,0.6314,0.6599,0.7119,0.7585,0.8176,0.8863,0.9223,0.9484,0.9685,0.9723,0.9848,0.9947,1.0213,1.0274,1.0294,1.0125,0.9864,0.957,0.911,0.895,0.883,0.84,0.8258,0.8254,0.8246,0.8246,0.8248,0.8112,0.808,0.7895,0.7135,0.7064,0.7031,0.6447,0.6416,0.6407,0.6215,0.6178,0.6171,0.6124,0.6007,0.5886,0.5857,0.5948,0.0,0.0,0.6256,0.6589,0.7074,0.7611,0.8137,0.8693,0.8944,0.9379,0.9856,1.0137,1.0651,1.1477,1.2195,1.2785,1.3307,1.3587,1.3737,1.3737,1.3476,1.3398,1.3398,1.3398,1.3864,1.4591,1.4591,1.5087,1.5832,1.5832,1.5832,1.5832,1.5832,1.5838,1.5872,1.6166,1.6466,1.6787,1.7368,1.7582,1.7582,0.8042,0.8161,0.8298,0.848,0.8829,0.954,1.0891,1.179,1.2716,1.3921,1.4847,1.5674,1.638,1.6886,1.713,1.7101,1.6949,1.6421,1.5411,1.5204,1.4335,1.2627,1.2458,1.1775,1.0428,0.9787,0.9037,0.8181,0.7534,0.7068,0.6776,0.6859,0.7018,0.7244,0.7863,0.839,0.8847,0.945,0.971,0.9766,0.9687,0.9702,0.9761,1.0019,0.9976,0.9777,0.9607,0.9519,0.9336,0.9005,0.8729,0.8446,0.8135,0.7955,0.7942,0.7942,0.802,0.8074,0.8031,0.7903,0.7736,0.7487,0.719,0.6959,0.6885,0.6754,0.6601,0.6599,0.6585,0.6577,0.6582,0.6479,0.6319,0.6085,0.6033,0.5965,0.0,0.5868,0.6021,0.622,0.6788,0.7396,0.7919,0.819,0.8585,0.9349,0.9592,1.0183,1.1112,1.1652,1.2144,1.2859,1.306,1.3297,1.3307,1.3222,1.3137,1.296,1.3137,1.3416,1.3863,1.4225,1.4708,1.5365,1.5373,1.5458,1.5635,1.5458,1.5363,1.5389,1.5862,1.6124,1.6282,1.7074,1.7415,1.7582,0.8498,0.8498,0.8544,0.8682,0.9161,0.9929,1.1055,1.2039,1.3106,1.4399,1.5439,1.6353,1.7096,1.7569,1.7816,1.7727,1.7746,1.7338,1.6401,1.6346,1.5579,1.3815,1.3678,1.2992,1.1493,1.072,0.981,0.8774,0.805,0.7415,0.6911,0.7064,0.7197,0.7349,0.8028,0.8568,0.9028,0.9581,0.9878,0.9912,0.9697,0.9574,0.9515,0.9602,0.9519,0.9432,0.9257,0.9082,0.8995,0.8732,0.8392,0.8127,0.7959,0.7881,0.7789,0.7789,0.7954,0.8022,0.7963,0.7947,0.7903,0.7774,0.7487,0.7186,0.7183,0.7033,0.6885,0.6871,0.6899,0.6894,0.6798,0.6641,0.6488,0.6273,0.6044,0.5853,0.0,0.568,0.5717,0.5793,0.6287,0.6746,0.7194,0.7458,0.7907,0.8603,0.8992,0.9566,1.0404,1.1112,1.1784,1.2334,1.2706,1.2945,1.3137,1.3052,1.2881,1.2705,1.2881,1.3194,1.3548,1.3812,1.4282,1.4935,1.4942,1.5076,1.5356,1.5172,1.5083,1.5102,1.5467,1.5687,1.5842,1.6832,1.7335,1.7582,0.8562,0.8572,0.8719,0.9133,0.987,1.0662,1.1417,1.2544,1.3782,1.493,1.6317,1.7362,1.7791,1.8375,1.8629,1.8462,1.8462,1.8072,1.7269,1.7223,1.6633,1.5219,1.5024,1.4197,1.2543,1.1969,1.0788,0.8985,0.8598,0.7843,0.678,0.6914,0.7154,0.7446,0.8022,0.8687,0.9391,0.96,0.9894,1.0116,0.97,0.9432,0.9257,0.8999,0.8999,0.917,0.8911,0.8732,0.8548,0.8285,0.8028,0.7852,0.7852,0.7852,0.7856,0.7863,0.804,0.8181,0.7943,0.815,0.8223,0.7886,0.7807,0.7647,0.7296,0.7346,0.7369,0.6989,0.7089,0.714,0.6862,0.6601,0.6406,0.6328,0.6008,0.5773,0.5728,0.5685,0.5717,0.5793,0.6007,0.6287,0.6543,0.6836,0.7215,0.7841,0.8351,0.8884,0.9454,1.0719,1.1577,1.1818,1.2351,1.276,1.3033,1.2784,1.2705,1.2705,1.2705,1.301,1.3436,1.3448,1.3919,1.46,1.4631,1.4803,1.5064,1.5077,1.5083,1.5083,1.5083,1.5248,1.5658,1.6731,1.7328,1.7562,0.9465,0.9649,1.0072,1.0737,1.1278,1.1723,1.1902,1.3118,1.427,1.5201,1.6285,1.7207,1.7917,1.8632,1.8948,1.8674,1.8866,1.8638,1.7932,1.7872,1.7299,1.6082,1.5945,1.5189,1.3639,1.2879,1.1824,1.0483,0.9346,0.8456,0.7787,0.7266,0.726,0.7782,0.7721,0.8169,0.8981,0.9204,0.9458,0.9755,0.9247,0.8995,0.8723,0.8464,0.8288,0.8292,0.838,0.8292,0.8028,0.8028,0.7768,0.7591,0.7591,0.7591,0.7616,0.7728,0.7945,0.8148,0.8401,0.8329,0.8289,0.8381,0.8106,0.7745,0.7802,0.7605,0.7492,0.7531,0.7604,0.7532,0.7182,0.715,0.6973,0.644,0.6061,0.5779,0.5768,0.5749,0.5723,0.5717,0.5777,0.5897,0.6116,0.6474,0.6931,0.7463,0.7913,0.8507,0.9436,0.9989,1.0615,1.1271,1.1824,1.2231,1.2492,1.2608,1.2705,1.2705,1.2705,1.2741,1.2899,1.3112,1.3453,1.3773,1.4007,1.4229,1.4503,1.4512,1.4496,1.4496,1.4688,1.5055,1.556,1.6324,1.6685,1.699,1.0284,1.0708,1.1205,1.1558,1.2393,1.2963,1.2758,1.3889,1.5033,1.5919,1.6883,1.7721,1.8533,1.8931,1.9173,1.919,1.9317,1.9182,1.8505,1.8353,1.783,1.6749,1.6564,1.588,1.4421,1.3598,1.2458,1.1064,0.9692,0.8654,0.7975,0.7312,0.717,0.744,0.7407,0.7749,0.8378,0.8897,0.9091,0.8985,0.8831,0.8556,0.0,0.8113,0.794,0.7768,0.776,0.776,0.7768,0.7768,0.7591,0.7323,0.7323,0.7323,0.7354,0.7504,0.7731,0.7949,0.8292,0.8387,0.8422,0.8607,0.842,0.8203,0.8292,0.8129,0.7952,0.7863,0.7904,0.7798,0.7468,0.7358,0.7116,0.6502,0.6077,0.5856,0.5856,0.5882,0.5858,0.5757,0.5786,0.5831,0.5858,0.6095,0.6469,0.7026,0.7461,0.8032,0.892,0.9538,1.0248,1.0918,1.1576,1.2047,1.2312,1.2572,1.2705,1.2705,1.2705,1.2705,1.2711,1.2868,1.3094,1.3309,1.3647,1.3896,1.4117,1.4285,1.4298,1.4298,1.4496,1.4684,1.507,1.54,1.5941,1.6503,1.1003,1.1673,1.2209,1.2097,1.3341,1.4209,1.3974,1.4809,1.5833,1.6826,1.7538,1.8311,1.9015,1.9164,1.9366,1.9685,1.9729,1.9534,1.8929,1.8731,1.8253,1.7316,1.6984,1.6272,1.4961,1.4085,1.2844,1.118,0.988,0.8724,0.7724,0.7172,0.6893,0.6824,0.7071,0.7365,0.7817,0.8498,0.8598,0.8272,0.8471,0.8201,0.7856,0.7764,0.768,0.7415,0.7143,0.7143,0.7415,0.7326,0.7234,0.7051,0.7051,0.7051,0.7081,0.7326,0.7475,0.7703,0.7861,0.828,0.8648,0.8648,0.8706,0.8725,0.867,0.8645,0.8484,0.8162,0.8094,0.8058,0.7735,0.7441,0.7021,0.6482,0.6186,0.6027,0.6027,0.6121,0.6111,0.5914,0.5923,0.0,0.5744,0.5771,0.6023,0.6497,0.7024,0.7587,0.8205,0.917,1.0024,1.0581,1.1342,1.1882,1.2176,1.2524,1.2674,1.2705,1.2705,1.2705,1.2705,1.2705,1.2837,1.3085,1.335,1.361,1.3876,1.4135,1.4262,1.4298,1.4298,1.4202,1.4232,1.4478,1.5109,1.5752,1.1589,1.2292,1.2995,1.3535,1.4346,1.5065,1.551,1.579,1.6206,1.7041,1.7448,1.7871,1.8622,1.8999,1.9233,1.9264,1.9519,1.9432,1.8857,1.8737,1.8402,1.758,1.7322,1.6587,1.531,1.4452,1.3157,1.1515,1.0071,0.887,0.7941,0.6969,0.6636,0.6886,0.6575,0.6839,0.7502,0.7798,0.7955,0.8089,0.7989,0.7856,0.7503,0.7319,0.7143,0.6881,0.6609,0.67,0.6881,0.67,0.652,0.6517,0.6517,0.67,0.691,0.706,0.7369,0.7684,0.803,0.8265,0.8357,0.8549,0.8702,0.8749,0.8717,0.8657,0.8586,0.8525,0.8413,0.8142,0.777,0.7421,0.7049,0.6634,0.6587,0.6546,0.6546,0.6395,0.6248,0.6213,0.598,0.583,0.5794,0.5782,0.5941,0.6242,0.6664,0.724,0.7908,0.8583,0.9244,0.9962,1.0666,1.1266,1.1745,1.217,1.2487,1.2705,1.2705,1.2705,1.2705,1.2705,1.2729,1.2795,1.3073,1.3344,1.3604,1.387,1.4099,1.4298,1.4022,1.3925,1.3937,1.3984,1.4128,1.4424,1.2708,1.3325,1.393,1.44,1.5064,1.5826,1.6646,1.6911,1.7189,1.7582,1.8031,1.8588,1.911,1.9304,1.9512,1.9793,1.9761,1.9611,1.9112,1.8919,1.8449,1.7642,1.7273,1.6695,1.5694,1.4615,1.3398,1.213,1.0413,0.903,0.8032,0.7058,0.6557,0.6422,0.6499,0.679,0.7342,0.7584,0.7748,0.7754,0.7578,0.7323,0.7149,0.6874,0.6697,0.6523,0.6346,0.6346,0.6438,0.6432,0.6428,0.6428,0.6428,0.652,0.664,0.6875,0.7152,0.7346,0.7852,0.8111,0.8229,0.8402,0.865,0.876,0.8866,0.8745,0.8627,0.8718,0.85,0.8189,0.7806,0.7487,0.7283,0.7122,0.7033,0.6984,0.6935,0.6915,0.6768,0.6376,0.6257,0.6095,0.5738,0.5741,0.5852,0.5974,0.6409,0.6934,0.7481,0.8299,0.9006,0.9559,1.0338,1.0936,1.1248,1.1869,1.2212,1.2331,1.2468,1.2534,1.2534,1.2369,1.2375,1.2386,1.2651,1.2928,1.3165,1.3552,1.3779,1.3823,1.3732,1.3738,1.3738,1.3738,1.3738,1.379,1.3874,1.4444,1.5002,1.5184,1.5922,1.6698,1.7527,1.8068,1.8305,1.8249,1.8802,1.9229,1.9613,1.9567,1.9711,2.0085,1.9936,1.972,1.9418,1.8962,1.8458,1.7746,1.7282,1.6645,1.5914,1.4695,1.3499,1.2398,1.0561,0.9092,0.8037,0.7182,0.6534,0.6119,0.6553,0.6876,0.7178,0.7435,0.748,0.7446,0.7169,0.6877,0.6704,0.6435,0.6343,0.6343,0.6083,0.5994,0.6083,0.6169,0.6254,0.6254,0.6254,0.6254,0.6364,0.6747,0.6917,0.7102,0.7512,0.7914,0.8094,0.8305,0.8531,0.8791,0.8863,0.8794,0.8726,0.8782,0.8533,0.8195,0.7853,0.7609,0.744,0.753,0.7396,0.7343,0.7311,0.7404,0.722,0.6721,0.6613,0.635,0.5818,0.5743,0.5768,0.575,0.6236,0.6739,0.7093,0.8,0.8737,0.9164,0.9999,1.0513,1.075,1.1485,1.1846,1.1904,1.2161,1.2283,1.2283,1.2123,1.2043,1.1969,1.2249,1.2451,1.2721,1.3222,1.346,1.3459,1.342,1.3443,1.3443,1.3443,1.3443,1.3471,1.478,1.5669,1.6364,1.6263,1.7098,1.786,1.7963,1.8846,1.9417,1.9119,1.8965,1.8969,1.9419,1.9196,1.9264,1.9646,1.9679,1.9471,1.9231,1.8964,1.8537,1.792,1.7424,1.6602,1.5499,1.4591,1.3351,1.1573,1.0179,0.8959,0.7906,0.7049,0.6547,0.6394,0.6717,0.6975,0.7139,0.707,0.7015,0.6939,0.6825,0.67,0.6432,0.6169,0.6171,0.6083,0.5822,0.5733,0.5733,0.5733,0.5733,0.5733,0.5733,0.5908,0.6174,0.6186,0.6447,0.6923,0.7133,0.7427,0.7726,0.7939,0.8233,0.8428,0.8414,0.8582,0.8564,0.8645,0.8436,0.8151,0.8032,0.7836,0.761,0.7495,0.7664,0.7742,0.7724,0.7616,0.7493,0.7436,0.6803,0.6416,0.6352,0.5913,0.5641,0.5621,0.6097,0.6493,0.6724,0.7491,0.8115,0.8598,0.9234,0.9868,1.0332,1.1067,1.1514,1.1738,1.1918,1.2037,1.2037,1.2037,1.2043,1.2043,1.2066,1.2203,1.2454,1.3038,1.3256,1.3214,1.3154,1.3147,1.3147,1.3147,1.3147,1.3152,1.6529,1.7052,1.7432,1.7497,1.7823,1.8187,1.8556,1.9008,1.9326,1.9401,1.941,1.946,1.952,1.9447,1.9422,1.9571,1.9487,1.9296,1.9012,1.8743,1.8411,1.7804,1.7325,1.6587,1.5742,1.4699,1.3557,1.2298,1.091,0.9685,0.8545,0.7728,0.7068,0.6673,0.6901,0.7131,0.7292,0.7129,0.7109,0.6974,0.6678,0.6435,0.6169,0.5997,0.5819,0.5819,0.5733,0.5733,0.5733,0.5733,0.5733,0.5733,0.5733,0.5733,0.5908,0.6083,0.6303,0.6554,0.6913,0.7171,0.7537,0.7723,0.7942,0.8237,0.8333,0.8416,0.8401,0.8594,0.8463,0.8282,0.8123,0.8054,0.8077,0.797,0.8013,0.8001,0.7961,0.7819,0.7618,0.7367,0.7064,0.6697,0.6315,0.6153,0.5992,0.573,0.6085,0.633,0.6415,0.7277,0.7951,0.8285,0.8961,0.9515,0.986,1.0718,1.1173,1.1275,1.168,1.1785,1.1785,1.1613,1.1607,1.1613,1.1785,1.1919,1.1993,1.2512,1.2741,1.2714,1.286,1.2958,1.2958,1.2958,1.2958,1.2953,1.7907,1.8108,1.8294,1.8381,1.8431,1.8587,1.8943,1.9117,1.9282,1.9455,1.9571,1.9654,1.9487,1.9396,1.9304,1.9312,1.9112,1.892,1.8643,1.8373,1.8102,1.7621,1.7128,1.6577,1.5812,1.4776,1.3738,1.2609,1.144,1.0242,0.9041,0.8233,0.7578,0.7079,0.724,0.7324,0.7429,0.725,0.7017,0.6874,0.6432,0.6169,0.5905,0.5641,0.5552,0.5466,0.5502,0.5512,0.5517,0.5554,0.5564,0.5554,0.5665,0.5733,0.5741,0.595,0.6139,0.636,0.6673,0.6997,0.722,0.7419,0.7643,0.7942,0.8137,0.8157,0.8167,0.8408,0.8408,0.8272,0.8232,0.8225,0.8223,0.8217,0.815,0.8107,0.813,0.7921,0.7694,0.7351,0.7154,0.6926,0.6377,0.6332,0.6244,0.5948,0.6232,0.6355,0.6344,0.7191,0.7814,0.8117,0.8737,0.9219,0.9532,1.032,1.0757,1.0827,1.124,1.1435,1.1435,1.1176,1.1176,1.1181,1.144,1.1532,1.1618,1.21,1.2335,1.2334,1.2646,1.2764,1.2667,1.2667,1.2662,1.2565,1.8571,1.8727,1.8818,1.8826,1.8858,1.901,1.9018,1.934,1.9479,1.9279,1.9188,1.9188,1.9188,1.9012,1.8743,1.8574,1.8481,1.8381,1.8087,1.7908,1.7628,1.7333,1.7153,1.6542,1.5398,1.4912,1.3795,1.23,1.1516,1.0414,0.919,0.8357,0.787,0.7702,0.7664,0.7631,0.7573,0.7143,0.67,0.6428,0.6169,0.5816,0.5371,0.5371,0.528,0.5022,0.5038,0.5073,0.5092,0.5289,0.5325,0.5383,0.5626,0.5733,0.5757,0.5869,0.5988,0.6205,0.6617,0.6744,0.6842,0.7138,0.7441,0.7646,0.7646,0.7842,0.7997,0.8146,0.8208,0.8203,0.807,0.8139,0.8142,0.7975,0.7988,0.807,0.807,0.7893,0.7728,0.7539,0.7179,0.6798,0.6593,0.6419,0.6306,0.6301,0.6578,0.6712,0.6613,0.7077,0.7517,0.7897,0.8422,0.8872,0.9316,0.9766,1.01,1.0312,1.062,1.0727,1.0727,1.0727,1.0824,1.1008,1.1008,1.1094,1.1392,1.1855,1.214,1.2189,1.2576,1.2662,1.237,1.237,1.2273,1.198,2.0095,1.9855,1.9494,1.9322,1.9225,1.9117,1.8935,1.894,1.9012,1.892,1.8835,1.8751,1.8751,1.8658,1.8473,1.828,1.8187,1.8094,1.7815,1.7621,1.734,1.7066,1.6494,1.598,1.5404,1.4571,1.357,1.2578,1.1661,1.0477,0.9027,0.8651,0.8159,0.77,0.7668,0.7416,0.7136,0.6881,0.6615,0.6169,0.5899,0.5636,0.5371,0.5191,0.5145,0.5031,0.5064,0.5122,0.5282,0.5317,0.5329,0.5317,0.5437,0.5415,0.5516,0.574,0.5828,0.6021,0.6352,0.6648,0.6842,0.6942,0.7141,0.7341,0.7341,0.754,0.7733,0.7786,0.7993,0.8179,0.8175,0.8122,0.8095,0.8046,0.7912,0.7853,0.7853,0.7675,0.7565,0.7509,0.7237,0.6994,0.6807,0.6621,0.6475,0.6287,0.6513,0.668,0.6731,0.7385,0.7772,0.7907,0.8563,0.9018,0.9322,0.9771,1.01,1.0317,1.054,1.0727,1.0727,1.0727,1.0733,1.0824,1.0824,1.0819,1.0942,1.1398,1.1584,1.1631,1.2092,1.2175,1.2175,1.2175,1.2078,1.198,2.0721,2.0197,1.9754,1.9487,1.9196,1.9004,1.8827,1.8827,1.8735,1.8743,1.8574,1.8388,1.8187,1.8094,1.8001,1.78,1.78,1.7613,1.734,1.7145,1.6864,1.6595,1.6116,1.5549,1.4997,1.4235,1.3475,1.2626,1.1374,1.0299,0.9175,0.877,0.838,0.7851,0.7727,0.7458,0.7044,0.6789,0.6438,0.6002,0.579,0.5445,0.517,0.5022,0.4986,0.4955,0.49,0.5047,0.5106,0.5142,0.5153,0.5153,0.5153,0.5153,0.5147,0.5497,0.5726,0.5786,0.6126,0.6388,0.6542,0.6642,0.6842,0.7039,0.7138,0.7341,0.7444,0.7547,0.7773,0.7969,0.7952,0.7959,0.7971,0.7851,0.7733,0.7612,0.7612,0.7379,0.7214,0.7154,0.7089,0.7019,0.6776,0.6781,0.6793,0.6677,0.6841,0.7001,0.7063,0.7474,0.7889,0.8196,0.867,0.9069,0.9379,0.973,0.9976,1.0183,1.0322,1.0472,1.0472,1.0472,1.0467,1.0554,1.0554,1.0641,1.0758,1.1035,1.1232,1.1344,1.1713,1.191,1.1883,1.1883,1.178,1.1688,2.061,2.002,1.9487,1.9288,1.9012,1.8827,1.8827,1.8827,1.8743,1.8481,1.8481,1.828,1.7785,1.7419,1.7239,1.7232,1.7232,1.7052,1.6588,1.6581,1.6298,1.5825,1.573,1.5255,1.4298,1.3962,1.3362,1.232,1.0726,0.9875,0.9517,0.8904,0.8479,0.8162,0.7979,0.768,0.7217,0.6799,0.6293,0.5885,0.5734,0.5305,0.4833,0.4821,0.4763,0.4594,0.4677,0.4712,0.473,0.4808,0.4834,0.4834,0.4834,0.4834,0.4918,0.533,0.5498,0.552,0.5914,0.5942,0.6042,0.6337,0.6539,0.6842,0.7039,0.7138,0.7241,0.7447,0.7547,0.7563,0.7573,0.7792,0.7773,0.7556,0.7414,0.7364,0.7353,0.707,0.6809,0.666,0.679,0.6795,0.6633,0.6964,0.717,0.7158,0.7401,0.7494,0.7494,0.7561,0.7927,0.8609,0.8655,0.8955,0.9555,0.9559,0.9662,0.9951,0.9951,0.9951,0.9951,0.9951,1.0033,1.0294,1.0294,1.0381,1.0661,1.0889,1.1021,1.1241,1.1472,1.1596,1.1585,1.1585,1.1389,1.1194,2.1007,2.0204,1.9487,1.9288,1.9012,1.8827,1.8827,1.8658,1.8566,1.8481,1.8102,1.7815,1.7714,1.7347,1.6972,1.677,1.677,1.6676,1.6588,1.6204,1.592,1.5832,1.5064,1.4586,1.4298,1.3471,1.2496,1.1277,1.0611,0.9901,0.9313,0.8811,0.8388,0.8076,0.7663,0.7248,0.6874,0.6394,0.5949,0.5662,0.5296,0.5002,0.489,0.4769,0.471,0.4679,0.4702,0.4749,0.4808,0.4828,0.4834,0.4834,0.4834,0.4834,0.483,0.5211,0.5307,0.5311,0.5632,0.5839,0.6042,0.6042,0.6339,0.6539,0.6537,0.6739,0.6945,0.6945,0.7347,0.7592,0.7511,0.758,0.7591,0.7282,0.7147,0.7069,0.6954,0.6917,0.685,0.6812,0.6812,0.6753,0.6585,0.6857,0.6876,0.675,0.7204,0.7585,0.7744,0.7974,0.8191,0.8259,0.8462,0.8755,0.9039,0.9043,0.9231,0.9432,0.9432,0.9432,0.9432,0.9602,0.9689,0.9777,0.9951,1.0125,1.0139,1.0361,1.0481,1.0501,1.0716,1.0826,1.0998,1.0998,1.1096,1.1194,2.095,2.0074,1.9296,1.9096,1.892,1.8735,1.8651,1.8566,1.8388,1.8202,1.7916,1.7636,1.7448,1.7066,1.6697,1.6421,1.6407,1.6305,1.6109,1.5825,1.554,1.5159,1.4586,1.4106,1.363,1.305,1.2164,1.0896,1.0384,0.9763,0.9125,0.8746,0.8394,0.7845,0.7567,0.7079,0.6492,0.6177,0.5828,0.5391,0.5147,0.4844,0.4663,0.4491,0.443,0.4371,0.4371,0.4499,0.4638,0.4638,0.4736,0.4834,0.4834,0.4834,0.4834,0.4937,0.5037,0.5037,0.5338,0.5541,0.5741,0.5942,0.6239,0.6437,0.6437,0.6539,0.6642,0.6742,0.7045,0.7186,0.718,0.7174,0.7197,0.6923,0.6763,0.6647,0.6659,0.6659,0.6666,0.6734,0.6749,0.6823,0.6805,0.6958,0.7002,0.6915,0.723,0.7493,0.7577,0.7831,0.8135,0.8417,0.8613,0.8813,0.9095,0.9095,0.9152,0.9262,0.9262,0.9262,0.9349,0.9432,0.9432,0.9432,0.9607,0.9694,0.9708,0.983,0.994,1.0036,1.0247,1.0439,1.0609,1.0609,1.0703,1.0801,2.0774,1.9919,1.916,1.8835,1.8735,1.8743,1.8574,1.8388,1.8195,1.7721,1.7628,1.7448,1.7073,1.669,1.6407,1.615,1.6137,1.5933,1.554,1.535,1.4968,1.4298,1.4106,1.3624,1.2861,1.2662,1.1986,1.0843,1.0136,0.9469,0.9039,0.8629,0.8164,0.7533,0.7344,0.6923,0.6227,0.6064,0.5658,0.5111,0.5077,0.4777,0.4309,0.4303,0.4236,0.4033,0.4033,0.4135,0.4338,0.4338,0.4537,0.4734,0.4834,0.4834,0.4834,0.4834,0.4834,0.4834,0.5039,0.524,0.534,0.5842,0.6239,0.6437,0.6437,0.6437,0.6437,0.6742,0.6742,0.6767,0.6795,0.6747,0.67,0.6532,0.6363,0.6312,0.6384,0.6356,0.6339,0.6458,0.668,0.6831,0.6933,0.7134,0.7307,0.7281,0.7303,0.7329,0.7351,0.7591,0.8029,0.8828,0.8773,0.891,0.917,0.9174,0.9174,0.9174,0.9174,0.9174,0.9174,0.9262,0.9262,0.9257,0.9257,0.9262,0.9275,0.9473,0.9574,0.9762,0.9957,1.0149,1.0314,1.0314,1.0413,1.0413,2.0823,2.0123,1.9458,1.8883,1.8651,1.8574,1.8481,1.8102,1.7807,1.7699,1.734,1.7073,1.6979,1.6602,1.6123,1.5933,1.5737,1.5547,1.554,1.4873,1.4394,1.4298,1.3534,1.2958,1.2764,1.1878,1.1082,1.0467,0.9816,0.934,0.9028,0.8124,0.7753,0.7681,0.6816,0.6396,0.6299,0.5596,0.5293,0.5099,0.4722,0.442,0.4409,0.4126,0.4033,0.4033,0.4033,0.4033,0.4135,0.4338,0.4438,0.4537,0.4736,0.4834,0.4834,0.4834,0.4834,0.4834,0.4834,0.5236,0.5636,0.5942,0.6239,0.6437,0.6437,0.6437,0.6437,0.6437,0.6639,0.6764,0.6504,0.6649,0.667,0.615,0.6047,0.6028,0.6009,0.6139,0.6291,0.6471,0.6702,0.6817,0.6791,0.7066,0.7172,0.7037,0.7399,0.7625,0.7679,0.7934,0.8178,0.8402,0.831,0.844,0.874,0.874,0.874,0.874,0.874,0.874,0.8744,0.8911,0.8999,0.8999,0.917,0.9262,0.9275,0.9473,0.9483,0.9482,0.9664,0.985,1.0019,1.0019,1.0216,1.0413,2.0638,1.9989,1.9351,1.8714,1.8574,1.8388,1.8102,1.7822,1.7628,1.734,1.716,1.6885,1.6602,1.6218,1.5927,1.5642,1.5255,1.4975,1.4873,1.449,1.4106,1.3624,1.3147,1.2565,1.198,1.1194,1.0507,0.992,0.9543,0.9112,0.8619,0.806,0.7674,0.7438,0.6654,0.6187,0.5937,0.5438,0.5039,0.4738,0.4535,0.4234,0.3934,0.3835,0.3732,0.3531,0.3531,0.3655,0.3888,0.3992,0.4198,0.4506,0.4606,0.4673,0.4834,0.4834,0.4834,0.4834,0.4834,0.5037,0.5438,0.5739,0.5939,0.6239,0.6337,0.6437,0.6437,0.6437,0.6537,0.6465,0.6317,0.6367,0.6319,0.5961,0.5972,0.599,0.5956,0.6066,0.6217,0.6539,0.6738,0.6877,0.7061,0.7286,0.7348,0.7364,0.7513,0.7587,0.7661,0.7735,0.7898,0.7875,0.8113,0.8166,0.8352,0.8344,0.8384,0.8384,0.8564,0.8568,0.8568,0.8652,0.874,0.874,0.8828,0.8966,0.9072,0.9171,0.9355,0.944,0.9623,0.9747,0.9821,0.9821,0.9821,0.992,2.0459,1.987,1.9257,1.8652,1.8481,1.8288,1.7721,1.7628,1.7441,1.7073,1.6979,1.6697,1.6231,1.5933,1.5642,1.5452,1.4879,1.4496,1.4106,1.401,1.3721,1.305,1.2662,1.198,1.1096,1.0511,1.0019,0.9628,0.9232,0.8733,0.8333,0.7939,0.7537,0.7039,0.6437,0.5937,0.5436,0.5138,0.4738,0.4438,0.4236,0.3935,0.3635,0.3534,0.3332,0.3233,0.3251,0.3386,0.3629,0.3646,0.3953,0.4355,0.446,0.4606,0.4736,0.4734,0.4834,0.4834,0.4834,0.5037,0.524,0.5438,0.5739,0.5939,0.6137,0.6237,0.6337,0.6337,0.6337,0.6374,0.6165,0.6105,0.607,0.5906,0.5823,0.5846,0.5889,0.5978,0.6129,0.6522,0.6665,0.6898,0.7227,0.7343,0.7409,0.7503,0.7503,0.7516,0.7648,0.7648,0.7665,0.7699,0.7894,0.8066,0.8158,0.8169,0.8174,0.817,0.8316,0.8476,0.8476,0.8476,0.8476,0.848,0.8432,0.8524,0.8659,0.8881,0.9049,0.918,0.9359,0.9426,0.9426,0.9426,0.9426,0.9529,2.0419,2.0055,1.9526,1.8691,1.828,1.7994,1.7721,1.7527,1.7239,1.7073,1.6777,1.6501,1.6252,1.575,1.5452,1.5172,1.4688,1.4106,1.3636,1.3147,1.2856,1.2861,1.1883,1.1194,1.0801,1.0019,0.9628,0.9628,0.8832,0.8336,0.8038,0.7537,0.6936,0.6437,0.5934,0.5536,0.524,0.4638,0.4438,0.4338,0.3831,0.3629,0.3528,0.3331,0.323,0.324,0.3315,0.3332,0.333,0.3699,0.3783,0.3835,0.4355,0.4506,0.4437,0.4736,0.4834,0.4834,0.4834,0.5037,0.524,0.524,0.5438,0.5636,0.5634,0.5839,0.6042,0.6042,0.6239,0.6399,0.6276,0.6162,0.6005,0.576,0.5624,0.5595,0.5728,0.5803,0.6007,0.6401,0.6535,0.6673,0.6813,0.6835,0.6935,0.7211,0.7214,0.7367,0.7787,0.7794,0.7862,0.8001,0.7917,0.8041,0.8322,0.8165,0.8087,0.8083,0.8019,0.7944,0.7944,0.7944,0.7944,0.7952,0.811,0.8185,0.8219,0.854,0.8675,0.8705,0.8765,0.8825,0.8825,0.8825,0.9027,0.9236,2.0167,1.9693,1.9106,1.8365,1.8001,1.7721,1.7527,1.7246,1.7066,1.6777,1.6501,1.6218,1.5845,1.5458,1.5077,1.4688,1.431,1.3829,1.3244,1.2958,1.257,1.2078,1.1487,1.0998,1.0609,0.992,0.9426,0.9126,0.8435,0.8041,0.7743,0.7241,0.6739,0.6339,0.5908,0.5533,0.5335,0.4775,0.4457,0.4208,0.3795,0.3565,0.333,0.323,0.323,0.3245,0.3246,0.3399,0.3417,0.3559,0.3663,0.3857,0.4288,0.4446,0.4588,0.49,0.5004,0.5004,0.5004,0.4922,0.5037,0.514,0.524,0.5438,0.5536,0.5636,0.5737,0.5737,0.5837,0.5904,0.5801,0.5937,0.595,0.5704,0.5761,0.5752,0.5797,0.5766,0.5883,0.6277,0.6495,0.6626,0.6858,0.704,0.7085,0.7183,0.7183,0.7302,0.7454,0.7458,0.7483,0.7537,0.7635,0.7824,0.8013,0.7959,0.7973,0.7973,0.8092,0.8154,0.8154,0.8154,0.8154,0.8158,0.8221,0.8311,0.8415,0.8542,0.865,0.8739,0.8803,0.8825,0.8825,0.8825,0.8825,0.8928,1.9773,1.9319,1.876,1.8054,1.7815,1.7628,1.7246,1.7066,1.6885,1.6494,1.6218,1.5927,1.554,1.5172,1.479,1.4298,1.4022,1.3545,1.305,1.2565,1.2078,1.1492,1.11,1.0708,1.0117,0.9624,0.9126,0.8627,0.8137,0.7766,0.751,0.7107,0.6619,0.6248,0.6019,0.564,0.5231,0.4765,0.4439,0.4182,0.3765,0.3427,0.3286,0.3273,0.3268,0.3285,0.3313,0.3467,0.3474,0.3512,0.3623,0.3825,0.4046,0.4426,0.4786,0.5002,0.5108,0.5108,0.5108,0.5016,0.492,0.5127,0.5129,0.522,0.539,0.5484,0.5475,0.5443,0.5536,0.5615,0.5548,0.5704,0.5754,0.5681,0.5667,0.5776,0.5869,0.5802,0.589,0.629,0.6375,0.6571,0.6798,0.6889,0.6939,0.7039,0.7039,0.7138,0.7238,0.7238,0.7238,0.7238,0.7341,0.7496,0.7589,0.7828,0.7851,0.7848,0.7991,0.8059,0.8059,0.8059,0.8059,0.8063,0.811,0.8196,0.8401,0.8355,0.8434,0.8528,0.8528,0.8528,0.8528,0.8528,0.8627,0.8634,1.9129,1.8964,1.876,1.7875,1.7721,1.7542,1.7073,1.6979,1.6791,1.6319,1.5927,1.5737,1.554,1.4975,1.4592,1.4298,1.3823,1.3249,1.2861,1.178,1.1194,1.1194,1.0703,1.0117,0.9628,0.9027,0.863,0.8432,0.7846,0.7519,0.7446,0.7141,0.669,0.5955,0.5958,0.564,0.511,0.4581,0.4262,0.4262,0.3624,0.3413,0.3409,0.3367,0.335,0.3372,0.353,0.3536,0.3482,0.3561,0.3548,0.3497,0.3826,0.4319,0.4788,0.5004,0.511,0.511,0.511,0.511,0.511,0.5108,0.5108,0.5084,0.4994,0.518,0.5362,0.5262,0.5438,0.5634,0.5634,0.5556,0.5489,0.5489,0.5401,0.5426,0.5618,0.5713,0.5849,0.6255,0.6268,0.6314,0.6426,0.6437,0.6539,0.6742,0.6845,0.6942,0.7138,0.7238,0.7238,0.7238,0.7238,0.7238,0.7238,0.7593,0.7814,0.7811,0.7668,0.7604,0.7604,0.7604,0.7604,0.7611,0.775,0.7814,0.7824,0.7977,0.8038,0.8038,0.8038,0.8038,0.8038,0.8041,0.8137,0.8457,1.9082,1.8494,1.8021,1.7744,1.7448,1.7167,1.6979,1.6697,1.6312,1.5927,1.5737,1.5445,1.4975,1.4592,1.4208,1.3823,1.3244,1.2662,1.1785,1.1394,1.0998,1.0408,1.0216,0.992,0.9628,0.9245,0.8903,0.8603,0.7895,0.755,0.7482,0.6857,0.635,0.596,0.5815,0.5526,0.51,0.4613,0.4387,0.4341,0.3688,0.3447,0.3414,0.3428,0.3417,0.3517,0.354,0.3572,0.3555,0.3579,0.3575,0.3671,0.3895,0.4324,0.4854,0.4966,0.5078,0.53,0.53,0.53,0.5269,0.5141,0.5108,0.51,0.5073,0.5122,0.5068,0.5041,0.5082,0.5035,0.5035,0.5214,0.5298,0.5298,0.541,0.5441,0.5538,0.5475,0.5465,0.5672,0.5781,0.5723,0.5824,0.6039,0.6142,0.6242,0.6439,0.6537,0.6637,0.6637,0.6637,0.6637,0.6839,0.6942,0.6942,0.7198,0.7375,0.7375,0.7537,0.7517,0.7315,0.7517,0.7517,0.7318,0.7359,0.7375,0.7378,0.7419,0.754,0.7743,0.7743,0.7842,0.8052,0.8163,0.8302,0.8323,1.8486,1.8044,1.7636,1.7441,1.7167,1.6885,1.6697,1.6312,1.5927,1.573,1.535,1.4975,1.4592,1.4304,1.3919,1.3249,1.2565,1.1883,1.1194,1.09,1.0507,0.9821,0.9793,0.963,0.943,0.9131,0.8805,0.8453,0.7922,0.7569,0.7514,0.6768,0.6363,0.6084,0.5816,0.5513,0.5192,0.4684,0.4455,0.4416,0.3753,0.3512,0.3484,0.3507,0.3501,0.3491,0.3561,0.3587,0.3587,0.3587,0.3587,0.3699,0.3924,0.426,0.4594,0.4819,0.5043,0.5268,0.5382,0.5382,0.5355,0.5243,0.5216,0.5206,0.5169,0.512,0.5059,0.4986,0.4928,0.4877,0.4841,0.4937,0.5037,0.5037,0.5189,0.525,0.5351,0.5298,0.5377,0.5539,0.5546,0.557,0.5629,0.5737,0.5839,0.5839,0.6139,0.6239,0.6239,0.6337,0.6437,0.6437,0.6539,0.6639,0.6639,0.6839,0.7039,0.7238,0.7341,0.7341,0.7238,0.7341,0.7341,0.7238,0.7238,0.7238,0.7238,0.7238,0.7338,0.7444,0.7444,0.7575,0.7737,0.7929,0.7994,0.817,1.7721,1.7628,1.7535,1.7073,1.6979,1.6791,1.6224,1.5933,1.5737,1.5445,1.4975,1.4592,1.4298,1.4022,1.3539,1.2861,1.1785,1.1198,1.1096,1.0413,0.983,0.9648,0.9501,0.9293,0.9021,0.8816,0.8474,0.7979,0.7784,0.7532,0.7431,0.6777,0.6396,0.6274,0.5935,0.5601,0.527,0.4706,0.4479,0.4369,0.3811,0.3587,0.3587,0.3587,0.3587,0.3587,0.3587,0.3587,0.3587,0.3587,0.3699,0.3699,0.3924,0.4036,0.4148,0.4707,0.4931,0.5043,0.527,0.5382,0.5382,0.5382,0.5382,0.5359,0.5275,0.5251,0.5196,0.502,0.4977,0.4943,0.4851,0.4834,0.4834,0.4834,0.4834,0.4834,0.514,0.514,0.524,0.5536,0.5536,0.5536,0.5536,0.5536,0.5536,0.5634,0.5839,0.5942,0.5942,0.6237,0.6337,0.6337,0.6337,0.6337,0.6337,0.6337,0.6637,0.7138,0.7138,0.7138,0.7138,0.7138,0.7138,0.7138,0.7138,0.7138,0.7138,0.7138,0.7138,0.7138,0.7138,0.722,0.7446,0.7458,0.7651,0.7998,1.7721,1.7448,1.7073,1.6979,1.6697,1.6218,1.5927,1.5737,1.535,1.4975,1.4592,1.4298,1.4022,1.3539,1.3152,1.2861,1.1785,1.0998,1.0609,1.0019,0.959,0.9524,0.906,0.8891,0.8821,0.8721,0.8525,0.8236,0.7804,0.7538,0.7564,0.6682,0.6364,0.6274,0.5714,0.5268,0.4931,0.4592,0.4369,0.4036,0.3699,0.3587,0.3587,0.3587,0.3587,0.3587,0.3587,0.3587,0.3587,0.3813,0.4038,0.4262,0.437,0.4482,0.4707,0.4817,0.5043,0.5268,0.5382,0.5382,0.5382,0.5382,0.5382,0.5375,0.5357,0.5296,0.5212,0.5102,0.5022,0.4943,0.4851,0.4834,0.4834,0.4834,0.4834,0.4834,0.4834,0.4935,0.4935,0.4935,0.4935,0.4935,0.4935,0.5138,0.5338,0.5534,0.5636,0.5737,0.5737,0.5737,0.5737,0.5737,0.5737,0.5737,0.5737,0.5737,0.6034,0.6537,0.6742,0.6739,0.6537,0.6842,0.6739,0.6537,0.6537,0.6537,0.6537,0.6537,0.6739,0.6842,0.6842,0.7122,0.7455,0.7565,0.7687,0.7816,1.7384,1.7167,1.6885,1.6697,1.6312,1.5927,1.5737,1.5356,1.4968,1.4592,1.4304,1.3925,1.3539,1.3152,1.2662,1.2078,1.1292,1.0605,1.0019,0.9705,0.9392,0.9176,0.8816,0.8656,0.8494,0.8237,0.8053,0.7947,0.7686,0.7496,0.716,0.6606,0.6163,0.6049,0.5605,0.5268,0.4929,0.4592,0.4258,0.3924,0.3699,0.3587,0.3587,0.3587,0.3587,0.3587,0.3701,0.3924,0.4038,0.4147,0.437,0.4484,0.448,0.4592,0.4706,0.4817,0.5043,0.5156,0.5382,0.5382,0.5382,0.5382,0.5382,0.5382,0.5382,0.5345,0.5284,0.5192,0.5135,0.5073,0.4981,0.4928,0.49,0.49,0.4863,0.4834,0.4834,0.4834,0.4834,0.4834,0.4834,0.4834,0.4834,0.4937,0.5037,0.5236,0.5336,0.5438,0.5438,0.5536,0.5636,0.5636,0.5636,0.5636,0.5636,0.5636,0.5734,0.6037,0.6242,0.6342,0.6239,0.6439,0.6539,0.6437,0.6437,0.6437,0.6437,0.6437,0.6437,0.6645,0.6707,0.6907,0.7139,0.7269,0.7504,0.7731,1.7108,1.6921,1.6697,1.6224,1.5927,1.5642,1.535,1.4975,1.4496,1.4298,1.3925,1.3539,1.3147,1.2759,1.2175,1.1292,1.0703,1.013,0.9669,0.9505,0.9203,0.8752,0.8683,0.8507,0.8212,0.7773,0.7607,0.7607,0.7607,0.7271,0.6715,0.6383,0.6161,0.5822,0.5491,0.5268,0.4929,0.4704,0.437,0.4036,0.3813,0.3699,0.3699,0.3587,0.3587,0.3699,0.3924,0.4262,0.4597,0.4594,0.4592,0.4704,0.4704,0.4704,0.4704,0.4931,0.4931,0.5043,0.527,0.5382,0.5382,0.5382,0.5382,0.5382,0.5382,0.5382,0.5355,0.5263,0.5245,0.5216,0.5124,0.5047,0.4996,0.4996,0.493,0.4881,0.4881,0.4881,0.4881,0.4881,0.4881,0.4881,0.4881,0.4881,0.4875,0.4859,0.5061,0.5157,0.514,0.5336,0.5436,0.5436,0.5436,0.5436,0.5436,0.5436,0.5436,0.5436,0.5739,0.5842,0.5942,0.6137,0.6237,0.6237,0.6258,0.6366,0.6369,0.639,0.6398,0.651,0.6611,0.6725,0.685,0.697,0.7295,0.7604,1.7084,1.6587,1.6224,1.5927,1.5635,1.5356,1.4879,1.4586,1.4304,1.4027,1.3539,1.3147,1.2861,1.198,1.1389,1.1194,1.0511,0.9983,0.9734,0.9368,0.9102,0.9062,0.8582,0.8231,0.8017,0.7709,0.7607,0.7607,0.7379,0.7046,0.6715,0.6383,0.6161,0.5822,0.5491,0.5268,0.4929,0.4817,0.4706,0.4369,0.4036,0.3924,0.3924,0.3699,0.3701,0.3924,0.4036,0.4372,0.4819,0.4817,0.5043,0.5268,0.5268,0.5268,0.5268,0.527,0.5382,0.5382,0.5382,0.5382,0.5382,0.5382,0.5382,0.5382,0.5382,0.5382,0.5355,0.5263,0.5245,0.5216,0.5124,0.5098,0.509,0.509,0.5079,0.5071,0.5071,0.5071,0.5071,0.5071,0.5071,0.5071,0.5071,0.5071,0.5039,0.4959,0.5056,0.5022,0.4839,0.4935,0.4935,0.4935,0.4935,0.4935,0.4935,0.4935,0.4935,0.4935,0.514,0.5441,0.5636,0.5737,0.5737,0.5741,0.5836,0.5982,0.6197,0.6401,0.6545,0.6755,0.6771,0.6853,0.6975,0.7089,0.7254,0.7265,1.6926,1.656,1.6128,1.5668,1.535,1.4975,1.479,1.431,1.4022,1.3732,1.3249,1.2856,1.2565,1.178,1.1096,1.0806,1.0207,0.9803,0.9474,0.9246,0.8991,0.8918,0.8352,0.8097,0.8045,0.7601,0.7379,0.7379,0.7265,0.6935,0.6495,0.6386,0.6051,0.5603,0.5493,0.5268,0.4929,0.4929,0.4706,0.4479,0.4369,0.4148,0.4036,0.3924,0.3924,0.4038,0.4372,0.4819,0.5156,0.5156,0.5156,0.5156,0.5156,0.5043,0.4929,0.4929,0.5043,0.5156,0.5156,0.5268,0.5382,0.5382,0.5382,0.5382,0.5382,0.5382,0.5369,0.5331,0.532,0.5198,0.5047,0.5,0.4966,0.4966,0.4925,0.4894,0.5108,0.5108,0.5108,0.5108,0.5108,0.5108,0.5108,0.5108,0.5092,0.5051,0.5002,0.4953,0.4914,0.4861,0.4834,0.4834,0.4834,0.4834,0.4834,0.4834,0.4834,0.4834,0.4937,0.5138,0.5338,0.5536,0.5667,0.5727,0.5774,0.5935,0.5996,0.6044,0.6167,0.6278,0.634,0.6542,0.6866,0.7135,0.7154,0.7154]},{"header":{"parameterUnit":"m.s-1","parameterCategory":1,"la1":30.6,"la2":28.766,"lo1":-90.7593,"lo2":-88.6598,"dy":0.0162,"dx":0.0183,"nx":116,"ny":114,"refTime":"2023-10-01T18:00:00:Z","depth":0,"parameterNumber":3,"parameterNumberName":"V-component_of_WINDS"},"data":[0.0,0.0,0.0,0.0,0.0,0.0,0.0,0.0,0.0,0.0,0.0,0.0,0.0,0.0,0.0,0.0,0.0,0.0,0.0,0.0,0.0,0.0,0.0,0.0,0.0,0.0,0.0,0.0,0.0,0.0,0.0,0.0,0.0,0.0,0.0,0.0,0.0,0.0,0.0,0.0,0.0,0.0,0.0,0.0,0.0,0.0,0.0,0.0,0.0,0.0,0.0,0.0,0.0,0.0,0.0,0.0,0.0,0.0,0.0,0.0,0.0,0.0,0.0,0.0,0.0,0.0,0.0,0.0,0.0,0.0,0.0,0.0,0.0,0.0,0.0,0.0,0.0,0.0,0.0,0.0,0.0,0.0,0.0,0.0,0.0,0.0,0.0,0.0,0.0,0.0,0.0,0.0,0.0,0.0,0.0,0.0,0.0,0.0,0.0,0.0,0.0,0.0,0.0,0.0,0.0,0.0,0.0,0.0,0.0,0.0,0.0,0.0,0.0,0.0,0.0,0.0,0.0,0.0,0.0,0.0,0.0,0.0,0.0,0.0,0.0,0.0,0.0,0.0,0.0,0.0,0.0,0.0,0.0,0.0,0.0,0.0,0.0,0.0,0.0,0.0,0.0,0.0,0.0,0.0,0.0,0.0,0.0,0.0,0.0,0.0,0.0,0.0,0.0,0.0,0.0,0.0,0.0,0.0,0.0,0.0,0.0,0.0,0.0,0.0,0.0,0.0,0.0,0.0,0.0,0.0,0.0,0.0,0.0,0.0,0.0,0.0,0.0,0.0,0.0,0.0,0.0,0.0,0.0,0.0,0.0,0.0,0.0,0.0,0.0,0.0,0.0,0.0,0.0,0.0,0.0,0.0,0.0,0.0,0.0,0.0,0.0,0.0,0.0,0.0,0.0,0.0,0.0,0.0,0.0,0.0,0.0,0.0,0.0,0.0,0.0,0.0,0.0,0.0,0.0,0.0,0.0,0.0,0.0,0.0,0.0,0.0,0.0,0.0,0.0,0.0,0.0,0.0,0.0,0.0,0.0,0.0,0.0,0.0,0.0,0.0,0.0,0.0,0.0,0.0,0.0,0.0,0.0,0.0,0.0,0.0,0.0,0.0,0.0,0.0,0.0,0.0,0.0,0.0,0.0,0.0,0.0,0.0,0.0,0.0,0.0,0.0,0.0,0.0,0.0,0.0,0.0,0.0,0.0,0.0,0.0,0.0,0.0,0.0,0.0,0.0,0.0,0.0,0.0,0.0,0.0,0.0,0.0,0.0,0.0,0.0,0.0,0.0,0.0,0.0,0.0,0.0,0.0,0.0,0.0,0.0,0.0,0.0,0.0,0.0,0.0,0.0,0.0,0.0,0.0,0.0,0.0,0.0,0.0,0.0,0.0,0.0,0.0,0.0,0.0,0.0,0.0,0.0,0.0,0.0,0.0,0.0,0.0,0.0,0.0,0.0,0.0,0.0,0.0,0.0,0.0,0.0,0.0,0.0,0.0,0.0,0.0,0.0,0.0,0.0,0.0,0.0,0.0,0.0,0.0,0.0,0.0,0.0,0.0,0.0,0.0,0.0,0.0,0.0,0.0,0.0,0.0,0.0,0.0,0.0,0.0,0.0,0.0,0.0,0.0,0.0,0.0,0.0,0.0,0.0,0.0,0.0,0.0,0.0,0.0,0.0,0.0,0.0,0.0,0.0,0.0,0.0,0.0,0.0,0.0,0.0,0.0,0.0,0.0,0.0,0.0,0.0,0.0,0.0,0.0,0.0,0.0,0.0,0.0,0.0,0.0,0.0,0.0,0.0,0.0,0.0,0.0,0.0,0.0,0.0,0.0,0.0,0.0,0.0,0.0,0.0,0.0,0.0,0.0,0.0,0.0,0.0,0.0,0.0,0.0,0.0,0.0,0.0,0.0,0.0,0.0,0.0,0.0,0.0,0.0,0.0,0.0,0.0,0.0,0.0,0.0,0.0,0.0,0.0,0.0,0.0,0.0,0.0,0.0,0.0,0.0,0.0,0.0,0.0,0.0,0.0,0.0,0.0,0.0,0.0,0.0,0.0,0.0,0.0,0.0,0.0,0.0,0.0,0.0,0.0,0.0,0.0,0.0,0.0,0.0,0.0,0.0,0.0,0.0,0.0,0.0,0.0,0.0,0.0,0.0,0.0,0.0,0.0,0.0,0.0,0.0,0.0,0.0,0.0,0.0,0.0,0.0,0.0,0.0,0.0,0.0,0.0,0.0,0.0,0.0,0.0,0.0,0.0,0.0,0.0,0.0,0.0,0.0,0.0,0.0,0.0,0.0,0.0,0.0,0.0,0.0,0.0,0.0,0.0,0.0,0.0,0.0,0.0,0.0,0.0,0.0,0.0,0.0,0.0,0.0,0.0,0.0,0.0,0.0,0.0,0.0,0.0,0.0,0.0,0.0,0.0,0.0,0.0,0.0,0.0,0.0,0.0,0.0,0.0,0.0,0.0,0.0,0.0,0.0,0.0,0.0,0.0,0.0,0.0,0.0,0.0,0.0,0.0,0.0,0.0,0.0,0.0,0.0,0.0,0.0,0.0,0.0,0.0,0.0,0.0,0.0,0.0,0.0,0.0,0.0,0.0,0.0,0.0,0.0,0.0,0.0,0.0,0.0,0.0,0.0,0.0,0.0,0.0,0.0,0.0,0.0,0.0,0.0,0.0,0.0,0.0,0.0,0.0,0.0,0.0,0.0,0.0,0.0,0.0,0.0,0.0,0.0,0.0,0.0,0.0,0.0,0.0,0.0,0.0,0.0,0.0,0.0,0.0,0.0,0.0,0.0,0.0,0.0,0.0,0.0,0.0,0.0,0.0,0.0,0.0,0.0,0.0,0.0,0.0,0.0,0.0,0.0,0.0,0.0,0.0,0.0,0.0,0.0,0.0,0.0,0.0,0.0,0.0,0.0,0.0,0.0,0.0,0.0,0.0,0.0,0.0,0.0,0.0,0.0,0.0,0.0,0.0,0.0,0.0,0.0,0.0,0.0,0.0,0.0,0.0,0.0,0.0,0.0,0.0,0.0,0.0,0.0,0.0,0.0,0.0,0.0,0.0,0.0,0.0,0.0,0.0,0.0,0.0,0.0,0.0,0.0,0.0,0.0,0.0,0.0,0.0,0.0,0.0,0.0,0.0,0.0,0.0,0.0,0.0,0.0,0.0,0.0,0.0,0.0,0.0,0.0,0.0,0.0,0.0,0.0,0.0,0.0,0.0,0.0,0.0,0.0,0.0,0.0,0.0,0.0,0.0,0.0,0.0,0.0,0.0,0.0,0.0,0.0,0.0,0.0,0.0,0.0,0.0,0.0,0.0,0.0,0.0,0.0,0.0,0.0,0.0,0.0,0.0,0.0,0.0,0.0,0.0,0.0,0.0,0.0,0.0,0.0,0.0,0.0,0.0,0.0,0.0,0.0,0.0,0.0,0.0,0.0,0.0,0.0,0.0,0.0,0.0,0.0,0.0,0.0,0.0,0.0,0.0,0.0,0.0,0.0,0.0,0.0,0.0,0.0,0.0,0.0,0.0,0.0,0.0,0.0,0.0,0.0,0.0,0.0,0.0,0.0,0.0,0.0,0.0,0.0,0.0,0.0,0.0,0.0,0.0,0.0,0.0,0.0,0.0,0.0,0.0,0.0,0.0,0.0,0.0,0.0,0.0,0.0,0.0,0.0,0.0,0.0,0.0,0.0,0.0,0.0,0.0,0.0,0.0,0.0,0.0,0.0,0.0,0.0,0.0,0.0,0.0,0.0,0.0,0.0,0.0,0.0,0.0,0.0,0.0,0.0,0.0,0.0,0.0,0.0,0.0,0.0,0.0,0.0,0.0,0.0,0.0,0.0,0.0,0.0,0.0,0.0,0.0,0.0,0.0,0.0,0.0,0.0,0.0,0.0,0.0,0.0,0.0,0.0,0.0,0.0,0.0,0.0,0.0,0.0,0.0,0.0,0.0,0.0,0.0,0.0,0.0,0.0,0.0,0.0,0.0,0.0,0.0,0.0,0.0,0.0,0.0,0.0,0.0,0.0,0.0,0.0,0.0,0.0,0.0,0.0,0.0,0.0,0.0,0.0,0.0,0.0,0.0,0.0,0.0,0.0,0.0,0.0,0.0,0.0,0.0,0.0,0.0,0.0,0.0,0.0,0.0,0.0,0.0,0.0,0.0,0.0,0.0,0.0,0.0,0.0,0.0,0.0,0.0,0.0,0.0,0.0,0.0,0.0,0.0,0.0,0.0,0.0,0.0,0.0,0.0,0.0,0.0,0.0,0.0,0.0,0.0,0.0,0.0,0.0,0.0,0.0,0.0,0.0,0.0,0.0,0.0,0.0,0.0,0.0,0.0,0.0,0.0,0.0,0.0,0.0,0.0,0.0,0.0,0.0,0.0,0.0,0.0,0.0,0.0,0.0,0.0,0.0,0.0,0.0,0.0,0.0,0.0,0.0,0.0,0.0,0.0,0.0,0.0,0.0,0.0,0.0,0.0,0.0,0.0,0.0,0.0,0.0,0.0,0.0,0.0,0.0,0.0,0.0,0.0,0.0,0.0,0.0,0.0,0.0,0.0,0.0,0.0,0.0,0.0,0.0,0.0,0.0,0.0,0.0,0.0,0.0,0.0,0.0,0.0,0.0,0.0,0.0,0.0,0.0,0.0,0.0,0.0,0.0,0.0,0.0,0.0,0.0,0.0,0.0,0.0,0.0,0.0,0.0,0.0,0.0,0.0,0.0,0.0,0.0,0.0,0.0,0.0,0.0,0.0,0.0,0.0,0.0,0.0,0.0,0.0,0.0,0.0,0.0,0.0,0.0,0.0,0.0,0.0,0.0,0.0,0.0,0.0,0.0,0.0,0.0,0.0,0.0,0.0,0.0,0.0,0.0,0.0,0.0,0.0,0.0,0.0,0.0,0.0,0.0,0.0,0.0,0.0,0.0,0.0,0.0,0.0,0.0,0.0,0.0,0.0,0.0,0.0,0.0,0.0,0.0,0.0,0.0,0.0,0.0,0.0,0.0,0.0,0.0,0.0,0.0,0.0,0.0,0.0,0.0,0.0,0.0,0.0,0.0,0.0,0.0,0.0,0.0,0.0,0.0,0.0,0.0,0.0,0.0,0.0,0.0,0.0,0.0,0.0,0.0,0.0,0.0,0.0,0.0,0.0,0.0,0.0,0.0,0.0,0.0,0.0,0.0,0.0,0.0,0.0,0.0,0.0,0.0,0.0,0.0,0.0,0.0,0.0,0.0,0.0,0.0,0.0,0.0,0.0,0.0,0.0,0.0,0.0,0.0,0.0,0.0,0.0,0.0,0.0,0.0,0.0,0.0,0.0,0.0,0.0,0.0,0.0,0.0,0.0,0.0,0.0,0.0,0.0,0.0,0.0,0.0,0.0,0.0,0.0,0.0,0.0,0.0,0.0,0.0,0.0,0.0,0.0,0.0,0.0,0.0,0.0,0.0,0.0,0.0,0.0,0.0,0.0,0.0,0.0,0.0,0.0,0.0,0.0,0.0,0.0,0.0,0.0,0.0,0.0,0.0,0.0,0.0,0.0,0.0,0.0,0.0,0.0,0.0,0.0,0.0,0.0,0.0,0.0,0.0,0.0,0.0,0.0,0.0,0.0,0.0,0.0,0.0,0.0,0.0,0.0,0.0,0.0,0.0,0.0,0.0,0.0,0.0,0.0,0.0,0.0,0.0,0.0,0.0,0.0,0.0,0.0,0.0,0.0,0.0,0.0,0.0,0.0,0.0,0.0,0.0,0.0,0.0,0.0,0.0,0.0,0.0,0.0,0.0,0.0,0.0,0.0,0.0,0.0,0.0,0.0,0.0,0.0,0.0,0.0,0.0,0.0,0.0,0.0,0.0,0.0,0.0,0.0,0.0,0.0,0.0,0.0,0.0,0.0,0.0,0.0,0.0,0.0,0.0,0.0,0.0,0.0,0.0,0.0,0.0,0.0,0.0,0.0,0.0,0.0,0.0,0.0,0.0,0.0,0.0,0.0,0.0,0.0,0.0,0.0,0.0,0.0,0.0,0.0,0.0,0.0,0.0,0.0,0.0,0.0,0.0,0.0,0.0,0.0,0.0,0.0,1.6483,1.4877,0.0,0.0,0.0,0.0,0.0,0.0,0.0,0.0,0.0,0.0,0.0,0.0,0.0,0.0,0.0,0.0,0.0,0.0,0.0,0.0,0.0,0.0,0.0,0.0,0.0,0.0,0.0,0.0,0.0,0.0,0.0,0.0,0.0,0.0,0.0,0.0,0.0,-0.75,-0.8121,-0.9294,-1.0933,-1.0098,-0.9037,-0.7854,0.0,0.0,0.0,0.0,0.0,0.0,0.0,0.0,0.0,0.0,0.0,0.0,0.0,0.0,0.0,0.0,0.0,0.0,0.0,0.0,0.0,0.0,0.0,0.0,0.0,0.0,0.0,0.0,0.0,0.0,0.0,0.0,0.0,0.0,0.0,0.0,0.0,0.0,0.0,0.0,0.0,0.0,0.0,0.0,0.0,0.0,0.0,0.0,0.0,0.0,0.0,0.0,0.0,0.0,0.0,0.0,0.0,0.0,0.0,0.0,0.0,0.0,0.0,0.0,0.0,0.0,0.0,0.0,0.0,0.0,2.0216,1.8369,0.0,0.0,0.0,0.0,0.0,0.0,0.0,0.0,0.0,0.0,0.0,0.0,0.0,0.0,0.0,0.0,0.0,0.0,0.0,0.0,0.0,0.0,0.0,-0.7654,-0.7741,-0.7894,-0.7888,-0.7969,0.0,0.0,0.0,0.0,0.0,0.0,0.0,-0.7679,-0.8337,-0.8961,-0.8762,-0.9646,-1.148,-0.991,-0.8077,-0.6193,-0.8707,0.0,0.0,0.0,0.0,0.0,0.0,0.0,0.0,0.0,0.0,0.0,0.0,0.0,0.0,0.0,0.0,0.0,0.0,0.0,0.0,0.0,0.0,0.0,0.0,0.0,0.0,0.0,0.0,0.0,0.0,0.0,0.0,0.0,0.0,0.0,0.0,0.0,0.0,0.0,0.0,0.0,0.0,0.0,0.0,0.0,0.0,0.0,0.0,0.0,0.0,0.0,0.0,0.0,0.0,0.0,0.0,0.0,0.0,0.0,0.0,0.0,0.0,0.0,2.7089,2.7746,2.7872,2.7872,2.7719,2.7411,2.494,2.2991,2.1454,2.0182,0.0,0.0,0.0,0.0,0.0,0.0,0.0,0.0,0.0,0.0,0.0,0.0,0.0,0.0,0.0,0.0,0.0,0.0,0.0,-0.7692,-0.8221,-0.8344,-0.8671,-0.9422,-0.9247,-0.9255,-0.9682,0.0,0.0,0.0,0.0,0.0,-0.8601,-0.9087,-0.9967,-1.1279,-0.4917,-0.2257,-0.3018,0.5261,0.9252,0.8872,-0.6375,-1.2354,-1.0984,0.0,0.0,0.0,0.0,0.0,0.0,0.0,0.0,0.0,0.0,0.0,0.0,0.0,0.0,0.0,0.0,0.0,0.0,0.0,0.0,0.0,0.0,0.0,0.0,0.0,0.0,0.0,0.0,0.0,0.0,0.0,0.0,0.0,0.0,0.0,0.0,0.0,0.0,0.0,0.0,0.0,-0.7058,-0.749,0.0,0.0,0.0,0.0,0.0,0.0,0.0,0.0,0.0,0.0,0.0,0.0,0.0,2.5298,2.7072,2.7976,2.9014,3.0176,3.0876,3.1513,3.2107,3.2107,3.2092,3.2023,3.1597,0.0,2.4447,2.3147,0.0,0.0,0.0,0.0,0.0,0.0,0.0,0.0,0.0,0.0,0.0,0.0,0.0,0.0,0.0,0.0,0.0,0.0,0.0,0.0,0.0,-0.9229,-0.988,-1.0545,-1.0512,-1.0596,-1.0828,-0.9981,0.0,0.0,0.0,-0.9298,-0.9849,-1.058,-0.9319,-0.601,-0.3242,0.0653,0.5689,1.0231,1.2307,1.1913,0.3666,0.0693,0.1903,0.1744,0.0,0.0,0.0,0.0,0.0,0.0,0.0,0.0,0.0,0.0,0.0,0.0,0.0,0.0,0.0,0.0,0.0,0.0,0.0,0.0,0.0,0.0,0.0,0.0,0.0,0.0,0.0,0.0,0.0,0.0,0.0,0.0,0.0,0.0,0.0,0.0,0.0,0.0,0.0,-0.4216,0.0766,0.4101,0.7118,1.1312,0.0,0.0,0.0,0.0,0.0,0.0,0.0,0.0,0.0,2.7572,2.871,2.9779,3.0656,3.1722,3.2565,3.3169,3.38,3.446,3.5142,3.473,3.4691,3.4999,3.4604,3.2835,3.0154,2.7907,2.566,2.3599,0.0,0.0,0.0,0.0,2.1827,2.2762,0.0,0.0,0.0,0.0,0.0,0.0,0.0,0.0,0.0,0.0,0.0,0.0,-0.9291,-1.0351,-1.1263,-1.2007,-1.2054,-1.2175,-1.2364,-1.1335,-1.0781,-1.0914,-1.0429,-1.0446,-1.1142,-0.9967,-0.5764,0.1566,0.3536,0.8137,1.5171,1.8198,1.9586,1.9515,1.8615,1.6002,1.2264,1.1474,1.0848,0.9983,0.0,0.0,0.0,0.0,0.0,0.0,0.0,0.0,0.0,0.0,0.0,0.0,0.0,0.0,0.0,0.0,0.0,0.0,0.0,0.0,0.0,0.0,0.0,0.0,0.0,0.0,0.0,0.0,0.0,0.0,0.0,0.0,0.0,0.0,0.0,0.0,0.0,0.2509,0.8885,1.4045,1.6118,1.9148,0.0,0.0,0.0,0.0,0.0,0.0,2.729,2.9255,3.0571,3.0924,3.2465,3.3363,3.3505,3.4739,3.5444,3.5566,3.627,3.699,3.7678,3.7174,3.7206,3.7556,3.691,3.6134,3.5163,3.2088,2.936,2.7083,2.6392,2.5387,2.4422,2.4804,2.543,2.6188,0.0,0.0,0.0,0.0,0.0,0.0,0.0,0.0,0.0,0.0,0.0,-0.9264,-1.0572,-1.1655,-1.2875,-1.4274,-1.4063,-1.4165,-1.48,-1.3303,-1.2383,-1.2383,-1.1627,-1.1679,-1.2656,-0.5809,0.1852,1.0196,1.9988,2.5099,2.5838,3.5518,3.9918,3.9685,3.888,2.8799,1.2317,1.1204,1.0655,1.0518,0.9649,0.0,0.0,0.0,0.0,0.0,0.0,0.0,0.0,0.0,0.0,0.0,0.0,0.0,0.0,0.0,0.0,0.0,0.0,0.0,0.0,0.0,0.0,0.0,0.0,0.0,0.0,0.0,0.0,0.0,0.0,0.0,0.0,0.0,0.0,0.0,0.0,0.0,0.0,1.6163,2.3191,0.0,0.0,0.0,0.0,2.9432,2.9512,3.0373,3.2402,3.2529,3.3168,3.4514,3.4784,3.5154,3.5652,3.6548,3.7255,3.7742,3.8478,3.9214,3.9962,4.0003,4.0063,4.0123,3.9548,3.8893,3.797,3.4596,3.2352,3.0957,3.026,2.953,2.8881,2.8912,2.9326,2.9974,0.0,0.0,0.0,0.0,0.0,0.0,0.0,-0.6434,-0.7072,-0.7605,-0.9054,-1.0498,-1.1767,-1.3447,-1.5039,-1.6234,-1.6242,-1.6216,-1.6265,-1.5018,-1.4131,-1.3941,-0.8602,-0.325,0.1815,0.4486,1.0755,2.0849,2.4821,3.0238,3.7045,4.1135,4.3013,4.2894,4.205,3.802,3.1638,2.8487,2.6268,2.4385,1.9212,1.6111,0.0,0.0,0.0,0.0,0.0,0.0,0.0,0.0,0.0,0.0,0.0,0.0,0.0,0.0,0.0,0.0,0.0,0.0,0.0,0.0,0.0,0.0,0.0,0.0,0.0,0.0,0.0,0.0,0.0,0.0,0.0,0.0,0.0,0.0,0.0,0.0,0.0,2.653,2.9707,0.0,3.1802,3.1618,3.1638,3.2207,3.2996,3.3828,3.4593,3.5877,3.6852,3.7373,3.7883,3.8469,3.9129,3.9007,3.9267,3.991,4.0186,4.0691,4.139,4.0961,4.0994,4.1401,4.0743,4.0344,3.9911,3.8244,3.6071,3.377,3.3579,3.3047,3.2434,3.2434,3.282,3.3416,0.0,0.0,0.0,0.0,0.0,0.0,-0.6242,-0.6832,-0.7482,-0.817,-0.9902,-1.1595,-1.2805,-1.4914,-1.6685,-1.7658,-1.7782,-1.7663,-1.7461,-1.6367,-1.4284,-1.0928,-0.2614,0.6057,1.4869,1.5372,2.0798,3.1603,3.2105,3.6043,4.3225,4.3701,4.3929,4.3878,4.3278,4.2876,4.24,3.9583,3.6801,3.3852,2.7931,2.4244,2.1701,0.0,0.0,0.0,0.0,0.0,0.0,0.0,0.0,0.0,0.0,0.0,0.0,0.0,0.0,0.0,0.0,0.0,0.0,0.0,0.0,0.0,0.0,0.0,0.0,0.0,0.0,0.0,0.0,0.0,0.0,0.0,0.0,0.0,0.0,2.7358,3.1966,3.3627,3.4496,3.5038,3.5284,3.53,3.5399,3.5645,3.6495,3.715,3.7396,3.8772,3.9542,3.9542,4.0057,4.0549,4.0983,4.0549,4.068,4.136,4.136,4.1796,4.2545,4.2052,4.216,4.2614,4.1906,4.1593,4.1527,4.0729,3.9024,3.6918,3.6339,3.5668,3.5049,3.5049,3.5377,3.5803,0.0,0.0,0.0,0.0,0.0,0.0,-0.6539,-0.6967,-0.7702,-0.8968,-1.079,-1.2464,-1.3762,-1.602,-1.7787,-1.8539,-1.858,-1.8522,-1.8433,-1.7459,-1.2654,-0.3184,0.6089,1.549,2.5016,2.6317,3.1794,4.1838,4.2552,4.328,4.4042,4.4079,4.4048,4.3971,4.3971,4.3513,4.2709,4.2558,4.0651,3.7577,3.5018,3.2444,2.978,0.0,0.0,0.0,0.0,0.0,0.0,0.0,0.0,0.0,0.0,0.0,0.0,0.0,0.0,0.0,0.0,0.0,0.0,0.0,0.0,0.0,0.0,0.0,0.0,0.0,0.0,0.0,0.0,0.0,0.0,0.0,0.0,0.0,3.0591,3.2368,3.4495,3.6598,3.7465,3.8204,3.8876,3.8997,3.9237,3.9942,3.9935,4.0287,4.1009,4.1074,4.1074,4.1074,4.1173,4.1173,4.1107,4.1173,4.1535,4.2173,4.2173,4.2594,4.3449,4.3568,4.3671,4.3781,4.3115,4.2815,4.2765,4.1813,4.1044,4.0266,3.8558,3.7449,3.6809,3.6809,3.688,3.7017,0.0,0.0,0.0,0.0,0.0,-0.6827,-0.7013,-0.7666,-0.8599,-0.9815,-1.1676,-1.3571,-1.5381,-1.7176,-1.8606,-1.9475,-1.9505,-1.9312,-1.893,-1.8543,-1.1384,0.4264,1.4868,2.4839,3.4375,3.6602,3.9283,4.2679,4.3998,4.4774,4.4952,4.5547,4.5807,4.5793,4.5793,4.5663,4.5389,4.4661,4.3435,4.1627,3.7869,3.5177,3.312,0.0,0.0,0.0,0.0,0.0,0.0,0.0,0.0,0.0,0.0,0.0,0.0,0.0,0.0,0.0,0.0,0.0,0.0,0.0,0.0,0.0,0.0,0.0,0.0,0.0,0.0,0.0,0.0,0.0,0.0,0.0,3.2042,3.3844,3.369,3.5546,3.7548,3.9218,3.999,4.0502,4.0684,4.0701,4.0856,4.1183,4.1199,4.1338,4.1649,4.2166,4.2449,4.2449,4.2505,4.2756,4.3248,4.2772,4.2872,4.3564,4.3564,4.3664,4.3923,4.3923,4.3981,4.4023,4.3822,4.3738,4.3688,4.2879,4.2144,4.1355,4.015,3.9214,3.8623,3.8676,3.8833,3.8955,0.0,0.0,0.0,0.0,0.0,-0.7035,-0.7107,-0.7866,-0.8858,-1.0072,-1.2119,-1.4079,-1.5818,-1.7552,-1.8882,-1.9514,-1.9606,-1.9434,-1.9116,-1.1434,-0.0445,1.41,2.4905,3.3689,4.0246,4.2077,4.3493,4.4614,4.5506,4.591,4.5898,4.6363,4.6573,4.6541,4.6541,4.6494,4.6372,4.5737,4.5121,4.4303,4.1334,3.8546,3.5883,3.3351,3.1311,2.9667,2.8488,2.624,2.3815,2.3796,0.0,0.0,0.0,0.0,0.0,0.0,0.0,0.0,0.0,0.0,0.0,0.0,0.0,0.0,0.0,0.0,0.0,0.0,0.0,0.0,0.0,0.0,0.0,0.0,3.4985,3.695,3.7703,3.8598,3.9653,4.111,4.1697,4.2136,4.2434,4.2525,4.2582,4.2712,4.2712,4.2752,4.2808,4.3227,4.3444,4.3444,4.3444,4.3662,4.4097,4.3662,4.3679,4.4097,4.4097,4.4155,4.4196,4.4196,4.4212,4.427,4.4212,4.4196,4.4179,4.3685,4.2842,4.1837,0.0,0.0,0.0,0.0,3.9746,3.9884,0.0,0.0,0.0,0.0,0.0,-0.6915,-0.6987,-0.7736,-0.8711,-0.9938,-1.2181,-1.4193,-1.5434,-1.7321,-1.8566,-1.8993,-1.9072,-1.8564,-1.7445,-0.0358,1.4125,2.3884,3.4312,4.0985,4.3369,4.4177,4.533,4.6911,4.6869,4.6856,4.6856,4.6919,4.6962,4.6885,4.6852,4.6735,4.6583,4.6246,4.6103,4.592,4.4701,4.2082,3.86,3.6132,3.5049,3.4641,3.344,3.1175,2.8701,2.8491,0.0,0.0,0.0,0.0,0.0,0.0,0.0,0.0,0.0,0.0,0.0,0.0,0.0,0.0,0.0,0.0,0.0,0.0,0.0,0.0,0.0,0.0,0.0,0.0,3.773,3.9866,4.1875,4.1488,4.1382,4.2676,4.2957,4.3356,4.4006,4.4106,4.4097,4.4097,4.4097,4.4155,4.4155,4.4155,0.0,0.0,0.0,4.4155,4.4155,4.4155,4.4155,4.4155,4.4155,4.4212,4.4367,4.4367,4.448,4.4626,4.4423,4.4367,4.435,4.4112,4.3166,4.1758,4.0966,4.0263,3.9729,3.9849,3.9986,4.0138,0.0,0.0,0.0,0.0,0.0,-0.6915,-0.6987,-0.7694,-0.8666,-0.9938,-1.1794,-1.3661,-1.5406,-1.6661,-1.7531,-1.7863,-1.8081,-1.498,-0.7413,0.3765,1.4743,2.5102,3.582,4.2393,4.4233,4.5031,4.5921,4.6911,4.7517,4.7785,4.7772,4.8366,4.8617,4.8617,4.8463,4.834,4.8268,4.7279,4.6781,4.6535,4.5363,4.4083,4.26,3.9976,3.9091,3.8981,3.6875,3.5723,3.4959,3.3261,3.1376,2.9303,2.6739,2.5341,0.0,0.0,0.0,0.0,0.0,0.0,0.0,0.0,0.0,0.0,0.0,0.0,0.0,0.0,0.0,0.0,0.0,0.0,0.0,3.801,4.007,4.2038,4.3597,4.4105,4.4374,4.4658,4.4691,4.4817,4.4951,4.4449,4.4155,4.4253,4.4253,4.431,4.4514,4.4514,4.4514,4.4514,4.4514,4.4514,4.4514,4.4514,4.4514,4.4514,4.4514,0.0,4.472,4.472,4.4776,4.4923,4.4776,4.472,4.4614,4.3838,4.2652,4.1251,4.0285,3.9915,3.9833,3.9901,4.0054,4.0288,0.0,0.0,0.0,0.0,0.0,-0.6863,-0.6885,-0.7604,-0.8592,-0.9897,-1.1489,-1.3131,-1.4809,-1.5702,-1.6253,-1.6644,-1.7302,-1.1842,0.1989,0.7941,1.7638,3.2805,3.9825,4.4135,4.581,4.6638,4.7456,4.8232,4.8645,4.8771,4.8645,4.9043,4.9131,4.9015,4.8874,4.8732,4.8514,4.7884,4.7487,4.7171,4.6488,4.596,4.5414,4.3465,4.2103,4.1149,3.9962,3.8528,3.7003,3.5916,3.4058,3.1855,2.9611,2.8105,2.663,0.0,0.0,0.0,0.0,0.0,0.0,0.0,0.0,0.0,0.0,0.0,0.0,0.0,0.0,3.4072,3.5095,0.0,3.9115,4.0544,4.2255,4.3826,4.4845,4.59,4.6337,4.5831,4.5781,4.5706,4.5337,4.5043,4.4805,4.4474,4.444,4.4497,4.457,4.4587,4.4587,4.4587,4.4587,4.4587,4.4587,4.4587,4.4587,4.4587,4.4682,4.4737,4.4776,4.4886,4.494,4.4978,4.494,4.4886,4.4783,4.3481,4.2255,4.1136,4.0222,3.9935,3.9986,3.9986,4.0138,4.0305,0.0,0.0,0.0,0.0,0.0,-0.6811,-0.6811,-0.7453,-0.8387,-0.9622,-1.0958,-1.2299,-1.3739,-1.4334,-1.4877,-1.5405,-1.6598,-0.9478,0.8986,1.123,2.0627,4.0359,4.3617,4.5663,4.7164,4.7994,4.8796,4.9593,4.9574,4.9464,4.9308,4.9244,4.9113,4.8874,4.882,4.8605,4.8267,4.8148,4.7947,4.7657,4.7363,4.7249,4.7026,4.5918,4.4278,4.253,4.2197,4.0263,3.7724,3.7344,3.5753,3.3618,3.1982,3.0489,2.8895,2.6486,2.5337,0.0,0.0,0.0,0.0,0.0,0.0,0.0,0.0,3.0776,3.2968,3.3836,3.572,3.7552,3.8721,4.0175,4.1579,4.2807,4.4133,4.532,4.6123,4.7098,4.7513,4.68,4.6793,4.6549,4.5824,4.5906,4.5716,4.4914,4.4981,4.4998,4.4863,4.4846,4.4778,4.4682,4.4682,4.4682,4.4682,4.4682,4.4682,4.4682,4.4793,4.4831,4.4886,4.4978,4.5032,4.5103,4.5032,4.4861,4.4448,4.3096,4.2021,4.1188,4.0578,4.0426,4.0476,4.0189,4.0188,4.0305,0.0,0.0,0.0,0.0,0.0,0.0,-0.6811,-0.7124,-0.7774,-0.8787,-0.9685,-1.0685,-1.1874,-1.2499,-1.3263,-1.4453,-1.5894,-0.8629,1.0405,1.2311,2.1471,4.1211,4.4485,4.6278,4.7164,4.7994,4.8796,4.9593,4.9495,4.9384,4.9289,4.9079,4.8909,4.8787,4.8495,4.8324,4.8187,4.7866,4.7657,4.7511,4.7312,4.7133,4.6954,4.607,4.5178,4.4135,4.2619,4.1001,3.9313,3.7813,3.6125,3.4411,3.286,3.17,3.0475,2.8122,2.7327,2.6912,2.5432,2.5918,2.7234,2.8672,3.0179,3.1817,0.0,3.5628,3.7206,3.8545,4.0062,4.118,4.1218,4.2467,4.3765,4.4585,4.5422,4.6464,4.7875,4.7619,4.7517,4.8055,4.7988,4.7682,4.705,4.7056,4.6766,4.5847,4.6333,4.6476,4.5773,4.5722,4.5529,4.4958,4.494,4.494,4.494,4.494,4.494,4.494,4.4978,4.5032,4.514,4.5177,4.5247,4.5371,4.5247,4.4316,4.2945,4.2722,4.2159,4.1393,4.1308,4.1562,4.188,4.0561,4.0188,4.0305,0.0,0.0,0.0,0.0,0.0,0.0,0.0,-0.7089,-0.7576,-0.8344,-0.8941,-0.9663,-1.0573,-1.1179,-1.2049,-1.3391,-1.4865,-0.7737,1.1118,1.2775,2.1822,4.1534,4.5243,4.6978,4.7318,4.855,4.9334,4.9593,4.9434,4.9257,4.9061,4.882,4.8642,4.8513,4.8324,4.8108,4.7907,4.7759,4.7572,4.7276,4.6721,4.6391,4.6159,4.4928,4.3679,4.2483,4.1782,4.021,0.0,3.7145,3.5953,3.4765,3.3634,3.2648,3.1577,2.9726,2.9119,2.8991,2.8749,2.9721,3.1098,3.2159,3.4168,3.6132,3.7059,3.8743,4.0284,4.0875,4.2218,4.3219,4.3168,4.4061,4.4988,4.5654,4.6443,4.7107,4.7626,4.7814,4.7923,4.786,4.7786,4.7421,4.6652,4.6977,4.6908,4.6101,4.6749,4.7056,4.6749,4.6288,4.5896,4.5627,4.52,4.4978,4.4978,4.4978,4.4978,4.4978,4.5086,4.514,4.5177,4.53,4.5371,4.5423,4.5371,4.4646,4.3494,4.3494,4.2997,4.2228,4.2228,4.2312,4.2308,4.1645,4.1154,4.0832,0.0,0.0,0.0,0.0,0.0,0.0,0.0,0.0,0.0,0.0,-0.8299,-0.8776,-0.945,-1.0162,-1.1103,-1.2393,-1.2018,-0.4875,1.135,1.4787,2.3967,4.1404,4.509,4.6809,4.703,4.8369,4.8994,4.8818,4.889,4.8758,4.8505,4.8495,4.8402,4.8172,4.809,4.7779,4.7289,4.7247,4.6949,4.648,4.5845,4.5444,4.4999,4.3447,4.1716,4.0128,4.0128,3.8754,3.6738,3.5455,3.4638,3.3999,3.3117,3.2431,3.1676,3.0533,3.0293,3.0582,3.1513,3.2825,3.4254,3.5405,3.7624,3.9579,4.0013,4.1445,4.2731,4.2938,4.387,4.4596,4.4596,4.5044,4.5612,4.6298,4.6863,4.7253,4.7312,4.7655,4.7746,4.7309,4.7069,4.6653,4.5977,4.697,4.7329,4.652,4.7415,4.7877,4.7689,4.7141,4.6627,4.6234,4.5686,4.5309,4.5086,4.5086,4.5086,4.5086,4.5194,4.5247,4.5247,4.5371,4.5423,4.5423,4.5423,4.494,4.4182,4.4182,4.3769,4.3151,4.3151,4.3184,4.3163,4.3073,4.2238,4.1204,0.0,0.0,0.0,0.0,0.0,0.0,0.0,0.0,0.0,0.0,0.0,0.0,0.0,-0.9404,-1.0359,-1.1456,-0.6465,0.0978,1.1071,1.9223,2.8958,4.0821,4.3668,4.5344,4.6119,4.6898,4.7156,4.6885,4.754,4.7701,4.7442,4.8052,4.8132,4.7793,4.7765,4.7157,4.6241,4.6137,4.5602,4.4868,4.4703,4.4214,4.3393,4.1787,3.9718,3.7702,3.7702,3.6649,3.4936,3.2616,3.1769,3.1564,3.0752,3.0424,3.0344,3.0247,3.0645,3.1493,3.3003,3.4491,3.6164,3.8402,4.0097,4.1609,4.3119,4.3979,4.461,4.5355,4.5407,4.5389,4.5389,4.5406,4.5682,4.6475,4.6631,4.6889,4.7614,4.7113,4.6665,4.6648,4.5958,4.544,4.5405,4.742,4.8363,4.7511,4.8815,4.933,4.8609,4.8558,4.7928,4.6648,4.6579,4.6146,4.5388,4.5371,4.5371,4.5371,4.5371,4.5371,4.5371,4.5423,4.5423,4.5423,4.5423,4.4992,4.4268,4.4268,4.4217,4.4044,4.4044,4.4437,4.491,4.491,4.335,4.1204,0.0,0.0,0.0,0.0,0.0,0.0,0.0,0.0,0.0,0.0,0.0,0.0,0.0,0.0,0.0,0.0,-0.4009,0.2554,1.5922,2.0413,2.7374,3.8239,4.1575,4.3264,4.3448,4.4691,4.5246,4.5069,4.5556,4.5762,4.5624,4.6099,4.6248,4.6128,4.5983,4.569,4.5215,4.4677,4.4217,4.3793,4.2144,4.1341,4.0842,3.8201,3.606,3.4258,0.0,3.2135,3.1813,2.9993,2.9715,3.0077,2.981,3.0018,3.0561,3.1494,3.2311,3.3318,3.5344,3.7361,3.9193,4.0455,4.2258,4.3825,4.4349,4.4948,4.5267,4.5041,4.4989,4.4765,4.4245,4.4141,4.4574,4.5858,4.6083,4.6343,4.7141,4.702,4.6673,4.6135,4.584,4.5875,4.6395,4.7447,4.7937,4.7623,4.9074,4.9815,4.9574,4.8999,4.854,4.8096,4.7131,4.6475,4.6217,4.5735,4.5528,4.5528,4.5615,4.5684,4.5684,4.5684,4.5684,4.5684,4.5684,4.5528,4.5285,4.5285,4.5285,4.5234,4.5131,4.5182,4.523,4.5194,4.4228,4.2943,0.0,0.0,0.0,0.0,0.0,0.0,0.0,0.0,0.0,0.0,0.0,0.0,0.0,0.0,0.0,0.0,0.0,0.7366,1.7826,2.2133,2.7796,3.5702,3.831,3.9788,4.0228,4.1188,4.1745,4.1832,4.235,4.2834,4.3212,4.3795,4.4147,4.4299,4.4137,4.3709,4.2995,4.2517,4.194,4.1234,3.9358,3.8289,3.7522,3.492,3.2781,0.0,2.8852,2.8217,2.8289,2.7576,2.7888,2.8584,2.8887,3.0024,3.1426,3.2388,3.3774,3.54,3.7408,3.9429,4.1288,4.2517,4.3945,4.4953,4.4953,4.5222,4.5192,4.4164,4.3889,4.3645,4.2845,4.2932,4.3405,4.4396,4.5072,4.5612,4.6116,4.643,4.6395,4.5839,4.577,4.6134,4.69,4.7505,4.7931,4.8152,4.9286,5.0011,5.0011,4.9528,4.9114,4.8838,4.7631,4.6889,4.6613,4.5926,4.5615,4.5667,4.577,4.577,4.577,4.577,4.577,4.577,4.577,4.577,4.577,4.577,4.577,4.577,4.5736,4.5615,4.5546,4.5459,4.5043,4.4387,0.0,0.0,0.0,0.0,0.0,0.0,0.0,0.0,0.0,0.0,0.0,0.0,0.0,0.0,0.0,0.0,0.0,0.0,1.6987,2.4264,2.9926,3.3128,3.4015,3.5096,3.655,3.6547,3.6779,3.7292,3.807,3.9026,4.0165,4.1035,4.1701,4.2149,4.2149,4.121,3.9664,3.9629,3.8736,3.7273,3.6346,3.5082,3.3517,3.1902,2.9858,2.7654,2.6203,2.5162,2.4597,2.5454,2.6354,2.7264,2.812,3.0469,3.293,3.2983,3.5119,3.7775,3.9211,4.08,4.2485,4.453,4.5062,4.508,4.4992,4.4844,4.4292,4.2754,4.2283,4.1957,4.1111,4.1661,4.2236,4.2305,4.361,4.462,4.4689,4.5351,4.5821,4.5821,4.5855,4.6186,4.7021,4.7717,4.8429,4.9136,4.9694,4.9993,4.9993,4.9993,4.9666,4.8907,4.8114,4.7372,4.6665,4.5943,4.5667,4.5821,4.5873,4.5873,4.5821,4.5873,4.5873,4.5821,4.5821,4.5821,4.5821,4.5821,4.5821,4.5821,4.5838,4.5821,4.5821,4.5821,4.5718,4.5459,0.0,0.0,0.0,0.0,0.0,0.0,0.0,0.0,0.0,0.0,0.0,0.0,0.0,0.0,0.0,0.0,0.0,0.0,1.9792,2.3724,2.676,2.8739,3.0152,3.131,3.2191,3.2683,3.2964,3.3059,3.4237,3.4957,3.5235,3.6504,3.7126,3.7219,3.7095,3.6792,3.6292,3.574,3.4905,3.3839,3.2403,3.0929,2.9367,2.7794,2.6091,2.4477,2.4093,2.3448,2.3023,2.4492,2.6675,2.9012,3.0386,3.2531,3.4706,3.5312,3.7644,4.025,4.1186,4.2882,4.4406,4.4342,4.4753,4.4799,4.3658,4.2893,4.2016,4.0473,3.9641,3.8993,3.8222,3.8713,3.9606,4.0797,4.2286,4.3705,4.4844,4.5649,4.6073,4.6073,4.6648,4.7296,4.8049,4.8732,4.9447,5.0143,5.0293,5.0302,5.0302,5.0302,5.0215,5.0007,4.8595,4.7761,4.7571,4.6343,4.5871,4.609,4.6718,4.67,4.609,4.6735,4.6683,4.6122,4.6204,4.6253,4.6253,4.6253,4.6253,4.6253,4.6023,4.5922,4.5922,4.5821,4.577,4.5701,0.0,0.0,0.0,0.0,0.0,0.0,0.0,0.0,0.0,0.0,0.0,0.0,0.0,0.0,0.0,0.0,0.0,0.0,0.0,2.172,2.3347,2.4955,2.6146,2.7121,2.7803,2.8181,2.8456,2.8709,2.9435,3.0106,3.0685,3.1474,3.2145,3.2764,3.267,3.2588,3.2503,3.1689,3.0894,0.0,0.0,2.6994,2.5791,2.4587,2.3324,2.2304,2.2681,2.3425,2.447,2.6056,2.8258,3.0683,3.2634,3.4615,3.647,3.7612,3.9661,4.1813,4.2868,4.4245,4.5211,4.4724,4.4595,4.4079,4.2219,4.0902,3.9533,3.7672,3.6654,3.5864,3.5109,3.6145,3.7496,3.8743,4.0832,4.2816,4.436,4.5238,4.5993,4.666,4.7134,4.7819,4.8924,4.9381,4.9923,5.0677,5.0526,5.0415,5.0415,5.0415,5.0415,5.0415,4.8846,4.7663,4.7056,4.6307,4.6147,4.6748,4.7187,4.7395,4.7375,4.7814,4.7636,4.6896,4.6976,4.6813,4.6495,4.6495,4.6495,4.6495,4.6253,4.6172,4.6207,4.6407,4.6479,4.6377,0.0,0.0,0.0,0.0,0.0,0.0,0.0,0.0,0.0,0.0,-0.2726,0.0,0.0,0.0,0.0,0.0,0.0,0.0,0.0,0.0,2.0126,2.1634,2.2337,2.3041,2.3787,2.3842,2.4112,2.4623,2.4708,2.538,2.6566,2.6613,2.7342,2.862,2.8564,2.849,2.8454,2.7688,2.6916,2.6136,2.4653,2.3594,2.2747,0.0,2.1278,2.0717,2.1662,2.3996,2.6861,2.8464,3.0375,3.2453,3.4761,3.6684,3.8344,3.9789,4.1341,4.2929,4.4298,4.5017,4.5386,4.5194,4.4325,4.2879,4.0533,3.8638,3.6724,3.453,3.3371,3.2581,3.2037,3.3722,3.553,3.6513,3.9269,4.1868,4.3518,4.4536,4.5624,4.7064,4.7432,4.8064,4.9398,4.9732,5.0136,5.0838,5.0637,5.0471,5.0471,5.0471,5.0366,5.0102,4.8796,4.7422,4.599,4.5972,4.6458,4.7397,4.7553,4.8008,4.8829,4.8917,4.8597,4.7953,4.797,4.7612,4.6956,4.6832,4.6797,4.6749,4.6654,4.6588,4.6645,4.7357,4.7505,4.7402,0.0,0.0,0.0,0.0,0.0,0.0,0.0,0.0,0.0,0.0,0.4528,0.4717,0.0,0.0,0.0,0.0,0.0,0.0,0.0,0.0,0.0,1.9026,1.9699,2.0428,2.123,2.177,2.2081,2.2114,2.2725,2.3094,2.3253,2.3898,2.4318,2.451,2.445,2.4378,2.4322,2.412,2.3576,2.2816,2.2535,2.158,2.0297,2.0174,0.0,0.0,2.053,2.3028,2.6001,2.8311,3.1473,3.4799,3.6469,3.8625,4.0681,4.1609,4.2983,4.441,4.5312,4.5561,4.5399,4.4643,4.2794,4.0574,3.8151,3.5407,3.2915,3.1247,2.9737,2.8877,2.9404,3.0861,3.2669,3.4758,3.769,4.0481,4.2693,4.422,4.5431,4.6326,4.759,4.8503,4.8749,4.9925,5.0733,5.0873,5.0836,5.0819,5.0819,5.0819,5.0169,4.8696,4.8382,4.7526,4.599,4.5972,4.6458,4.7397,4.8199,4.8637,4.8829,4.9566,4.9475,4.8785,4.8933,4.891,4.8684,4.8009,4.7743,4.7743,4.7599,4.7484,4.7491,4.8285,4.8483,4.8329,0.0,0.0,0.0,0.0,0.0,0.0,0.0,0.7855,1.0071,1.0422,1.2621,1.2774,0.9075,1.1654,1.3481,0.0,0.0,0.0,0.0,0.0,0.0,0.0,1.7773,1.8319,1.8669,1.9328,1.9645,1.9577,0.0,2.0638,2.06,2.0898,2.1268,2.1615,2.1515,2.1702,2.2011,2.1577,2.1163,2.0767,2.0346,1.9731,1.9064,1.9064,0.0,0.0,2.0402,2.2546,2.52,2.7566,3.0822,3.4267,3.6701,3.8839,4.0717,4.193,4.3393,4.4785,4.5588,4.5713,4.532,4.4085,4.1899,3.9335,3.6506,3.3459,3.0803,2.9176,2.7596,2.663,2.7016,2.8684,3.0633,3.2564,3.5478,3.8444,4.12,4.2938,4.4483,4.5996,4.7608,4.8714,4.9118,5.0206,5.0891,5.0891,5.0891,5.0891,5.0891,5.0487,4.9539,4.7874,4.7821,4.7278,4.614,4.6122,4.6718,4.7977,4.8534,4.9252,5.015,5.0606,5.046,4.9763,4.9862,4.963,4.9221,4.8847,4.8687,4.8687,4.856,4.8413,4.8367,4.9111,4.9309,4.9153,0.0,0.0,0.0,0.0,0.0,0.0,0.7761,1.2337,1.5762,1.5992,1.9238,1.9567,1.4427,1.5467,1.6483,0.0,0.0,0.0,0.0,0.0,0.0,0.0,0.0,0.0,1.6602,0.0,0.0,1.7778,1.852,0.0,0.0,0.0,0.0,0.0,1.952,1.9815,2.0365,1.972,1.9345,0.0,0.0,1.8397,1.8257,0.0,0.0,0.0,0.0,2.1861,2.39,2.6191,2.9082,3.2193,3.5065,3.7664,3.9985,4.1573,4.3019,4.4339,4.5285,4.5339,4.4831,4.3383,4.1103,3.8341,3.5258,3.2064,2.9193,2.7361,2.5875,2.491,2.491,2.6841,2.8912,3.0457,3.3301,3.6355,3.9305,4.1218,4.3167,4.5466,4.7099,4.8398,4.9363,5.0171,5.0697,5.0873,5.0945,5.0874,5.0699,5.0084,4.9029,4.7533,4.7498,4.7111,4.627,4.627,4.7043,4.8606,4.8811,4.9743,5.135,5.1505,5.1269,5.0762,5.0762,5.0405,4.9817,4.9638,4.9585,4.9519,4.9524,4.9341,4.9295,4.9957,5.0101,4.9996,0.0,0.0,0.0,0.0,0.0,0.0,1.669,1.8561,1.995,2.1456,2.1984,2.1714,2.0395,1.8533,1.7063,0.0,0.0,0.0,0.0,0.0,0.0,0.0,0.0,0.0,0.0,0.0,0.0,1.7713,1.8449,0.0,0.0,0.0,0.0,0.0,0.0,1.8757,1.879,1.8663,0.0,0.0,0.0,0.0,0.0,0.0,0.0,0.0,0.0,2.0363,2.1492,2.3829,2.6329,2.8741,3.0442,3.4603,3.9218,4.0753,4.1823,4.2822,4.4321,4.4232,4.3458,4.2483,3.9917,3.7038,3.4464,3.0879,2.7459,2.5156,2.3978,2.333,2.333,2.5243,2.7332,2.886,3.1686,3.4547,3.697,3.9269,4.1552,4.3834,4.5484,4.7029,4.8556,4.9363,5.0101,5.0838,5.0998,5.0735,5.0048,4.9942,4.9252,4.7798,4.7745,4.7373,4.6542,4.6542,4.732,4.8859,4.9061,4.9962,5.1523,5.1607,5.1654,5.1583,5.1583,5.1547,5.1422,5.0691,5.0388,5.0405,5.0405,5.0289,5.0229,5.0925,5.1087,5.0946,0.0,0.0,0.0,0.0,0.0,0.0,1.7382,1.939,2.0998,2.2179,2.273,2.2712,2.1896,2.0031,1.8289,1.6971,0.0,0.0,0.0,0.0,0.0,0.0,0.0,0.0,0.0,0.0,1.698,1.6915,1.8093,0.0,0.0,0.0,0.0,0.0,0.0,1.8542,1.8524,1.7993,0.0,0.0,0.0,0.0,0.0,0.0,0.0,0.0,0.0,0.0,2.042,2.2289,2.4229,2.61,2.7164,3.0421,3.4401,3.7398,3.9504,4.1109,4.2198,4.2287,4.1752,4.0424,3.8091,3.5349,3.242,2.9444,2.6614,2.4176,2.3052,2.2482,2.2435,2.3576,2.5173,2.7192,2.9751,3.2508,3.5254,3.7743,4.0087,4.2343,4.4402,4.6055,4.7146,4.8851,5.0171,5.107,5.1193,5.0892,5.0181,4.9584,4.8841,4.7829,4.7333,4.6908,4.659,4.659,4.7139,4.8254,4.8897,4.9746,5.0794,5.1426,5.169,5.169,5.169,5.169,5.1672,5.1351,5.1226,5.1226,5.1226,5.1126,5.1061,5.1329,5.135,5.1193,0.0,0.0,0.0,0.0,0.0,1.5451,1.7307,1.9295,2.0982,2.2103,2.2736,2.2774,2.1966,2.0543,1.8971,1.733,1.6414,0.0,0.0,0.0,0.0,0.0,0.0,0.0,0.0,0.0,1.6403,1.6369,1.8091,1.8796,0.0,0.0,1.8788,1.8579,0.0,0.0,0.0,0.0,0.0,0.0,0.0,0.0,0.0,0.0,0.0,0.0,0.0,0.0,0.0,0.0,0.0,2.3655,2.4672,2.6899,2.994,3.4133,3.6863,3.8754,3.9771,4.0057,3.9682,3.813,3.6292,3.4028,3.0825,2.8429,2.6144,2.3466,2.2488,2.2023,2.1749,2.25,2.3854,2.5965,2.8135,3.0547,3.3423,3.586,3.832,4.0853,4.3155,4.5088,4.6341,4.8564,5.0328,5.1297,5.1402,5.1239,5.0788,4.9937,4.8999,4.7956,4.7417,4.7009,4.6824,4.6824,4.7169,4.7938,4.8834,4.9666,5.0364,5.1333,5.174,5.174,5.179,5.179,5.174,5.174,5.1758,5.169,5.169,5.164,5.1556,5.1505,5.1454,5.1315,0.0,0.0,0.0,0.0,0.0,0.0,1.7919,1.9037,2.022,2.1865,2.2114,2.1797,2.1003,2.0071,1.88,1.7072,1.6233,0.0,0.0,0.0,0.0,0.0,0.0,0.0,0.0,0.0,1.6371,1.6303,1.8582,1.9321,1.8614,1.9348,1.9257,1.8485,0.0,0.0,0.0,0.0,0.0,0.0,0.0,0.0,1.7396,0.0,0.0,0.0,0.0,0.0,0.0,0.0,0.0,0.0,0.0,2.4557,2.6782,3.1528,3.4026,3.5614,3.7184,3.763,3.7238,3.565,3.4686,3.3294,3.0136,2.8101,2.6009,2.2856,2.2154,2.1879,2.1153,2.2246,2.3802,2.5358,2.6967,2.8824,3.1207,3.3509,3.6111,3.9261,4.1704,4.4041,4.6348,4.8732,5.05,5.1452,5.1607,5.174,5.1907,5.1233,5.0096,4.836,4.8289,4.7958,4.732,4.7302,4.7608,4.8307,4.9084,4.9841,5.053,5.1482,5.1907,5.1925,5.2054,5.2005,5.1907,5.1907,5.1808,5.169,5.169,5.169,5.169,5.1556,5.1505,5.1347,0.0,0.0,0.0,0.0,0.0,0.0,1.548,1.6892,1.818,1.9342,1.9991,2.0014,1.9152,1.8758,1.7849,1.6092,1.5767,0.0,0.0,0.0,0.0,0.0,0.0,0.0,0.0,1.5759,1.6765,1.7745,1.8968,1.9699,1.9957,2.0219,1.9922,1.9189,1.9189,1.8493,0.0,0.0,0.0,0.0,0.0,1.6343,1.6694,0.0,0.0,0.0,0.0,0.0,0.0,0.0,0.0,0.0,0.0,0.0,0.0,2.6693,2.953,3.2349,3.3937,3.4398,3.399,3.2384,3.1439,3.019,2.7549,2.5704,2.3969,2.1882,2.0986,2.0681,2.0941,2.1401,2.2587,2.5181,2.6986,2.8905,3.1249,3.3608,3.6043,3.8617,4.1955,4.5186,4.8116,4.9167,5.0245,5.1669,5.1907,5.1987,5.2036,5.1868,5.0969,4.9323,4.8731,4.8066,4.732,4.7302,4.7401,4.7653,4.8416,4.9223,4.9966,5.0821,5.1533,5.2054,5.2102,5.2102,5.2054,5.2054,5.2005,5.1987,5.1987,5.1907,5.1808,5.1808,5.1369,5.0752,0.0,0.0,0.0,0.0,0.0,0.0,1.4183,1.5319,1.6376,1.7582,1.8172,1.8268,1.7693,1.7321,1.6652,1.549,1.5112,0.0,0.0,0.0,0.0,0.0,0.0,0.0,1.5009,1.5748,1.6866,1.836,1.97,2.0587,2.1016,2.1335,2.0918,1.9891,1.9634,1.8522,0.0,0.0,0.0,0.0,1.5588,1.6203,1.6361,0.0,0.0,0.0,0.0,0.0,0.0,0.0,0.0,0.0,0.0,0.0,0.0,0.0,2.5729,2.8352,3.0529,3.1118,3.0814,2.9512,2.8834,2.7942,2.5854,2.4427,2.303,2.1441,2.069,2.0494,2.0951,2.1288,2.2407,2.5204,2.6801,2.8617,3.1271,3.369,3.6524,4.0053,4.2947,4.5811,4.8686,4.9346,5.0139,5.14,5.194,5.215,5.215,5.2246,5.1506,4.9902,4.9316,4.8524,4.7468,4.745,4.7425,4.7381,4.8173,4.8821,4.9297,5.044,5.1232,5.1766,5.2119,5.2246,0.0,5.215,5.215,5.2102,5.2102,5.2005,5.1907,5.1907,5.1307,5.0459,0.0,0.0,0.0,0.0,0.0,0.0,0.0,1.4126,1.4768,1.6328,1.652,1.652,1.6522,1.5831,1.5314,1.5116,1.4356,0.0,0.0,0.0,0.0,0.0,0.0,0.0,1.4964,1.5662,1.6791,1.8457,2.0686,2.1816,2.1871,2.2607,2.2146,2.0634,1.9908,1.8275,0.0,0.0,0.0,0.0,1.5571,1.6203,0.0,0.0,0.0,0.0,0.0,0.0,0.0,0.0,0.0,0.0,0.0,0.0,0.0,0.0,0.0,0.0,0.0,2.7924,2.7852,2.7032,2.6835,2.6443,2.4944,2.3998,0.0,2.15,2.1144,2.1126,2.1179,2.1839,2.3124,2.5444,2.6568,2.8254,3.1291,3.3898,3.7506,4.2951,4.4438,4.5917,4.8272,4.9225,5.0034,5.0843,5.1795,5.2311,5.2311,5.2397,5.1683,5.017,4.9947,4.9169,4.7717,4.7717,4.7615,4.7511,4.8269,4.8604,4.8605,5.0262,5.1048,5.1156,5.2108,5.2452,5.2311,5.2311,5.2246,5.215,5.215,5.2054,5.1907,5.1853,5.1218,5.0298,0.0,0.0,0.0,0.0,0.0,0.0,0.0,0.0,0.0,0.0,1.3813,1.402,1.457,1.4424,1.4232,0.0,0.0,0.0,0.0,0.0,0.0,0.0,0.0,0.0,1.5714,1.5904,1.727,1.9924,2.1088,2.2203,2.3325,2.3498,2.279,2.1347,2.0528,1.8637,0.0,0.0,0.0,0.0,1.5504,1.6133,0.0,0.0,0.0,0.0,1.8485,1.8485,0.0,0.0,0.0,0.0,0.0,0.0,0.0,0.0,2.15,2.2754,2.3549,0.0,2.6193,2.5426,2.5247,2.498,0.0,2.316,2.2486,2.2153,2.156,2.1307,2.1974,2.27,2.3802,2.566,2.7611,2.9607,3.1649,3.5531,3.9551,4.3306,4.4497,4.5917,4.8272,4.9316,5.0172,5.1002,5.1907,5.2452,5.2452,5.1928,5.1201,5.0203,4.9628,4.8823,4.7717,4.7717,4.7657,4.7657,4.7838,4.8229,4.8844,4.9882,5.066,5.1294,5.2154,5.2498,5.2452,5.2452,5.2434,5.2405,5.2405,5.2293,5.2144,5.1419,5.0522,4.9621,0.0,0.0,0.0,0.0,0.0,0.0,0.0,0.0,0.0,0.0,1.231,1.2573,1.3292,1.3338,1.3407,0.0,0.0,0.0,0.0,0.0,0.0,0.0,0.0,1.476,1.5937,1.6645,1.8128,2.0394,2.1876,2.3229,2.4367,2.4712,2.4057,2.2539,2.0355,1.8132,0.0,0.0,0.0,1.3866,1.5052,0.0,0.0,0.0,0.0,0.0,1.8445,1.8465,0.0,1.8579,1.86,1.8604,0.0,0.0,0.0,0.0,2.0557,2.1813,2.1834,2.3298,2.4706,2.4341,2.4234,2.4127,2.3697,2.2962,2.241,2.2431,2.207,2.1998,2.2826,2.3611,2.4771,2.6774,2.8784,3.1308,3.4753,3.7808,4.0742,4.357,4.4638,4.5797,4.7396,4.871,4.9766,5.0597,5.1502,5.2046,5.201,5.1663,5.0969,4.9786,4.9391,4.8771,4.7866,4.7847,4.7847,4.7847,4.7847,4.8084,4.8496,4.9615,5.0395,5.0867,5.2019,5.2498,5.2498,5.2498,5.2498,5.2498,5.2498,5.217,5.1715,5.1171,5.0114,4.888,0.0,0.0,0.0,0.0,0.0,0.0,0.0,0.0,0.0,0.0,0.0,0.0,0.0,0.0,0.0,0.0,0.0,0.0,0.0,0.0,0.0,0.0,1.4417,1.5124,1.5863,1.7397,1.8965,2.056,2.271,2.4253,2.5166,2.5786,2.5148,2.3305,1.9774,1.7374,1.5938,1.5193,1.4428,1.3767,1.455,0.0,0.0,0.0,0.0,0.0,0.0,0.0,0.0,1.8559,1.8582,1.8604,1.8678,0.0,0.0,0.0,0.0,0.0,2.1209,2.2482,2.3831,2.3858,2.388,2.3916,2.4042,2.3538,2.3052,2.3034,2.3052,2.325,2.3934,2.4815,2.6129,2.8234,3.0368,3.3484,3.8438,3.9968,4.1449,4.3743,4.478,4.5617,4.6432,4.7971,4.9227,4.9898,5.0802,5.13,5.1246,5.1267,5.066,4.925,4.9127,4.8725,4.8032,4.8032,4.7992,4.7992,4.7992,4.7992,4.8046,4.9525,5.021,5.0301,5.1819,5.2498,5.2498,5.2498,5.2498,5.248,5.2353,5.1855,5.1084,5.0831,4.9721,4.8335,0.0,0.0,0.0,0.0,0.0,0.0,0.0,0.0,0.0,0.0,0.0,0.0,0.0,0.0,0.0,0.0,0.0,0.0,0.0,0.0,0.0,1.4418,1.4607,1.5053,1.5791,1.7336,1.9127,2.1233,2.285,2.4384,2.5863,2.5966,2.4569,2.1832,1.9314,1.7349,1.5865,1.5124,1.4378,1.3771,1.4517,0.0,0.0,0.0,0.0,0.0,0.0,0.0,0.0,1.8522,1.8545,1.8604,1.8604,0.0,0.0,0.0,0.0,0.0,2.1326,2.3043,2.4771,2.4748,2.4725,2.4887,2.5571,2.5643,2.5559,2.5546,2.5541,2.5595,2.5708,2.6891,2.8216,2.9314,3.3189,3.6801,3.9045,4.0583,4.2139,4.3896,4.4802,4.5657,4.6571,4.8097,4.9119,4.9336,5.0101,5.0557,5.0557,5.0044,4.961,4.9373,4.8739,4.8396,4.8267,4.8072,4.7992,4.7992,4.7992,4.7992,4.8046,4.9525,5.021,5.0301,5.1819,5.2498,5.2498,5.2498,5.2498,5.2426,5.1737,5.1411,5.1077,4.9631,4.8812,4.8371,0.0,0.0,0.0,0.0,0.0,0.0,0.0,0.0,0.0,0.0,0.0,0.0,0.0,0.0,0.0,0.0,0.0,0.0,0.0,0.0,1.3701,1.4499,1.5371,1.6194,1.6966,1.8246,1.9924,2.2002,2.4262,2.5572,2.5942,2.5562,2.4248,2.2048,2.0222,1.8086,1.5881,1.5556,1.4744,1.3736,0.0,0.0,0.0,0.0,0.0,0.0,0.0,0.0,0.0,0.0,1.7594,1.802,1.8003,0.0,0.0,0.0,0.0,0.0,2.1256,2.2849,2.4548,2.5393,2.561,2.57,2.608,2.6495,2.6802,2.6808,2.7145,2.7579,2.8001,2.9032,3.0649,3.3237,3.591,3.8337,4.0365,4.1325,4.2232,4.3411,4.4704,4.5633,4.6054,4.7547,4.8717,4.9177,4.9601,4.9862,4.9862,4.9655,4.9273,4.8815,4.8469,4.8306,4.8306,4.8229,4.8151,4.8151,4.8151,4.8151,4.8187,4.9273,4.9956,5.0387,5.1437,5.2127,5.2498,5.2498,5.2226,5.181,5.143,5.076,4.9854,4.8529,4.7965,4.7761,0.0,0.0,0.0,0.0,0.0,0.0,0.0,0.0,0.0,0.0,0.0,0.0,0.0,0.0,0.0,0.0,0.0,0.0,0.0,1.2992,1.3531,1.468,1.5889,1.6965,1.7944,1.9462,2.1157,2.2971,2.5595,2.6618,2.6121,2.5167,2.3841,2.2297,2.0801,1.8655,1.6157,1.5968,1.5141,1.3945,0.0,0.0,0.0,0.0,0.0,0.0,0.0,0.0,0.0,0.0,0.0,0.0,0.0,0.0,0.0,1.8825,1.9471,2.0317,2.1185,2.2725,2.4411,2.586,2.6493,2.6819,2.7001,2.7671,2.8304,2.8504,2.8866,2.9489,3.0468,3.1492,3.3288,3.6753,3.815,3.9492,4.1506,4.2032,4.2505,4.3305,4.4709,4.5676,4.5915,4.7211,4.8306,4.8948,4.9102,4.916,4.916,4.9239,4.8985,4.8324,4.8306,4.8306,4.8306,4.8306,4.8306,4.8306,4.8306,4.8306,4.8343,4.9069,4.9793,5.0453,5.1169,5.1855,5.2526,5.2526,5.2055,5.1267,5.1086,5.0035,4.8507,4.7789,4.7407,4.7276,0.0,0.0,0.0,0.0,0.0,0.0,0.0,0.0,0.0,0.0,0.0,0.0,0.0,0.0,0.0,0.0,0.0,0.0,0.0,1.2172,1.3159,1.5334,1.5592,1.6377,1.7878,2.073,2.2909,2.4354,2.5946,2.6758,2.6807,2.4996,2.3244,2.1524,2.0044,1.8465,1.688,1.6191,1.5435,1.4656,1.3979,0.0,0.0,0.0,0.0,0.0,0.0,0.0,0.0,0.0,0.0,0.0,0.0,0.0,1.7929,1.868,1.9525,2.039,2.1259,2.318,2.5117,2.5986,2.7327,2.863,2.9355,3.0152,3.0948,3.1691,3.1347,3.1383,3.2964,3.455,3.6231,3.8018,3.9589,4.0919,4.1865,4.2649,4.3415,4.4217,4.5074,4.5933,4.6815,4.7675,4.8245,4.8359,4.8359,4.8398,4.8398,4.8398,4.8361,4.8306,4.8306,4.8306,4.8306,4.8306,4.8306,4.8306,4.8306,4.8306,4.8343,4.9069,4.9834,5.0639,5.1298,5.1952,5.259,5.259,5.2064,5.1212,5.047,4.9202,4.7747,4.7572,4.7407,4.7276,0.0,0.0,0.0,0.0,0.0,0.0,0.0,0.0,0.0,0.0,0.0,0.0,0.0,0.0,0.0,0.0,0.0,0.0,0.0,1.2506,1.3377,1.4704,1.5741,1.6987,1.8494,2.009,2.2111,2.4506,2.5964,2.6742,2.6724,2.4228,2.2449,2.1327,1.9917,1.8431,1.6984,1.6708,1.6177,1.5523,1.5245,1.4878,0.0,0.0,0.0,0.0,0.0,0.0,0.0,0.0,1.5188,1.5768,1.6563,1.7217,1.7874,1.8662,1.9164,1.9741,2.1133,2.2854,2.4683,2.6512,2.8547,3.0231,3.0539,3.1629,3.2791,3.3629,3.3985,3.4488,3.5587,3.6741,3.8018,3.9641,4.0826,4.1829,4.2631,4.3068,4.3633,4.4419,4.537,4.625,4.7095,4.7903,4.8381,4.8419,4.8363,4.8363,4.8419,4.8401,4.8401,4.8401,4.8401,4.8363,4.8306,4.8306,4.8306,4.8306,4.8306,4.8306,4.8324,4.8598,4.9398,5.0602,5.0871,5.1645,5.2662,5.2162,5.1401,5.0522,4.9155,4.8242,4.7699,4.7657,4.7554,4.7407,0.0,0.0,0.0,0.0,0.0,0.0,0.0,0.0,0.0,0.0,0.0,0.0,0.0,0.0,0.0,0.0,0.0,0.0,1.1644,1.2406,1.3275,1.4262,1.5603,1.7033,1.8515,1.9677,2.1711,2.4715,2.6048,2.6707,2.6619,2.3465,2.1742,2.1276,1.9917,1.8706,1.7707,1.7228,1.6786,1.6357,1.6132,1.5784,0.0,0.0,0.0,0.0,0.0,0.0,0.0,0.0,1.4367,1.5003,1.6078,1.6838,1.7568,1.8608,1.9146,1.9704,2.1115,2.2837,2.4722,2.6879,2.9493,3.1655,3.2211,3.3148,3.4295,3.5647,3.6608,3.7314,3.7606,3.835,3.9319,4.0656,4.1551,4.239,4.3194,4.3393,4.3849,4.493,4.5716,4.6559,4.7628,4.82,4.8513,4.8513,4.8458,4.842,4.8532,4.8513,4.8513,4.8513,4.8494,4.8457,4.8363,4.8306,4.8306,4.8306,4.8306,4.8306,4.8306,4.8306,4.9166,5.0643,5.0643,5.1517,5.2795,5.1879,5.0864,4.9688,4.8285,4.7717,4.7717,4.7717,4.7615,4.7468,0.0,0.0,0.0,0.0,0.0,0.0,0.0,0.0,0.0,0.0,0.0,0.0,0.0,0.0,0.0,0.0,0.0,0.0,1.0849,1.1658,1.2757,1.4224,1.5056,1.621,1.7743,1.9782,2.2259,2.5208,2.6184,2.6669,2.6588,2.2852,2.1201,2.1353,1.9951,1.9309,1.9228,1.7755,1.7153,1.7176,1.6412,1.6168,1.6203,0.0,0.0,0.0,0.0,0.0,0.0,0.0,1.3995,1.4271,1.5882,1.6478,1.6897,1.8463,1.956,2.0481,2.1296,2.3275,2.5496,2.7113,3.0006,3.2867,3.4613,3.4932,3.5531,3.794,3.9159,3.9603,3.8841,3.9386,4.0175,4.0983,4.1791,4.258,4.3387,4.3548,4.4223,4.588,4.617,4.6833,4.8421,4.8587,4.8587,4.8587,4.8587,4.8587,4.8587,4.8587,4.8587,4.8587,4.8532,4.8513,4.8513,4.8363,4.8306,4.8306,4.8306,4.8306,4.8306,4.8306,4.9224,5.0802,5.0802,5.1619,5.2926,5.1974,5.0526,4.8822,4.8025,4.7717,4.7717,4.7717,4.7615,4.7468,0.0,0.0,0.0,0.0,0.0,0.0,0.0,0.0,0.0,0.0,0.0,0.0,0.0,0.0,0.0,0.0,0.0,0.0,1.0882,1.214,1.3073,1.3506,1.4264,1.5375,1.6913,2.0178,2.2632,2.4202,2.4503,2.4608,2.4394,2.2147,2.1228,2.1422,2.0491,2.0067,1.9998,1.9104,1.877,1.8742,1.8019,1.7411,1.6975,0.0,0.0,0.0,0.0,0.0,0.0,0.0,0.0,0.0,1.5949,1.653,1.6897,1.8498,1.9596,2.0608,2.2024,2.4133,2.6609,2.9405,3.1699,3.4054,3.6881,3.7503,3.8016,3.9896,4.0514,4.0657,4.0451,4.1056,4.1662,4.1919,4.265,4.329,4.3529,4.3686,4.4159,4.521,4.5888,4.6715,4.7789,4.8399,4.8732,4.8732,4.8642,4.8642,4.8732,4.8732,4.8732,4.8732,4.8624,4.855,4.8513,4.8363,4.8306,4.8306,4.8306,4.8306,4.8306,4.8306,4.9224,5.0802,5.0802,5.1678,5.3011,5.1414,4.9731,4.8146,4.7808,4.7717,4.7717,4.7717,4.7615,4.7468,0.0,0.0,0.0,0.0,0.0,0.0,0.0,0.0,0.0,0.0,0.8705,0.8705,0.0,0.0,0.0,0.0,0.0,0.0,0.0,1.2473,1.3154,1.3154,1.4174,1.5586,1.7429,1.9461,2.1109,2.2281,2.2902,2.3187,2.3078,2.2119,2.178,2.1919,2.1179,2.0884,2.0856,2.0166,1.9769,1.9503,1.909,1.8463,1.7764,0.0,0.0,0.0,0.0,0.0,0.0,0.0,0.0,0.0,1.5607,1.6276,1.6841,1.8136,1.9577,2.1061,2.2444,2.4796,2.7575,3.0501,3.2985,3.5677,3.9282,4.0107,4.0349,4.1354,4.1589,4.157,4.1603,4.2022,4.2353,4.2404,4.3118,4.3667,4.3667,4.3786,4.4132,4.4927,4.5545,4.6242,4.7095,4.7893,4.8375,4.8375,4.8564,4.875,4.8857,4.8857,4.8857,4.8857,4.8732,4.8605,4.855,4.8438,4.8363,4.8306,4.8306,4.8306,4.8306,4.8306,4.9224,5.082,5.1132,5.1605,5.204,5.0537,4.9094,4.7879,4.7759,4.7717,4.7717,4.7717,4.7615,4.7468,0.0,0.0,0.0,0.0,0.0,0.0,0.0,0.0,0.0,0.0,0.8705,0.8705,0.0,0.0,0.0,0.0,0.0,0.0,0.0,1.2654,1.3102,1.3102,1.4569,1.6368,1.8437,1.7959,1.8367,1.9799,2.1327,2.2176,2.2375,2.2436,2.2531,2.2588,2.1979,2.1737,2.1742,2.0947,2.0249,1.9685,1.9605,1.9152,1.8505,1.8508,0.0,0.0,0.0,0.0,0.0,0.0,0.0,0.0,1.5067,1.5911,1.6763,1.7575,1.9576,2.1716,2.2663,2.5314,2.8416,3.0931,3.4174,3.7757,4.1553,4.2441,4.2448,4.2448,4.2448,4.2448,4.2511,4.2511,4.2562,4.2696,4.3324,4.3804,4.3804,4.3883,4.4175,4.4897,4.5199,4.5584,4.6308,4.7125,4.759,4.759,4.8277,4.8686,4.8686,4.876,4.8797,4.8797,4.882,4.8714,4.8512,4.8458,4.831,4.8086,4.8159,4.8196,4.8196,4.8269,4.9224,5.0839,5.1573,5.1422,5.0529,4.9583,4.8675,4.7902,4.7759,4.7717,4.7717,4.7717,4.7615,4.745,0.0,0.0,0.0,0.0,0.0,0.0,0.0,0.0,0.0,0.0,0.0,0.0,0.0,0.0,0.0,0.0,0.0,0.0,0.0,1.2373,1.3102,1.3102,1.4569,1.5649,1.6202,1.649,1.7149,1.8262,1.9764,2.0756,2.1242,2.1524,2.2031,2.2685,2.2513,2.2496,2.2487,2.1173,2.0563,2.0368,1.9219,1.868,1.8508,1.7893,1.7117,0.0,0.0,0.0,0.0,0.0,0.0,0.0,1.512,1.5984,1.6841,1.7724,1.9679,2.1917,2.3415,2.6222,2.9499,3.2636,3.685,4.0634,4.2216,4.3033,4.348,4.348,4.348,4.3461,4.3494,4.3494,4.3494,4.3545,4.374,4.3883,4.3883,4.3929,4.4029,4.4215,4.4878,4.5361,4.5528,4.629,4.6754,4.6754,4.6921,4.7014,4.7014,4.7608,4.7961,4.7961,4.8524,4.849,4.7807,4.7718,4.7278,4.6562,4.7206,4.7481,4.7388,4.8012,4.9224,5.082,5.0986,5.0949,5.0688,4.9624,4.8739,4.797,4.7783,4.7717,4.7717,4.7717,4.7554,4.7363,0.0,0.0,0.0,0.0,0.0,0.0,0.0,0.0,0.0,0.0,0.0,0.0,0.0,0.0,0.0,0.0,0.0,0.0,0.0,0.0,1.3266,1.3752,1.4103,1.4741,1.5715,1.5629,1.6118,1.7243,1.8025,1.927,2.0926,2.1146,2.1764,2.2659,2.2712,2.2583,2.2277,2.1551,2.0835,2.0145,1.9383,1.8896,1.8528,1.7736,1.701,1.6298,1.5528,0.0,0.0,0.0,0.0,0.0,0.0,0.0,1.6341,1.7173,1.9164,2.1568,2.3602,2.6562,3.018,3.4647,3.8596,4.1613,4.2464,4.3341,4.3998,4.3998,4.3902,4.3804,4.3851,4.3851,4.3851,4.3883,4.3929,4.3961,4.3961,4.3974,4.4005,4.4005,4.4395,4.4674,4.4674,4.5435,4.5918,4.5918,4.6271,4.6494,4.6494,4.6903,4.7125,4.7125,4.75,4.7451,4.6972,4.6919,4.6611,4.6172,4.6524,4.6856,4.715,4.8379,4.9389,5.0215,5.0215,5.0215,5.0141,4.9058,4.8375,4.7992,4.7783,4.7717,4.7717,4.7717,4.7511,4.7302,0.0,0.0,0.0,0.0,0.0,0.0,0.0,0.0,0.0,0.0,0.0,0.0,0.0,0.0,0.0,0.0,0.0,0.0,0.0,0.0,0.0,1.4217,1.3508,1.3943,1.5735,1.5071,1.5321,1.661,1.6538,1.7951,2.0746,2.0801,2.1462,2.2623,2.2738,2.2426,2.1788,2.172,2.0915,1.9682,1.9565,1.9145,1.8529,1.779,1.7133,1.6509,1.561,1.4906,1.4396,1.4257,0.0,0.0,0.0,0.0,1.5777,1.6583,1.8514,2.0919,2.3327,2.6776,3.0923,3.6231,3.9359,4.1419,4.2514,4.3416,4.4046,4.4195,4.4061,4.3883,4.3979,4.3961,4.3992,4.4036,4.4036,4.4036,4.4036,4.4036,4.4036,4.4055,4.4036,4.4036,4.4005,4.4655,4.5082,4.5082,4.5695,4.6067,4.6067,4.6215,4.629,4.629,4.642,4.6387,4.6135,4.6135,4.6012,4.5782,4.5989,4.6434,4.713,4.8673,4.9444,4.9572,4.9426,4.9444,4.9517,4.8477,4.8032,4.7992,4.7783,4.7717,4.7717,4.7717,4.7554,4.732,0.0,0.0,0.0,0.0,0.0,0.0,0.0,0.0,0.0,0.0,0.8657,0.8705,0.0,0.0,0.0,0.0,0.0,0.0,1.0908,0.0,0.0,1.3281,1.3176,1.3661,1.4857,1.4477,1.5028,1.661,1.5974,1.7197,2.012,1.9847,2.0764,2.2623,2.2738,2.2426,2.1753,2.1127,2.0412,1.9635,1.8984,1.8727,1.8589,1.779,1.7522,1.734,1.5836,1.5275,1.5152,1.4495,1.4286,0.0,0.0,0.0,1.5843,1.6648,1.8155,2.0089,2.2498,2.7226,3.234,3.5994,3.8279,4.0197,4.2454,4.305,4.3359,4.4136,4.4255,4.4226,4.4255,4.4255,4.4255,4.4255,4.4255,4.4255,4.4255,4.4255,4.4226,4.4184,4.4184,4.4135,4.4005,4.4116,4.4172,4.4172,4.4265,4.4339,4.4339,4.5045,4.5454,4.5454,4.6141,4.616,4.5454,4.5435,4.4985,4.4155,4.5348,4.6324,4.715,4.8049,4.8893,4.9536,4.8802,4.8893,4.9517,4.8574,4.809,4.7992,4.7925,4.7819,4.7717,4.7717,4.7615,4.7468,0.0,0.0,0.0,0.0,0.0,0.0,0.0,0.0,0.0,0.0,0.0,0.8645,0.0,0.0,0.0,0.864,0.9258,1.009,1.1117,1.2257,1.294,1.3092,1.31,1.333,1.38,1.3693,1.3986,1.4695,1.5238,1.661,1.8773,1.9459,2.0773,2.2552,2.273,2.2173,2.1109,2.0858,2.0121,1.9056,1.8723,1.8905,1.923,1.8057,1.7931,1.8162,1.6597,1.5764,1.536,1.5103,1.473,1.4367,1.4387,0.0,0.0,0.0,1.744,1.9723,2.4077,2.8496,3.2426,3.4838,3.738,3.9589,4.0672,4.2072,4.3222,4.3596,4.4055,4.4401,4.4314,4.4285,4.4285,4.4285,4.4285,4.4285,4.4285,4.4285,4.4285,4.4274,4.4214,4.4184,4.4135,4.4036,4.4005,4.4005,4.4005,4.4005,4.4005,4.4358,4.4562,4.4562,4.4915,4.4934,4.4581,4.4562,4.43,4.3822,4.4812,4.5681,4.6452,4.7278,4.8086,4.8838,4.8471,4.8526,4.8838,4.8373,4.8148,4.809,4.7984,4.7861,4.7801,4.7717,4.7615,4.7511,0.0,0.0,0.0,0.0,0.0,0.0,0.0,0.0,0.0,0.0,0.0,0.0,0.0,0.0,0.0,0.0,0.9042,0.9833,1.1033,1.2156,1.2755,1.2675,1.2224,1.2206,1.2704,1.2774,1.2936,1.3211,1.4333,1.5896,1.783,1.9355,2.096,2.2569,2.2738,2.2111,2.09,2.0828,2.0178,1.92,1.8992,1.944,2.0105,1.9003,1.8968,1.9327,1.776,1.6851,1.6302,1.5996,1.5369,1.4739,1.4739,1.4617,0.0,0.0,0.0,1.9666,2.4459,2.8184,3.119,3.3284,3.5979,3.8315,3.9175,4.0873,4.2406,4.2819,4.3577,4.4168,4.4055,4.4194,4.4344,4.4344,4.4344,4.4344,4.4344,4.4344,4.4344,4.4344,4.4285,4.4244,4.4184,4.4104,4.4055,4.4005,4.4005,4.4005,4.4005,4.4005,4.4005,4.4005,4.4005,4.4005,4.4005,4.3992,4.3865,4.3771,4.4444,4.5073,4.5626,4.6434,4.7241,4.8012,4.8214,4.8306,4.8306,4.8247,4.8226,4.8206,4.8006,4.7943,4.7902,4.7801,4.7675,4.7554,0.0,0.0,0.0,0.0,0.0,0.0,0.0,0.0,0.0,0.0,0.0,0.0,0.8599,0.8599,0.8599,0.8599,0.8566,0.8984,1.0008,1.1795,1.2413,1.1538,0.9779,0.0,1.1629,1.1676,1.2174,1.3209,1.3282,1.4845,1.783,1.9495,2.1137,2.2685,2.2842,2.2467,2.1683,2.1073,2.0815,2.0817,2.0038,2.0299,2.1117,2.1046,2.1125,2.1059,1.9452,1.8889,1.8681,1.7227,1.6246,1.563,1.5625,1.5117,1.4669,0.0,0.0,0.0,2.1831,2.4802,2.8128,3.1405,3.3545,3.5691,3.8863,3.969,4.0215,4.1747,4.2769,4.3351,4.3351,4.3989,4.4487,4.4487,4.4487,4.4487,4.4487,4.4487,4.4458,4.4383,4.4383,4.4344,4.4214,4.4184,4.4135,4.4005,4.4005,4.4005,4.4005,4.4005,4.4005,4.4005,4.4005,4.4005,4.4005,4.3883,4.3753,4.3634,4.434,4.4727,4.48,4.5608,4.6416,4.7223,4.7976,4.8306,4.8306,4.8306,4.8247,4.8187,4.8187,4.8046,4.7902,4.7902,4.7801,4.7657,0.0,0.0,0.0,0.0,0.0,0.0,0.0,0.0,0.0,0.0,0.0,0.0,0.0,0.966,0.9953,0.9955,0.9489,0.9151,0.9032,0.9707,0.9961,0.961,0.9908,0.9974,0.9749,1.0671,1.1885,1.3392,1.326,1.4345,1.6555,1.8202,2.0333,2.2838,2.2927,2.2544,2.1843,2.1657,2.1344,2.0976,2.0693,2.1437,2.2697,2.2219,2.2731,2.3497,2.1949,2.1062,2.0407,1.8909,1.7892,1.7069,1.6085,1.5569,1.539,1.5769,1.7263,1.9223,2.0933,2.3805,2.6873,2.9158,3.1371,3.3588,3.5859,3.7624,3.9089,4.0234,4.1529,4.2487,4.2487,4.3595,4.4515,4.4515,4.4515,4.4515,4.4515,4.4515,4.4487,4.4487,4.4411,4.4354,4.4255,4.4214,4.4135,4.4005,4.4005,4.4005,4.4005,4.4005,4.4005,4.4005,4.4005,4.3974,4.3929,4.3869,4.3719,4.3582,4.3807,4.4195,4.4727,4.5002,4.5571,4.6379,4.7186,4.7829,4.8306,4.8306,4.8286,4.8247,4.8226,4.8108,4.7947,4.7902,4.7819,4.7699,0.0,0.0,0.0,0.0,0.0,0.0,0.0,0.0,0.9366,0.937,0.0,0.0,0.0,0.0,1.0732,1.0734,1.0295,0.9586,0.8605,0.8564,0.8618,0.8669,0.9653,0.9724,0.8721,0.9689,1.0782,1.196,1.2884,1.3905,1.5041,1.7256,1.9412,2.1447,2.2017,2.2262,2.2299,2.2125,2.1953,2.1812,2.1839,2.2714,2.4015,2.379,2.4414,2.5262,2.3967,2.3189,2.2555,2.1038,1.984,1.8713,1.7443,1.6497,1.5859,1.5912,1.6932,1.8398,2.0113,2.258,2.5164,2.7111,2.925,3.1411,3.3366,3.5528,3.7445,3.8597,4.0096,4.1292,4.1593,4.2731,4.3764,4.4064,4.4102,4.4195,4.4477,4.4515,4.4515,4.4515,4.4458,4.4401,4.4314,4.4274,4.4165,4.4005,4.4005,4.4005,4.4005,4.4005,4.4005,4.4005,4.4005,4.3961,4.3883,4.3837,4.3719,4.3548,4.3513,4.3773,4.4305,4.4305,4.4745,4.5535,4.6067,4.6911,4.7921,4.8196,4.8306,4.8306,4.8247,4.813,4.7992,4.7947,4.7824,4.7717,0.0,0.0,0.0,0.0,0.0,0.0,0.0,0.0,1.0895,1.0902,0.0,0.0,0.0,0.0,0.0,1.086,1.086,1.0231,0.8752,0.8629,0.8685,0.88,0.8795,0.8769,0.8705,0.8768,0.8837,0.8911,1.2028,1.3492,1.3498,1.6835,1.844,1.8581,2.0062,2.1587,2.2996,2.2365,2.2605,2.3389,2.3499,2.4131,2.5072,2.5876,2.6294,2.6336,2.5532,2.5327,2.5193,2.3639,2.2058,2.0599,1.9767,1.7888,1.5974,1.6033,1.6645,1.769,0.0,0.0,0.0,2.5314,2.7159,2.9058,3.1638,3.3505,3.5164,3.6882,3.8441,3.9768,4.061,4.1386,4.2187,4.305,4.3219,4.3538,4.4327,4.4439,4.4439,4.4439,4.4439,4.4383,4.424,4.421,4.4132,4.3931,4.3949,4.3949,4.3931,4.3931,4.3931,4.3931,4.3949,4.3892,4.3767,4.3786,4.3686,4.3497,4.3497,4.3497,4.3497,4.3497,4.392,4.4672,4.4709,4.5608,4.7075,4.7921,4.8288,4.8306,4.8306,4.819,4.7992,4.7992,4.7888,4.7717,0.0,0.0,0.0,0.0,0.0,1.0667,1.0698,1.0851,1.097,0.0,0.0,0.0,1.2405,1.3322,1.3497,1.2483,1.2385,1.163,0.9812,0.955,0.9248,0.8755,0.8781,0.8789,0.8768,0.8886,0.9014,0.9112,1.1109,1.2632,1.3738,1.5503,1.7116,1.8586,1.9019,2.0124,2.1693,2.2012,2.234,2.2732,2.4006,2.5415,2.6874,2.7665,2.8755,2.974,2.9051,2.8805,2.8539,2.646,2.5097,2.3742,2.0625,1.8783,1.7669,1.7105,1.751,1.8263,1.8707,0.0,0.0,0.0,0.0,0.0,2.9771,3.1299,3.2713,3.5013,3.6252,3.719,3.8056,3.8836,3.9614,4.0478,4.1605,4.2449,4.2675,4.2712,4.2712,4.2712,4.2712,4.2631,4.2492,4.2492,4.2435,4.2289,4.2797,4.2872,4.2296,4.2259,4.2259,4.2259,4.2773,4.2995,4.2881,4.3406,4.36,4.3497,4.3497,4.3497,4.3497,4.3497,4.3608,4.3864,4.4452,4.4966,4.548,4.6874,4.7774,4.8306,4.8306,4.8247,4.813,4.805,4.7929,4.7819,0.0,0.0,0.0,1.0958,1.1578,1.1999,1.1999,1.2521,1.2908,0.0,0.0,0.0,1.4017,1.4718,1.4842,1.4038,1.3399,1.2564,1.1461,1.071,0.9978,0.9276,0.927,0.916,0.8845,0.9364,0.9489,0.92,1.0102,1.169,1.3902,1.4518,1.5722,1.7365,1.7577,1.8412,1.9697,2.056,2.1476,2.259,2.4622,2.6271,2.7634,2.8822,3.0118,3.1254,3.0852,3.0759,3.0549,2.8929,2.7454,2.563,2.1952,2.0463,1.9932,1.9124,1.9223,1.9656,2.0025,2.0866,2.1953,2.3248,0.0,0.0,2.7781,2.9198,3.0655,3.2845,3.3863,3.4764,3.5991,3.681,3.7474,3.7962,3.9126,4.044,4.1804,4.1991,4.1991,4.1991,4.1991,4.1938,4.1801,4.1801,4.1745,4.1619,4.2017,4.2092,4.1627,4.159,4.159,4.159,4.1983,4.2112,4.2013,4.2396,4.272,4.3002,4.3002,4.3167,4.3497,4.3497,4.3497,4.3516,4.3993,4.4397,4.4819,4.6085,4.7076,4.7847,4.8177,4.8247,4.8187,4.805,4.7947,4.7861,0.0,0.0,1.1386,1.1466,1.2685,1.3667,1.3667,1.4768,1.5609,0.0,1.5772,1.5849,1.5758,1.5728,1.5674,1.5541,1.4349,1.3475,1.3221,1.1973,1.0901,1.0165,1.0081,0.9777,0.9176,1.0165,1.0276,0.9445,0.9538,1.1006,1.3738,1.3859,1.4497,1.5602,1.6169,1.6861,1.7697,1.8873,2.0626,2.2849,2.5194,2.6726,2.7851,2.96,3.0919,3.1838,3.1912,3.204,3.2038,3.1188,2.9341,2.6856,2.3821,2.2797,2.2566,2.1771,2.1444,2.1557,2.2325,2.2476,2.2621,2.3485,2.4236,0.0,2.5982,2.7346,2.89,3.0587,3.1428,3.2374,3.3939,3.4932,3.5484,3.5484,3.6216,3.7906,4.1022,4.1522,4.1578,4.1578,4.1653,4.1657,4.1539,4.1539,4.1455,4.1311,4.1311,4.1349,4.146,4.1367,4.1311,4.1311,4.1334,4.128,4.1163,4.118,4.1507,4.2176,4.2268,4.2671,4.3369,4.3442,4.3497,4.3497,4.3497,4.3901,4.4635,4.5424,4.6305,4.7205,4.7994,4.8247,4.8187,4.809,4.7988,4.7902,0.0,1.2624,1.3222,1.382,1.4672,1.525,1.525,1.5448,1.5815,1.639,1.744,1.8128,1.8043,1.8245,1.7988,1.7077,1.6789,1.5664,1.3338,1.2923,1.2237,1.1025,1.0552,1.0481,1.0817,1.1464,1.1516,1.0966,1.1629,1.1978,1.2091,1.3378,1.447,1.5398,1.6128,1.6992,1.7987,2.0119,2.1753,2.3088,2.4846,2.6826,2.8902,3.0636,3.2637,3.4552,3.4698,3.5157,3.5404,3.3515,3.122,2.8857,2.6927,2.5884,2.5186,2.4389,2.3652,2.3162,2.3332,2.2892,2.2615,2.3466,2.3814,0.0,2.5849,2.6437,2.7157,2.8843,2.9252,2.9618,3.06,3.1958,3.2896,3.2837,3.4113,3.5766,3.7774,3.8619,3.9032,3.9032,3.9602,3.9963,3.9885,3.9768,3.9667,3.9584,3.9584,3.9881,4.0587,3.9974,3.9556,3.9517,4.0078,4.032,4.0259,4.0845,4.1185,4.135,4.1992,4.2378,4.2561,4.3185,4.3497,4.3497,4.3497,4.3589,4.3791,4.4599,4.581,4.7205,4.7994,4.8306,4.8286,4.8169,4.809,4.797,1.2879,1.3546,1.4178,1.4537,1.5545,1.6413,1.6748,1.708,1.7545,1.8251,1.8964,1.9362,1.9261,1.9543,1.9316,1.8251,1.7748,1.6897,1.5441,1.3996,1.2941,1.2326,1.1374,1.0989,1.1287,1.2344,1.2544,1.1794,1.2362,1.249,1.2224,1.3015,1.4076,1.5317,1.5788,1.6709,1.8016,1.9731,2.1441,2.3199,2.5623,2.7853,2.9945,3.2112,3.3975,3.5458,3.6019,3.6485,3.6595,3.4652,3.3216,3.1883,2.9842,2.8915,2.8348,2.7153,2.6492,2.6057,2.5655,2.5253,2.4945,2.4964,2.4959,0.0,0.0,2.5598,2.5944,2.7195,2.7396,2.7595,2.8393,2.9529,3.034,3.0265,3.1316,3.2593,3.3832,3.5784,3.7249,3.7643,3.8027,3.8216,3.8159,3.807,3.7992,3.7894,3.8265,3.8692,3.912,3.9092,3.9036,3.8979,3.928,3.946,3.9399,3.973,4.0102,4.0506,4.091,4.1515,4.2304,4.2708,4.3112,4.3497,4.3497,4.3497,4.3552,4.4378,4.5424,4.6581,4.7407,4.7957,4.8306,4.8208,4.8148,4.7992,1.3511,1.423,1.4845,1.4845,1.613,1.736,1.8068,1.8614,1.9348,2.0331,2.0576,2.0675,2.0669,2.087,2.0594,1.9564,1.879,1.8135,1.7592,1.5342,1.3954,1.3752,1.272,1.203,1.1761,1.3213,1.3407,1.2217,1.2697,1.2899,1.2803,1.2975,1.3854,1.5343,1.5767,1.6784,1.8263,1.9717,2.1653,2.4026,2.7103,2.9175,3.0705,3.3329,3.4915,3.5926,3.7001,3.7389,3.7145,3.5622,3.499,3.4451,3.2296,3.15,3.1102,2.981,2.9317,2.9014,2.8195,2.7854,2.7494,2.647,2.6205,2.5996,0.0,0.0,0.0,2.5844,2.5934,2.6023,2.6503,2.7248,2.7706,2.7486,2.8312,2.927,3.0077,3.2649,3.494,3.6216,3.6452,3.6494,3.6422,3.6497,3.657,3.6686,3.7299,3.7726,3.7867,3.8461,3.883,3.895,3.8851,3.8792,3.8792,3.8719,3.9038,3.9662,3.9827,4.0653,4.2066,4.2231,4.2745,4.3497,4.3497,4.3497,4.3534,4.4195,4.4947,4.5755,4.6746,4.7609,4.8306,4.8247,4.813,4.805,1.3589,1.4762,1.5742,1.5742,1.6978,1.8211,1.8949,1.9024,1.9721,2.1769,2.2615,2.3228,2.3809,2.3486,2.2765,2.1562,2.1549,2.0498,1.7929,1.735,1.6433,1.4971,1.5151,1.4691,1.3446,1.4485,1.4131,1.229,1.3281,1.344,1.282,1.3578,1.4463,1.5458,1.6968,1.82,1.9335,2.2372,2.4746,2.6674,2.9237,3.0389,3.0857,3.3426,3.5371,3.6963,3.8602,3.8841,3.8203,3.7303,3.6058,3.4737,3.3788,3.2952,3.2307,3.2117,3.1564,3.0807,2.9867,2.9109,2.818,2.6588,2.6205,2.5996,2.5181,0.0,2.5029,2.5124,0.0,2.4893,2.4162,0.0,0.0,2.4178,2.5399,2.6714,2.7505,2.8575,3.0377,3.3456,3.4345,3.4708,3.4685,3.528,3.595,3.6649,3.6779,3.7124,3.7785,3.7896,3.82,3.8785,3.8822,3.8762,3.8689,3.8707,3.8762,3.8836,3.9551,4.0377,4.1277,4.1974,4.2745,4.3497,4.3497,4.3497,4.3497,4.3589,4.4103,4.5002,4.6526,4.7609,4.8306,4.8306,4.8247,4.8187,1.3605,1.4848,1.5899,1.5899,1.7156,1.8392,1.9104,1.9802,2.0925,2.2699,2.3207,2.365,2.4315,2.4185,2.3986,2.3739,2.3786,2.2909,2.0682,1.9672,1.8501,1.6963,1.7092,1.6668,1.5505,1.5349,1.4805,1.3876,1.39,1.3779,1.3561,1.4421,1.5275,1.6233,1.792,1.9417,2.0939,2.3786,2.6024,2.7922,3.0988,3.251,3.3147,3.5192,3.7038,3.8606,3.9354,3.9463,3.9139,3.835,3.7332,3.6273,3.5495,3.4677,3.3897,3.3384,3.3004,3.2547,3.1694,3.0861,2.9918,2.8719,2.7679,2.6735,2.5901,2.5351,2.501,2.501,0.0,0.0,0.0,0.0,0.0,0.0,2.3708,2.4125,2.4933,2.5346,2.6979,3.0809,3.1422,3.1712,3.2151,3.2478,3.3175,3.4457,3.4977,3.5583,3.6358,3.7248,3.7858,3.8092,3.8523,3.875,3.875,3.875,3.878,3.881,3.9111,3.9908,4.1176,4.146,4.2304,4.3497,4.3497,4.3497,4.3497,4.3497,4.3975,4.4819,4.5975,4.6911,4.7682,4.8141,4.8247,4.8187,1.3605,1.4676,1.5658,1.5864,1.6984,1.8237,1.9338,2.0679,2.2099,2.3583,2.4113,2.4625,2.5306,2.5559,2.5762,2.5981,2.6004,2.5364,2.3823,2.2395,2.0933,1.9509,1.9456,1.8755,1.7252,1.6518,1.5783,1.5025,1.4491,1.4193,1.4131,1.496,1.5944,1.7107,1.9038,2.0982,2.2977,2.556,2.7791,2.9846,3.261,3.4515,3.5838,3.7017,3.8418,3.9735,3.9735,3.9781,3.9757,3.8986,3.8344,3.7718,3.6919,3.6272,3.5681,3.5034,3.4863,3.4634,3.357,3.283,3.196,3.0402,2.9114,2.785,2.6541,2.5768,2.5275,2.5048,2.501,0.0,0.0,0.0,2.3172,2.2891,0.0,2.2154,2.2731,2.3032,2.4445,2.7918,2.8409,2.8781,2.95,2.9797,3.0575,3.221,3.3083,3.3987,3.4988,3.6518,3.746,3.7595,3.8327,3.875,3.8792,3.8822,3.8833,3.891,3.8851,3.9669,4.1204,4.1158,4.2007,4.3497,4.3497,4.3497,4.3497,4.3497,4.3828,4.4452,4.5259,4.6067,4.6911,4.7921,4.8286,4.8226,1.3605,1.4261,1.5055,1.5778,1.6536,1.7773,1.9938,2.1567,2.3048,2.4479,2.5919,2.7063,2.7794,2.8454,2.8687,2.8332,2.8269,2.7894,2.6919,2.5601,2.416,2.2633,2.2628,2.1266,1.8322,1.8278,1.7254,1.5108,1.5068,1.4725,1.4131,1.5058,1.6334,1.7957,2.056,2.3087,2.5558,2.8177,3.0779,3.3227,3.4191,3.6123,3.8461,3.8452,3.9022,3.9804,3.9867,3.9933,3.9863,3.9069,3.8765,3.8632,3.7889,3.764,3.7621,3.7583,3.7583,3.7202,3.5491,3.4997,3.4198,3.0906,3.0,2.9285,2.6854,2.6219,2.5939,2.5162,2.501,2.475,2.3896,2.3018,2.2161,2.1299,2.1091,0.0,0.0,2.1816,2.298,2.467,2.5489,2.6207,2.6953,2.7734,2.8866,3.0559,3.1433,3.2539,3.4055,3.5668,3.6869,3.7577,3.8368,3.8792,3.8792,3.8862,3.891,3.891,3.891,3.97,4.1204,4.1204,4.2022,4.3497,4.3497,4.3497,4.3497,4.3497,4.3516,4.3608,4.4415,4.5241,4.6122,4.7719,4.8306,4.8306,1.5124,1.5348,1.5607,1.5864,1.6519,1.7755,1.9956,2.1601,2.3299,2.5244,2.6785,2.7845,2.8228,2.9695,3.0588,3.0381,3.0421,2.9932,2.868,2.8148,2.6819,2.4386,2.4319,2.311,2.0465,1.9738,1.8735,1.7347,1.5361,1.4654,1.522,1.5589,1.6838,1.8872,2.1456,2.4026,2.6635,2.9746,3.2262,3.4341,3.647,3.8201,3.9515,3.9451,3.9643,3.9954,4.0015,4.0036,4.0039,3.9795,3.9376,3.8898,3.8685,3.8244,3.7768,3.7768,3.7731,3.758,3.699,3.6018,3.4895,3.377,3.1775,2.9844,2.8958,2.7865,2.6977,2.6716,2.666,2.638,2.5452,2.4611,2.3582,2.2128,2.1392,2.0802,0.0,2.0464,2.0827,2.1339,2.2555,2.3636,2.4371,2.5207,2.6619,2.8773,2.9741,3.111,3.321,3.4326,3.552,3.6823,3.7663,3.8346,3.8921,3.895,3.8979,3.9017,3.8979,3.9523,4.0547,4.1021,4.1825,4.2794,4.3413,4.3652,4.3548,4.3652,4.3686,4.376,4.4483,4.4908,4.5349,4.6911,4.7847,4.8306,1.5899,1.5899,1.5985,1.6243,1.7139,1.8478,2.0467,2.2288,2.4265,2.6519,2.8288,2.9501,2.9912,3.1372,3.2308,3.2312,3.2346,3.1768,3.0365,3.0262,2.9299,2.7113,2.67,2.5362,2.2925,2.1978,2.0682,1.9032,1.6783,1.5722,1.5801,1.6246,1.7483,1.9397,2.2207,2.506,2.7994,3.1096,3.3618,3.5741,3.8182,3.9501,4.0017,3.9996,4.0036,4.0057,4.0098,4.0138,4.0157,4.0215,3.9908,3.9505,3.9559,3.9176,3.8716,3.8716,3.8663,3.8569,3.8282,3.7387,3.6398,3.5806,3.377,3.1756,3.1115,2.9867,2.8677,2.8078,2.793,2.765,2.6767,2.5679,2.4426,2.3008,2.1795,2.0753,0.0,1.9807,1.9776,1.9713,2.0891,2.1894,2.2306,2.3124,2.4518,2.6674,2.7883,2.9442,3.1551,3.321,3.4715,3.6075,3.7165,3.8136,3.8979,3.9007,3.9064,3.9101,3.9064,3.9433,4.02,4.0688,4.1477,4.247,4.3088,4.3476,4.3667,4.3753,4.3804,4.3859,4.4291,4.4607,4.5049,4.6563,4.7627,4.8306,1.6019,1.6036,1.6312,1.7087,1.8465,1.9947,2.1359,2.3591,2.5919,2.8228,3.0367,3.1977,3.2767,3.3494,3.3956,3.4003,3.4003,3.3459,3.2139,3.2053,3.1614,3.0692,2.9807,2.8167,2.5717,2.4954,2.3136,2.018,1.9198,1.7824,1.607,1.7113,1.8279,1.9652,2.281,2.6153,2.956,3.2152,3.4792,3.7426,3.9269,4.0057,4.0098,4.0176,4.0176,4.0118,4.0196,4.0215,4.0215,4.027,4.0362,4.0396,4.0396,4.0396,4.0415,4.0454,4.0419,4.0211,3.9482,3.9181,3.8686,3.7101,3.5959,3.4854,3.3252,3.214,3.0991,2.9395,2.8969,2.8635,2.7778,2.6233,2.4771,2.3822,2.223,2.0816,1.9976,1.9826,1.9776,1.9713,2.0444,2.0891,2.0751,2.1518,2.271,2.4314,2.5894,2.7548,2.9314,3.227,3.4351,3.5321,3.6914,3.8137,3.8952,3.9055,3.9101,3.9101,3.9101,3.9453,4.0155,4.0193,4.1003,4.24,4.2493,4.2991,4.3749,4.3786,4.3804,4.3804,4.3804,4.4284,4.5155,4.6599,4.7609,4.8251,1.7707,1.8052,1.8844,2.0194,2.1211,2.1704,2.1361,2.4414,2.756,2.9673,3.1619,3.3055,3.3697,3.5042,3.5825,3.5682,3.5669,3.5613,3.5384,3.5457,3.4696,3.2792,3.2511,3.1489,2.9586,2.7936,2.5648,2.2739,2.0274,1.9218,1.9519,1.9052,1.968,2.1236,2.2584,2.5521,2.9605,3.1577,3.4691,3.8409,3.9659,4.0157,4.0177,4.0252,4.0289,4.0308,4.029,4.0308,4.0362,4.0362,4.0432,4.0466,4.0466,4.0466,4.06,4.1195,4.1353,4.1433,4.1761,4.0939,3.985,3.9431,3.7733,3.6052,3.556,3.4304,3.3108,3.2618,3.1979,3.1073,2.963,2.8411,2.6964,2.4903,2.262,2.1017,2.0797,2.0214,1.9795,1.9776,1.9982,2.0069,2.0004,2.069,2.1816,2.3491,2.4537,2.6377,2.9258,3.0742,3.2428,3.4433,3.6122,3.7365,3.8164,3.8804,3.9101,3.9101,3.9101,3.9212,3.9407,4.0057,4.05,4.0866,4.2168,4.2835,4.3032,4.3688,4.3961,4.3961,4.3897,4.435,4.5189,4.6743,4.7445,4.7647,1.924,2.0033,2.1073,2.1969,2.3185,2.3876,2.3498,2.626,2.9188,3.1411,3.3134,3.4592,3.5602,3.6561,3.7228,3.746,3.7505,3.7245,3.6713,3.6811,3.6155,3.4531,3.4534,3.367,3.1827,3.0012,2.7656,2.4706,2.1896,2.0388,2.0117,1.9557,2.0108,2.1607,2.2463,2.4957,2.8745,3.2354,3.5797,3.8918,3.9834,4.0253,0.0,4.0325,4.0379,4.0432,4.0394,4.0394,4.0432,4.0432,4.0466,4.0495,4.0495,4.0495,4.0668,4.1495,4.1711,4.1869,4.2659,4.2162,4.1398,4.138,4.0042,3.8591,3.8192,3.7048,3.5867,3.5107,3.4236,3.3118,3.1409,3.007,2.8278,2.5371,2.3081,2.1664,2.1664,2.1211,2.0772,2.0415,2.0346,2.017,1.9776,2.0092,2.0835,2.2114,2.3308,2.5093,2.766,2.9574,3.1541,3.3603,3.5627,3.7076,3.7894,3.8692,3.9101,3.9101,3.9101,3.9101,3.912,3.9602,4.0001,4.0362,4.169,4.2451,4.2811,4.3639,4.4005,4.4005,4.3961,4.4207,4.4716,4.6027,4.6627,4.6929,2.0694,2.1953,2.3083,2.3362,2.4959,2.6444,2.6987,2.8754,3.0907,3.3382,3.4795,3.6133,3.7725,3.8021,3.8422,3.9268,3.9355,3.8754,3.7352,3.7365,3.7013,3.6101,3.6215,3.5297,3.3212,3.1635,2.9364,2.6339,2.3707,2.1458,1.9608,1.9442,2.0018,2.1317,2.2427,2.4666,2.7951,3.3771,3.7243,3.8916,3.9852,4.0307,4.0415,4.0413,4.0449,4.0499,4.0508,4.0508,4.0499,4.0515,4.0511,4.0504,4.0504,4.0504,4.0677,4.1546,4.1857,4.2074,4.2939,4.3098,4.2986,4.2986,4.2317,4.1495,4.0788,3.9814,3.867,3.7201,3.6136,3.4902,3.3173,3.1295,2.8966,2.5759,2.392,2.2892,2.2892,2.2644,2.2222,2.1506,2.1179,0.0,2.0032,1.9801,2.0012,2.0765,2.2278,2.3882,2.5633,2.8646,3.108,3.2809,3.5169,3.6842,3.7753,3.8544,3.9008,3.9101,3.9101,3.9101,3.9101,3.9101,3.951,4.0271,4.1089,4.1887,4.2705,4.3503,4.3893,4.4005,4.4005,4.4036,4.4129,4.4891,4.5486,4.6073,2.2262,2.3613,2.5097,2.6422,2.8004,2.9567,3.0939,3.1498,3.2862,3.5929,3.5972,3.6439,3.8181,3.9171,4.0098,4.1078,4.1153,4.074,3.9758,3.9729,3.9239,3.8135,3.8231,3.7255,3.5001,3.3436,3.1186,2.8146,2.5085,2.2809,2.124,2.0096,2.0125,2.1194,2.2557,2.5525,2.9813,3.4461,3.7026,3.8056,3.9712,4.0415,4.0482,4.0476,4.0508,4.0573,4.0579,4.0583,4.0573,4.0583,4.0593,4.0574,4.0574,4.0583,4.0746,4.1632,4.2332,4.303,4.3861,4.4056,4.4018,4.3981,4.3254,4.2527,4.2374,4.117,3.9967,3.968,3.8346,3.6725,3.5047,3.2143,2.9361,2.7371,2.6176,2.5542,2.5542,2.4289,2.3318,2.3186,2.1934,2.1023,2.0891,2.0164,2.0057,2.0904,2.1797,2.3316,2.5665,2.7643,2.977,3.2083,3.3827,3.546,3.6968,3.7734,3.8432,3.9101,3.9101,3.9101,3.9101,3.9101,3.9175,3.938,4.0234,4.107,4.1869,4.2686,4.3392,4.4005,4.4135,4.4165,4.4202,4.4351,4.447,4.4724,2.4542,2.5872,2.7339,2.8568,3.0049,3.1742,3.3755,3.4865,3.5837,3.6861,3.7382,3.8111,3.9399,4.0021,4.068,4.1498,4.1664,4.1347,4.0524,4.0571,4.025,3.9394,3.9024,3.8168,3.675,3.4853,3.2545,2.9835,2.6777,2.4315,2.2371,2.0498,1.9884,2.0523,2.3634,2.7233,3.1178,3.4928,3.725,3.8544,3.9912,4.0495,4.0546,4.0534,4.0564,4.0612,4.064,4.064,4.0646,4.0607,4.0588,4.0588,4.0588,4.0593,4.0771,4.1643,4.2171,4.2752,4.3972,4.4303,4.44,4.4785,4.4499,4.4039,4.358,4.2508,4.1475,4.1017,3.9566,3.7715,3.5579,3.3089,3.0931,2.9665,2.8742,2.801,2.7559,2.6737,2.5706,2.4436,2.3558,2.255,2.123,2.0703,2.0408,2.0332,2.1466,2.2858,2.4468,2.6934,2.923,3.1267,3.3295,3.495,3.6224,3.7359,3.8152,3.8524,3.8951,3.9156,3.9156,3.9229,3.9248,3.9285,4.0123,4.0691,4.1128,4.2337,4.3372,4.4177,4.4226,4.4244,4.4244,4.4244,4.4244,4.4412,2.7083,2.8502,2.9927,3.0622,3.2109,3.386,3.5738,3.7668,3.8594,3.7624,3.855,3.9645,4.0436,4.0567,4.0866,4.164,4.1797,4.1576,4.0941,4.1132,4.0976,4.0331,3.9745,3.8977,3.7951,3.5919,3.3622,3.1075,2.8059,2.5498,2.3342,2.1158,2.0261,2.0656,2.5338,2.9201,3.2378,3.5359,3.7603,3.9221,4.0146,4.0554,4.0603,4.0626,4.0621,4.0621,4.07,4.0713,4.07,4.0668,4.0635,4.0635,4.0635,4.0635,4.0756,4.1427,4.1894,4.2437,4.3715,4.4318,4.4762,4.5359,4.5476,4.5228,4.4557,4.3714,4.2891,4.2221,4.0577,3.8553,3.6169,3.4323,3.288,3.1977,3.1105,3.0295,2.9599,2.9153,2.8171,2.6223,2.5343,2.4119,2.2098,2.1431,2.0797,2.0051,2.1395,2.257,2.3381,2.6372,2.8802,3.0448,3.2705,3.4386,3.5437,3.6988,3.7858,3.8044,3.8864,3.9256,3.9256,3.9346,3.9391,3.9455,4.0064,4.041,4.0654,4.2257,4.3349,4.4024,4.424,4.4314,4.4314,4.4314,4.4314,4.4408,2.9645,3.1428,3.3001,3.316,3.5056,3.6619,3.6829,3.8854,4.0032,3.9199,3.9317,3.977,4.0486,4.07,4.1078,4.1892,4.1962,4.1995,4.1955,4.2098,4.1882,4.1214,4.1299,4.033,3.8122,3.6572,3.4331,3.1371,2.8158,2.5834,2.4334,2.27,2.2281,2.3056,2.7713,3.1142,3.3586,3.5952,3.7851,3.9354,4.0246,4.0583,4.0607,4.0668,4.0687,4.07,4.0778,4.079,4.079,4.079,4.079,4.079,4.079,4.0746,4.0706,4.0783,4.1889,4.31,4.3204,4.4383,4.556,4.5603,4.5531,4.5475,4.5399,4.4671,4.4058,4.3963,4.1933,3.9619,3.7789,3.6093,3.4683,3.3808,3.2868,3.2248,3.2172,3.0831,2.9775,2.9547,2.6786,2.4809,2.4563,2.2457,2.1054,2.0979,2.18,2.2642,2.3449,2.5911,2.8069,2.9739,3.1425,3.305,3.4604,3.6198,3.7368,3.8096,3.8981,3.9373,3.9373,3.9373,3.9391,3.9391,3.9466,3.9914,4.0736,4.2314,4.3023,4.322,4.4055,4.4383,4.4383,4.4383,4.4383,4.4401,3.3334,3.4579,3.5741,3.6274,3.7158,3.8131,3.9123,4.0076,4.0747,4.0905,4.0923,4.1029,4.1389,4.1467,4.1651,4.197,4.203,4.2097,4.2205,4.2346,4.2342,4.2199,4.1827,4.1053,3.9708,3.8291,3.6259,3.356,3.1463,2.9156,2.6693,2.5679,2.4854,2.4478,3.0498,3.4286,3.6246,3.7552,3.8827,4.0062,4.0448,4.0626,4.0668,4.0733,4.0759,4.0759,4.079,4.079,4.079,4.079,4.079,4.079,4.079,4.079,4.0746,4.07,4.1556,4.2584,4.3042,4.4029,4.5038,4.5541,4.5622,4.555,4.5513,4.4862,4.4249,4.4211,4.2545,4.0709,3.9485,3.8303,3.72,3.6323,3.5413,3.4655,3.4143,3.2571,3.1132,3.0108,2.8332,2.6612,2.5096,2.4009,2.2962,2.196,2.2128,2.2445,2.2745,2.5587,2.773,2.8894,3.0996,3.2645,3.3827,3.5895,3.7125,3.7461,3.8808,3.9469,3.9469,3.952,3.9502,3.952,3.9469,3.9919,4.0813,4.1902,4.267,4.3268,4.4121,4.4458,4.4458,4.4458,4.4458,4.444,3.6313,3.7128,3.7928,3.8536,3.8858,3.9411,4.0624,4.0996,4.135,4.1959,4.197,4.1909,4.203,4.2072,4.2115,4.2132,4.2181,4.2246,4.2369,4.2508,4.2645,4.2804,4.2393,4.1814,4.119,3.9786,3.8003,3.5855,3.4191,3.1994,2.9342,2.895,2.828,2.7623,3.2324,3.6001,3.8668,3.9119,3.9796,4.0534,4.0607,4.0668,4.0726,4.0784,4.0796,4.0827,4.1098,4.1176,4.1214,4.1485,4.1563,4.1485,4.0958,4.079,4.0848,4.1036,4.1699,4.2555,4.3357,4.4176,4.4951,4.5552,4.5673,4.5622,4.5568,4.5108,4.461,4.4287,4.3253,4.2065,4.0918,3.9983,3.9106,3.8248,3.7144,3.6193,3.5567,3.3971,3.2359,3.0915,2.9798,2.8305,2.6308,2.5636,2.4812,2.3638,2.3464,2.3309,2.3069,2.5712,2.7708,2.878,3.0979,3.269,3.3799,3.5991,3.7207,3.7451,3.8877,3.9552,3.9552,3.9626,3.9626,3.9645,3.9571,3.989,4.0516,4.1515,4.2321,4.3013,4.4102,4.4515,4.4542,4.4542,4.4524,4.4551,3.8076,3.8825,3.9453,3.947,4.0212,4.0766,4.0784,4.1474,4.2012,4.2061,4.2103,4.2103,4.2103,4.2205,4.2346,4.2463,4.2503,4.2526,4.2609,4.2706,4.2822,4.29,4.2994,4.2814,4.2304,4.0694,3.9227,3.7856,3.5442,3.3538,3.2048,3.2316,3.2779,3.3361,3.2868,3.5518,4.037,4.0508,4.0583,4.0588,4.0668,4.0739,4.08,4.08,4.0792,4.0904,4.1787,4.2078,4.2233,4.3075,4.3366,4.3063,4.1338,4.079,4.0965,4.1757,4.2609,4.3465,4.4274,4.5124,4.5781,4.5715,4.5687,4.5693,4.5693,4.564,4.5355,4.4495,4.4285,4.3729,4.2005,4.0917,4.002,3.9197,3.7578,3.6401,3.6401,3.488,3.3475,3.2657,3.1096,2.9741,2.8846,2.7262,2.6265,2.6246,2.6138,2.5721,2.4898,2.6412,2.8053,2.9731,3.143,3.3109,3.4769,3.6449,3.7694,3.8486,3.9293,3.9689,3.9689,3.9689,3.9703,3.9693,3.9693,3.9669,3.9727,4.1342,4.1991,4.216,4.3857,4.4524,4.4605,4.4605,4.4632,4.4712,4.12,4.1165,4.11,4.1202,4.1463,4.1706,4.1789,4.2044,4.2205,4.2246,4.2305,4.2364,4.2364,4.2405,4.2486,4.2548,4.2588,4.2627,4.2745,4.2804,4.2918,4.3049,4.3251,4.3027,4.2323,4.2018,4.0852,3.8711,3.814,3.684,3.4906,3.5022,3.534,3.5842,3.6468,3.8153,4.0469,4.0573,4.0617,4.0668,4.0688,4.0745,4.08,4.0804,4.1164,4.1729,4.2,4.2485,4.3017,4.3307,4.3404,4.3307,4.2741,4.2567,4.2613,4.2879,4.3537,4.4241,4.449,4.5158,4.5781,4.5765,4.5735,4.5703,4.5703,4.5671,4.5599,4.5312,4.4761,4.4131,4.3576,4.2274,4.1165,4.0916,3.8891,3.7347,3.7347,3.5348,3.3772,3.3525,3.1984,3.0598,2.9779,2.8679,2.7771,2.7233,2.7661,2.73,2.5796,2.7805,2.9259,2.9769,3.1958,3.3656,3.4788,3.6467,3.7694,3.8505,3.9335,3.9689,3.9689,3.9689,3.9708,3.9703,3.9703,3.9684,3.9792,4.145,4.2128,4.2297,4.3973,4.4659,4.4659,4.4659,4.4685,4.4712,4.272,4.2344,4.1884,4.203,4.2121,4.2187,4.2287,4.2287,4.2328,4.2346,4.2463,4.2544,4.2588,4.2627,4.2667,4.2709,4.2709,4.2786,4.2918,4.2975,4.3087,4.3233,4.3393,4.3309,4.2945,4.2854,4.2095,4.0663,3.9996,3.8773,3.7145,3.7243,3.7413,3.7747,3.8848,3.9756,4.0466,4.0569,4.0646,4.0771,4.1197,4.1362,4.1358,4.1651,4.2128,4.2662,4.3003,4.3458,4.3962,4.4273,4.437,4.437,4.437,4.437,4.4311,4.3974,4.424,4.4705,4.5015,4.5452,4.5824,4.581,4.5781,4.5731,4.5715,4.5703,4.5706,4.5709,4.5235,4.4626,4.3974,4.294,4.1984,4.1351,3.9325,3.7836,3.7836,3.587,3.4308,3.4022,3.2997,3.1993,3.1206,3.0585,3.0022,2.9508,2.9931,2.9734,2.8594,2.9699,3.0782,3.1692,3.3223,3.4754,3.6268,3.7286,3.8231,3.9025,3.9554,3.9777,3.9777,3.9777,3.9758,3.9735,3.9735,3.9712,3.9802,4.1184,4.192,4.2335,4.3712,4.4448,4.4738,4.4738,4.4745,4.4789,4.2969,4.2449,4.203,4.2079,4.2205,4.2287,4.2287,4.2287,4.2346,4.2503,4.2503,4.2548,4.2673,4.2844,4.2938,4.292,4.292,4.3013,4.3214,4.3196,4.3304,4.3479,4.3513,4.3682,4.4005,4.3292,4.3032,4.3321,4.1104,3.9608,3.8892,3.8956,3.9051,3.9238,4.0112,4.0449,4.0415,4.0626,4.0886,4.1223,4.2131,4.2443,4.2421,4.3149,4.349,4.3704,4.4501,4.4831,4.5006,4.5744,4.5997,4.5997,4.5997,4.5997,4.5831,4.5037,4.4781,4.4955,4.5693,4.5906,4.5893,4.5814,4.5805,4.5781,4.5731,4.5715,4.5719,4.5726,4.5709,4.5192,4.3506,4.309,4.2458,4.077,3.9048,3.7885,3.7827,3.637,3.5028,3.4261,3.4136,3.3776,3.2972,3.2764,3.268,3.2622,3.2708,3.2787,3.2787,3.211,3.2705,3.4851,3.504,3.6254,3.8681,3.87,3.9117,3.9911,3.9911,3.9911,3.9911,3.9911,3.987,3.9804,3.9804,3.9781,3.9788,4.0637,4.1491,4.2322,4.319,4.4046,4.4796,4.4796,4.4846,4.4895,4.3797,4.2838,4.203,4.2079,4.2205,4.2287,4.2287,4.2405,4.2445,4.2503,4.2645,4.2745,4.2765,4.2936,4.3086,4.3123,4.3123,4.316,4.3214,4.3339,4.3444,4.3497,4.3749,4.391,4.4005,4.4061,4.3941,4.3604,4.1779,4.0848,4.0746,4.0158,4.0328,4.1069,4.1347,4.1104,4.0534,4.1542,4.3008,4.4504,4.3133,4.307,4.3771,4.3548,4.3889,4.452,4.4734,4.5181,4.5744,4.5938,4.5997,4.5997,4.5997,4.5997,4.5958,4.5739,4.5689,4.5728,4.5866,4.5899,4.5893,4.5893,4.5833,4.5805,4.5786,4.5776,4.5785,4.5785,4.5742,4.5365,4.4289,4.3544,4.2511,4.0781,3.9039,3.7682,3.7068,3.6002,3.5239,3.5047,3.5047,3.474,3.3878,3.3704,3.3421,3.2809,3.3891,3.4568,3.4573,3.5602,3.5834,3.5076,3.6292,3.7547,3.8765,3.8784,3.9201,4.0057,4.0057,4.0057,4.0057,3.9996,3.9975,3.9954,3.9911,3.9867,3.9924,4.0795,4.1651,4.2511,4.3383,4.4241,4.4943,4.4943,4.4919,4.4895,4.417,4.305,4.2097,4.2145,4.2246,4.2328,4.2387,4.2445,4.2544,4.2624,4.2724,4.284,4.2917,4.3049,4.3215,4.3341,4.3305,4.3322,4.3375,4.3479,4.3582,4.3716,4.391,4.4067,4.4237,4.4411,4.4237,4.3701,4.2841,4.2286,4.2028,4.159,4.1723,4.2326,4.2376,4.2302,4.2179,4.2601,4.3537,4.4715,4.4311,4.4228,4.4365,4.4599,4.4978,4.5395,4.5395,4.5677,4.6056,4.6056,4.6026,4.5997,4.5997,4.5997,4.5997,4.6005,4.5994,4.5994,4.596,4.5956,4.5932,4.5906,4.5847,4.58,4.58,4.5805,4.581,4.5795,4.577,4.5372,4.4087,4.3455,4.2441,4.0288,3.8849,3.77,3.6825,3.5931,3.5532,3.5897,3.5974,3.594,3.5844,3.5795,3.5607,3.5166,3.594,3.6425,3.6427,3.7651,3.7866,3.6824,3.768,3.8556,3.9393,3.9393,3.9641,4.0117,4.0117,4.0117,4.0096,4.0057,4.0057,4.0057,4.0015,3.9994,4.0051,4.0946,4.1803,4.2623,4.3517,4.4334,4.5057,4.5057,4.5014,4.4991,4.4297,4.3208,4.2287,4.2305,4.2328,4.2346,4.2463,4.2544,4.2606,4.2783,4.2822,4.2917,4.3067,4.3196,4.3305,4.3484,4.3448,4.3481,4.3582,4.3649,4.3781,4.4005,4.4067,4.4218,4.4487,4.4524,4.4346,4.3895,4.3904,4.3613,4.2986,4.2891,4.3001,4.3275,4.3307,4.3713,4.4311,4.384,4.3717,4.4001,4.544,4.5453,4.4754,4.5735,4.6095,4.6093,4.6093,4.6104,4.6105,4.6105,4.6066,4.6007,4.5997,4.5997,4.5997,4.5997,4.5997,4.5997,4.6014,4.5991,4.598,4.5919,4.5847,4.58,4.58,4.58,4.58,4.5795,4.5795,4.5278,4.3516,4.3207,4.2305,3.9562,3.8541,3.7718,3.6675,3.6045,3.5949,3.6622,3.694,3.7309,3.7867,3.8028,3.8035,3.7901,3.8016,3.815,3.8265,3.9054,3.9465,3.9414,3.9166,3.9376,4.0118,4.0137,4.0137,4.0137,4.0137,4.0137,4.0137,4.0117,4.0117,4.0098,4.0098,4.0117,4.0174,4.103,4.1888,4.2707,4.3564,4.4402,4.5125,4.5125,4.5103,4.5103,4.4403,4.3651,4.2946,4.2412,4.2387,4.2463,4.2503,4.2645,4.2727,4.2729,4.2918,4.3067,4.3104,4.3251,4.3411,4.3481,4.3532,4.36,4.3582,4.3814,4.3974,4.4005,4.4266,4.4458,4.4515,4.4719,4.4862,4.489,4.4276,4.394,4.3886,4.3307,4.3415,4.4122,4.4283,4.48,4.5543,4.5576,4.5572,4.5634,4.589,4.5901,4.5784,4.6007,4.6093,4.6093,4.6093,4.6093,4.6104,4.6105,4.6095,4.6066,4.6026,4.5997,4.5997,4.5997,4.5997,4.5997,4.5997,4.5953,4.5905,4.5906,4.5847,4.58,4.58,4.58,4.58,4.58,4.5791,4.5259,4.352,4.3202,4.2112,3.8832,3.8176,3.7527,3.5907,3.6202,3.6612,3.6699,3.8007,3.8661,3.8031,3.8597,3.8696,3.7967,3.8514,3.9227,3.9972,4.0818,4.1586,4.2239,4.0843,4.0138,4.0253,4.0253,4.0253,4.0253,4.0253,4.0253,4.0273,4.0196,4.0176,4.0176,4.0118,4.0117,4.0174,4.103,4.1909,4.277,4.359,4.4429,4.5192,4.5192,4.5148,4.5103,4.4511,4.3863,4.3208,4.253,4.2463,4.2544,4.2645,4.2763,4.2822,4.2918,4.3012,4.3141,4.3251,4.3376,4.3463,4.3566,4.3682,4.38,4.3814,4.3942,4.4067,4.4218,4.4383,4.4551,4.4712,4.4895,4.5061,4.5213,4.4895,4.4786,4.4863,4.457,4.4658,4.5054,4.5196,4.546,4.5867,4.5949,4.6014,4.6046,4.6047,4.6075,4.6122,4.6149,4.6138,4.6154,4.6154,4.6438,4.6792,4.6803,4.6804,4.6795,4.6766,4.6406,4.5997,4.5997,4.5997,4.5997,4.5997,4.5994,4.5949,4.5912,4.5887,4.5847,4.5814,4.58,4.58,4.58,4.5786,4.5283,4.3568,4.3245,4.2284,3.9297,3.8801,3.8363,3.7083,3.7244,3.7654,3.8055,3.921,4.0019,4.0046,4.08,4.1146,4.0726,4.1037,4.144,4.1843,4.2247,4.2614,4.3015,4.1738,4.1051,4.1053,4.0557,4.0309,4.0309,4.0291,4.031,4.031,4.0272,4.0253,4.0253,4.0234,4.0444,4.092,4.1799,4.2638,4.3479,4.4319,4.4891,4.5235,4.5235,4.5235,4.5213,4.4636,4.411,4.3507,4.2642,4.2503,4.2566,4.2783,4.2822,4.2899,4.3067,4.3104,4.3215,4.3412,4.3481,4.3566,4.3634,4.3832,4.3961,4.4067,4.4097,4.4188,4.4411,4.4524,4.4712,4.4919,4.508,4.5192,4.5297,4.5379,4.5458,4.5513,4.5603,4.5651,4.5731,4.58,4.5867,4.5929,4.5983,4.6046,4.6095,4.6095,4.6141,4.6185,4.6193,4.6208,4.6235,4.6488,4.6948,4.7439,4.7654,4.757,4.7398,4.7408,4.6766,4.6026,4.6007,4.5997,4.5997,4.5997,4.5994,4.5991,4.5949,4.5912,4.5887,4.5841,4.5827,4.5814,4.5814,4.5814,4.5355,4.3866,4.344,4.2518,4.0114,3.9554,3.9116,3.826,3.8286,3.8697,3.9504,4.0371,4.1224,4.2059,4.2733,4.3118,4.3102,4.3102,4.3179,4.3374,4.3374,4.347,4.3662,4.2595,4.1986,4.1968,4.107,4.0631,4.0612,4.0423,4.031,4.031,4.031,4.031,4.0329,4.0539,4.0978,4.1628,4.2699,4.3502,4.4133,4.4994,4.5319,4.5319,4.5319,4.5319,4.5317,4.4805,4.452,4.4114,4.2731,4.2548,4.2649,4.2783,4.2842,4.2938,4.3067,4.3142,4.3269,4.3467,4.3569,4.3634,4.3753,4.3897,4.4067,4.4255,4.4383,4.4468,4.4487,4.4738,4.4895,4.4991,4.5192,4.5297,4.5297,4.5438,4.5532,4.5586,4.5651,4.5727,4.58,4.5848,4.5917,4.5991,4.6056,4.6095,4.6105,4.6111,4.6107,4.6115,4.6189,4.6196,4.6332,4.7404,4.7657,4.7618,4.8355,4.8074,4.7404,4.7398,4.6795,4.6076,4.6026,4.5997,4.5997,4.5997,4.5994,4.5991,4.5991,4.5949,4.5905,4.5886,4.5899,4.5893,4.5893,4.5847,4.5529,4.4659,4.3846,4.2725,4.0984,4.0017,3.9192,3.8324,3.8827,3.9605,4.0414,4.1263,4.2131,4.3018,4.3153,4.3177,4.3092,4.3111,4.3442,4.4162,4.4201,4.4586,4.5374,4.3782,4.2865,4.2812,4.2007,4.1604,4.1585,4.0781,4.0398,4.0398,4.0398,4.0398,4.0436,4.1241,4.1625,4.1797,4.3426,4.4116,4.4269,4.5093,4.54,4.54,4.54,4.538,4.5398,4.4769,4.4232,4.368,4.2745,4.2667,4.2783,4.2842,4.2956,4.3049,4.3142,4.3269,4.3376,4.3534,4.3652,4.3786,4.3897,4.4042,4.4195,4.4354,4.4458,4.457,4.4685,4.4821,4.4943,4.5057,4.5213,4.5319,4.5361,4.5514,4.5605,4.5657,4.5719,4.5776,4.5833,4.6442,4.6744,4.6826,4.7416,4.7369,4.6921,4.6917,4.6602,4.6169,4.6196,4.6196,4.641,4.7917,4.8612,4.8865,4.9344,4.9298,4.9008,4.9012,4.839,4.7651,4.762,4.7609,4.7609,4.7609,4.6832,4.5994,4.6003,4.5991,4.5949,4.5917,4.5905,4.5893,4.5893,4.588,4.5615,4.4821,4.435,4.3718,4.2608,4.1654,4.0926,4.0604,4.0391,4.0572,4.1382,4.2198,4.3048,4.3921,4.4446,4.4735,4.472,4.472,4.4839,4.515,4.517,4.5324,4.5651,4.5021,4.4374,4.3765,4.294,4.2501,4.2501,4.212,4.1949,4.1949,4.1949,4.1949,4.1968,4.2294,4.2754,4.3291,4.3943,4.4499,4.4959,4.5285,4.54,4.54,4.54,4.54,4.54,4.441,4.3906,4.3404,4.2793,4.2745,4.2822,4.2956,4.3049,4.3141,4.3251,4.3376,4.3463,4.3582,4.3753,4.3883,4.4005,4.4135,4.4304,4.4411,4.4551,4.4685,4.484,4.4938,4.5033,4.517,4.5277,4.5361,4.5438,4.5568,4.5791,4.6111,4.6175,4.6366,4.6673,4.7314,4.7656,4.7761,4.8379,4.8312,4.7806,4.784,4.7513,4.6995,4.68,4.6741,4.6975,4.8911,4.9586,4.9683,5.0229,5.024,4.9991,5.0012,4.9353,4.8593,4.861,4.8599,4.8599,4.8599,4.7725,4.6812,4.681,4.6829,4.6721,4.6407,4.6337,4.6259,4.5987,4.5917,4.5731,4.5188,4.4834,4.4453,4.3892,4.3046,4.2441,4.2428,4.1944,4.1912,4.2723,4.3303,4.3965,4.4819,4.5418,4.5746,4.5731,4.5731,4.5715,4.57,4.57,4.57,4.57,4.5703,4.5401,4.4752,4.3838,4.3417,4.3398,4.3113,4.2961,4.2961,4.2961,4.2961,4.2981,4.323,4.3691,4.4249,4.4536,4.4958,4.5457,4.5457,4.5457,4.5457,4.5457,4.5438,4.5477,4.3734,4.3614,4.3404,4.2889,4.2783,4.2878,4.3067,4.3104,4.3178,4.3359,4.3463,4.3532,4.3582,4.38,4.3929,4.4005,4.4177,4.4373,4.4487,4.4745,4.4895,4.4895,4.5014,4.517,4.5297,4.538,4.5457,4.5495,4.5659,4.6169,4.7012,4.7079,4.7599,4.8503,4.8522,4.856,4.8619,4.8691,4.872,4.872,4.8772,4.8806,4.8748,4.8144,4.791,4.8222,5.0482,5.056,4.98,5.093,5.0735,5.0014,5.001,4.9362,4.8612,4.863,4.8619,4.8619,4.8619,4.8619,4.8619,4.8599,4.8599,4.8366,4.7512,4.7295,4.7059,4.6185,4.5949,4.5886,4.5886,4.5246,4.4703,4.4703,4.3986,4.3412,4.3407,4.3395,4.3692,4.4504,4.4601,4.4929,4.5722,4.58,4.5805,4.5795,4.58,4.5765,4.5715,4.57,4.57,4.57,4.57,4.57,4.57,4.4771,4.4316,4.4297,4.3489,4.3124,4.3124,4.3124,4.3124,4.3162,4.3951,4.4316,4.4374,4.524,4.5586,4.5586,4.5586,4.5586,4.5586,4.5605,4.5568,4.5629,4.3626,4.3306,4.2976,4.2838,4.2917,4.303,4.3104,4.3215,4.334,4.3463,4.3532,4.3615,4.38,4.3929,4.4055,4.4177,4.4354,4.4524,4.4764,4.4865,4.4943,4.5084,4.5148,4.5213,4.5297,4.5954,4.634,4.6416,4.7176,4.7667,4.7915,4.8029,4.8236,4.8542,4.913,4.9458,4.9562,5.0199,5.014,4.9615,4.9629,4.9294,4.8826,4.9021,4.8865,4.876,5.0618,5.1086,5.0833,5.1183,5.1125,5.0903,5.0906,5.0695,5.0411,5.042,5.0428,5.0425,5.0425,5.0425,5.0134,4.891,4.8599,4.8522,4.8269,4.7734,4.7229,4.6976,4.6402,4.5975,4.5975,4.5759,4.5611,4.5611,4.487,4.4316,4.4304,4.38,4.3722,4.4582,4.4666,4.4989,4.5783,4.5874,4.588,4.5866,4.5819,4.5786,4.5771,4.5771,4.5771,4.5771,4.5761,4.5765,4.5765,4.5449,4.5282,4.5282,4.5038,4.4922,4.4916,4.4922,4.4922,4.4935,4.5186,4.5282,4.5301,4.5552,4.5671,4.5657,4.5657,4.564,4.5663,4.6297,4.6491,4.6606,4.3288,4.303,4.284,4.2899,4.303,4.3141,4.3215,4.334,4.3463,4.3513,4.3649,4.38,4.3929,4.4023,4.4147,4.4373,4.4551,4.4738,4.4895,4.4967,4.5061,4.5235,4.5581,4.5795,4.5837,4.6435,4.6935,4.7337,4.7983,4.8475,4.882,4.8929,4.916,4.955,5.0073,5.0343,5.0456,5.0977,5.0919,5.0471,5.0505,5.0229,4.982,5.0151,5.0073,4.9917,5.093,5.13,5.13,5.13,5.13,5.1292,5.1295,5.1269,5.122,5.1219,5.1197,5.1194,5.1202,5.1202,5.095,4.9881,4.9629,4.9532,4.9182,4.8716,4.8133,4.7434,4.689,4.6404,4.6055,4.6005,4.5994,4.5994,4.5545,4.5204,4.5212,4.4766,4.4599,4.511,4.5168,4.5362,4.5847,4.5893,4.5899,4.5899,4.586,4.5847,4.5847,4.5814,4.58,4.58,4.5805,4.5791,4.5791,4.5761,4.5731,4.57,4.5703,4.5703,4.57,4.5703,4.5703,4.57,4.57,4.57,4.57,4.57,4.5684,4.5706,4.5706,4.5883,4.6232,4.6754,4.7139,4.7545,4.2783,4.2822,4.286,4.3067,4.3104,4.3178,4.3394,4.3481,4.3532,4.3615,4.38,4.3929,4.4005,4.4135,4.4285,4.4487,4.4764,4.4914,4.4919,4.5103,4.5273,4.5392,4.6181,4.6721,4.6954,4.6993,4.7452,4.833,4.8461,4.8935,4.9721,4.9795,5.0278,5.1101,5.1102,5.1139,5.1214,5.121,5.1191,5.122,5.1284,5.13,5.13,5.13,5.13,5.13,5.13,5.13,5.13,5.13,5.1292,5.1292,5.1295,5.1287,5.1278,5.1229,5.1208,5.1197,5.1214,5.1202,5.1202,5.1202,5.1202,5.0989,5.0192,4.9959,4.9435,4.7764,4.7356,4.7026,4.6152,4.5997,4.5997,4.5997,4.5997,4.5997,4.6003,4.6003,4.5991,4.5917,4.5917,4.5917,4.5917,4.5917,4.5917,4.5886,4.5899,4.5906,4.5906,4.5827,4.5814,4.5814,4.5814,4.5814,4.5814,4.5814,4.5771,4.5715,4.5715,4.5715,4.5715,4.5715,4.5715,4.5715,4.5715,4.5715,4.5715,4.5715,4.5715,4.5715,4.5715,4.6236,4.7012,4.7089,4.7632,4.8446,4.2783,4.2917,4.3067,4.3104,4.3215,4.3376,4.3463,4.3532,4.3649,4.38,4.3929,4.4005,4.4135,4.4285,4.4401,4.4487,4.4764,4.4943,4.5057,4.5192,4.5604,4.6296,4.6608,4.7396,4.8779,4.8837,4.897,4.9218,4.998,5.0436,5.061,5.0753,5.0912,5.1101,5.1146,5.1194,5.1208,5.1201,5.122,5.1287,5.1292,5.13,5.13,5.13,5.13,5.13,5.13,5.13,5.13,5.1304,5.1306,5.1288,5.124,5.123,5.1229,5.12,5.1197,5.1194,5.1202,5.1202,5.1202,5.1202,5.1202,5.1144,5.0969,5.0386,4.959,4.8541,4.7784,4.7026,4.6152,4.5997,4.5997,4.5997,4.5997,4.5997,4.5997,4.5986,4.5986,4.5986,4.5986,4.5986,4.5986,4.5983,4.596,4.5898,4.5905,4.5893,4.5893,4.5893,4.5893,4.5893,4.5893,4.5893,4.5893,4.5893,4.5835,4.5786,4.5795,4.5776,4.5786,4.5781,4.5776,4.5786,4.5786,4.5786,4.5786,4.5786,4.5776,4.5781,4.5781,4.6271,4.7069,4.7764,4.8536,4.9346,4.3027,4.303,4.3141,4.3215,4.334,4.3463,4.3532,4.3667,4.3781,4.3929,4.4023,4.4165,4.4285,4.4401,4.4524,4.4685,4.487,4.5038,4.5192,4.566,4.6164,4.6665,4.7569,4.8471,4.9432,4.9891,5.0138,5.0175,5.067,5.0916,5.0945,5.1039,5.1114,5.1108,5.1178,5.1194,5.1189,5.1201,5.1249,5.1295,5.1292,5.13,5.13,5.13,5.13,5.13,5.1312,5.1295,5.1306,5.1258,5.124,5.1249,5.1211,5.1201,5.121,5.12,5.1197,5.1206,5.1202,5.1202,5.1202,5.1202,5.1202,5.1202,5.1202,5.0853,5.027,4.9396,4.8852,4.8269,4.7395,4.689,4.6618,4.6618,4.6268,4.5997,4.5997,4.5997,4.5997,4.5997,4.5997,4.5997,4.5997,4.6005,4.5994,4.5953,4.5941,4.5949,4.5949,4.5917,4.5905,4.5905,4.5905,4.5905,4.5905,4.5905,4.5873,4.5854,4.5866,4.5852,4.5847,4.5819,4.5805,4.58,4.58,4.58,4.58,4.58,4.58,4.5829,4.6254,4.6916,4.777,4.8639,4.9473,5.0229,4.3432,4.3232,4.3215,4.3394,4.3463,4.3566,4.3649,4.38,4.3961,4.4005,4.4165,4.4285,4.4383,4.4496,4.4659,4.487,4.5014,4.5227,4.5488,4.62,4.6799,4.7223,4.8625,4.9509,4.9737,5.0499,5.0899,5.0899,5.0899,5.0929,5.1005,5.1067,5.1095,5.1095,5.1171,5.1194,5.1189,5.119,5.124,5.1287,5.1304,5.1292,5.1292,5.13,5.13,5.1292,5.1295,5.1288,5.1259,5.122,5.1201,5.119,5.119,5.119,5.119,5.1208,5.1208,5.1197,5.1214,5.1202,5.1202,5.1202,5.1202,5.1202,5.1202,5.1202,5.095,5.0076,4.9901,4.9629,4.8755,4.8017,4.7531,4.7531,4.6909,4.6443,4.6443,4.6443,4.6443,4.6443,4.6443,4.6443,4.6443,4.6443,4.6385,4.623,4.6208,4.6158,4.6003,4.5941,4.5929,4.5929,4.5929,4.5929,4.5929,4.5929,4.5929,4.5929,4.5912,4.5919,4.5906,4.5841,4.5827,4.5827,4.5982,4.6027,4.6046,4.6201,4.6259,4.6322,4.7038,4.785,4.874,4.9591,5.0314,5.088,4.4217,4.378,4.3394,4.3463,4.3548,4.3667,4.3832,4.391,4.4023,4.4153,4.4285,4.4383,4.4487,4.4712,4.4846,4.4895,4.508,4.55,4.6292,4.6567,4.7376,4.8894,4.9298,4.9852,5.0619,5.0825,5.0899,5.0899,5.0893,5.0941,5.1005,5.1067,5.1095,5.1095,5.1171,5.1194,5.1189,5.12,5.121,5.122,5.1287,5.1295,5.1295,5.1292,5.1312,5.1295,5.1287,5.1259,5.1219,5.12,5.1197,5.1194,5.1194,5.1194,5.1194,5.1214,5.1202,5.1202,5.1202,5.1202,5.1202,5.1202,5.1202,5.1202,5.1202,5.1202,5.095,5.0076,4.9901,4.9629,4.8755,4.8502,4.8425,4.8425,4.8327,4.825,4.825,4.825,4.825,4.825,4.825,4.825,4.825,4.825,4.7939,4.7181,4.7112,4.6802,4.6035,4.5986,4.5986,4.5986,4.5986,4.5986,4.5986,4.5986,4.5986,4.5986,4.6003,4.5968,4.5905,4.5893,4.5893,4.5932,4.6687,4.7023,4.7074,4.7816,4.8092,4.8063,4.8179,4.8759,4.9629,5.0442,5.0813,5.089,4.4675,4.4291,4.4013,4.364,4.3649,4.38,4.3883,4.4042,4.4135,4.4226,4.4373,4.4468,4.4551,4.4745,4.4919,4.501,4.557,4.6118,4.6565,4.7567,4.851,4.9317,4.9911,5.0408,5.0793,5.0861,5.0893,5.0893,5.089,5.0956,5.1053,5.1087,5.1127,5.1159,5.119,5.1194,5.1189,5.1189,5.121,5.1191,5.122,5.1278,5.1287,5.1295,5.1295,5.1306,5.1259,5.1219,5.1206,5.1206,5.1206,5.1206,5.1206,5.1197,5.1189,5.1189,5.1197,5.1206,5.1206,5.1194,5.1202,5.1202,5.1202,5.1202,5.1202,5.1202,5.1086,5.0717,5.0619,5.0514,5.0118,4.9651,4.9321,4.9321,4.8913,4.8602,4.8599,4.8599,4.8599,4.8599,4.8599,4.8599,4.8599,4.8599,4.8444,4.8055,4.7589,4.7123,4.6754,4.6249,4.5997,4.5997,4.5997,4.5997,4.5997,4.5997,4.5997,4.5997,4.6005,4.5983,4.596,4.5917,4.6157,4.6642,4.703,4.7482,4.7966,4.8354,4.8476,4.8502,4.8986,4.9688,5.0453,5.077,5.0906,5.0906]}]]